[[{"header":{"parameterUnit":"m.s-1","parameterCategory":1,"la1":30.6,"la2":28.766,"lo1":-90.7593,"lo2":-88.6598,"dy":0.0162,"dx":0.0183,"nx":116,"ny":114,"refTime":"2023-08-23T12:00:00:Z","depth":0,"parameterNumber":2,"parameterNumberName":"U-component_of_WINDS"},"data":[0.0,0.0,0.0,0.0,0.0,0.0,0.0,0.0,0.0,0.0,0.0,0.0,0.0,0.0,0.0,0.0,0.0,0.0,0.0,0.0,0.0,0.0,0.0,0.0,0.0,0.0,0.0,0.0,0.0,0.0,0.0,0.0,0.0,0.0,0.0,0.0,0.0,0.0,0.0,0.0,0.0,0.0,0.0,0.0,0.0,0.0,0.0,0.0,0.0,0.0,0.0,0.0,0.0,0.0,0.0,0.0,0.0,0.0,0.0,0.0,0.0,0.0,0.0,0.0,0.0,0.0,0.0,0.0,0.0,0.0,0.0,0.0,0.0,0.0,0.0,0.0,0.0,0.0,0.0,0.0,0.0,0.0,0.0,0.0,0.0,0.0,0.0,0.0,0.0,0.0,0.0,0.0,0.0,0.0,0.0,0.0,0.0,0.0,0.0,0.0,0.0,0.0,0.0,0.0,0.0,0.0,0.0,0.0,0.0,0.0,0.0,0.0,0.0,0.0,0.0,0.0,0.0,0.0,0.0,0.0,0.0,0.0,0.0,0.0,0.0,0.0,0.0,0.0,0.0,0.0,0.0,0.0,0.0,0.0,0.0,0.0,0.0,0.0,0.0,0.0,0.0,0.0,0.0,0.0,0.0,0.0,0.0,0.0,0.0,0.0,0.0,0.0,0.0,0.0,0.0,0.0,0.0,0.0,0.0,0.0,0.0,0.0,0.0,0.0,0.0,0.0,0.0,0.0,0.0,0.0,0.0,0.0,0.0,0.0,0.0,0.0,0.0,0.0,0.0,0.0,0.0,0.0,0.0,0.0,0.0,0.0,0.0,0.0,0.0,0.0,0.0,0.0,0.0,0.0,0.0,0.0,0.0,0.0,0.0,0.0,0.0,0.0,0.0,0.0,0.0,0.0,0.0,0.0,0.0,0.0,0.0,0.0,0.0,0.0,0.0,0.0,0.0,0.0,0.0,0.0,0.0,0.0,0.0,0.0,0.0,0.0,0.0,0.0,0.0,0.0,0.0,0.0,0.0,0.0,0.0,0.0,0.0,0.0,0.0,0.0,0.0,0.0,0.0,0.0,0.0,0.0,0.0,0.0,0.0,0.0,0.0,0.0,0.0,0.0,0.0,0.0,0.0,0.0,0.0,0.0,0.0,0.0,0.0,0.0,0.0,0.0,0.0,0.0,0.0,0.0,0.0,0.0,0.0,0.0,0.0,0.0,0.0,0.0,0.0,0.0,0.0,0.0,0.0,0.0,0.0,0.0,0.0,0.0,0.0,0.0,0.0,0.0,0.0,0.0,0.0,0.0,0.0,0.0,0.0,0.0,0.0,0.0,0.0,0.0,0.0,0.0,0.0,0.0,0.0,0.0,0.0,0.0,0.0,0.0,0.0,0.0,0.0,0.0,0.0,0.0,0.0,0.0,0.0,0.0,0.0,0.0,0.0,0.0,0.0,0.0,0.0,0.0,0.0,0.0,0.0,0.0,0.0,0.0,0.0,0.0,0.0,0.0,0.0,0.0,0.0,0.0,0.0,0.0,0.0,0.0,0.0,0.0,0.0,0.0,0.0,0.0,0.0,0.0,0.0,0.0,0.0,0.0,0.0,0.0,0.0,0.0,0.0,0.0,0.0,0.0,0.0,0.0,0.0,0.0,0.0,0.0,0.0,0.0,0.0,0.0,0.0,0.0,0.0,0.0,0.0,0.0,0.0,0.0,0.0,0.0,0.0,0.0,0.0,0.0,0.0,0.0,0.0,0.0,0.0,0.0,0.0,0.0,0.0,0.0,0.0,0.0,0.0,0.0,0.0,0.0,0.0,0.0,0.0,0.0,0.0,0.0,0.0,0.0,0.0,0.0,0.0,0.0,0.0,0.0,0.0,0.0,0.0,0.0,0.0,0.0,0.0,0.0,0.0,0.0,0.0,0.0,0.0,0.0,0.0,0.0,0.0,0.0,0.0,0.0,0.0,0.0,0.0,0.0,0.0,0.0,0.0,0.0,0.0,0.0,0.0,0.0,0.0,0.0,0.0,0.0,0.0,0.0,0.0,0.0,0.0,0.0,0.0,0.0,0.0,0.0,0.0,0.0,0.0,0.0,0.0,0.0,0.0,0.0,0.0,0.0,0.0,0.0,0.0,0.0,0.0,0.0,0.0,0.0,0.0,0.0,0.0,0.0,0.0,0.0,0.0,0.0,0.0,0.0,0.0,0.0,0.0,0.0,0.0,0.0,0.0,0.0,0.0,0.0,0.0,0.0,0.0,0.0,0.0,0.0,0.0,0.0,0.0,0.0,0.0,0.0,0.0,0.0,0.0,0.0,0.0,0.0,0.0,0.0,0.0,0.0,0.0,0.0,0.0,0.0,0.0,0.0,0.0,0.0,0.0,0.0,0.0,0.0,0.0,0.0,0.0,0.0,0.0,0.0,0.0,0.0,0.0,0.0,0.0,0.0,0.0,0.0,0.0,0.0,0.0,0.0,0.0,0.0,0.0,0.0,0.0,0.0,0.0,0.0,0.0,0.0,0.0,0.0,0.0,0.0,0.0,0.0,0.0,0.0,0.0,0.0,0.0,0.0,0.0,0.0,0.0,0.0,0.0,0.0,0.0,0.0,0.0,0.0,0.0,0.0,0.0,0.0,0.0,0.0,0.0,0.0,0.0,0.0,0.0,0.0,0.0,0.0,0.0,0.0,0.0,0.0,0.0,0.0,0.0,0.0,0.0,0.0,0.0,0.0,0.0,0.0,0.0,0.0,0.0,0.0,0.0,0.0,0.0,0.0,0.0,0.0,0.0,0.0,0.0,0.0,0.0,0.0,0.0,0.0,0.0,0.0,0.0,0.0,0.0,0.0,0.0,0.0,0.0,0.0,0.0,0.0,0.0,0.0,0.0,0.0,0.0,0.0,0.0,0.0,0.0,0.0,0.0,0.0,0.0,0.0,0.0,0.0,0.0,0.0,0.0,0.0,0.0,0.0,0.0,0.0,0.0,0.0,0.0,0.0,0.0,0.0,0.0,0.0,0.0,0.0,0.0,0.0,0.0,0.0,0.0,0.0,0.0,0.0,0.0,0.0,0.0,0.0,0.0,0.0,0.0,0.0,0.0,0.0,0.0,0.0,0.0,0.0,0.0,0.0,0.0,0.0,0.0,0.0,0.0,0.0,0.0,0.0,0.0,0.0,0.0,0.0,0.0,0.0,0.0,0.0,0.0,0.0,0.0,0.0,0.0,0.0,0.0,0.0,0.0,0.0,0.0,0.0,0.0,0.0,0.0,0.0,0.0,0.0,0.0,0.0,0.0,0.0,0.0,0.0,0.0,0.0,0.0,0.0,0.0,0.0,0.0,0.0,0.0,0.0,0.0,0.0,0.0,0.0,0.0,0.0,0.0,0.0,0.0,0.0,0.0,0.0,0.0,0.0,0.0,0.0,0.0,0.0,0.0,0.0,0.0,0.0,0.0,0.0,0.0,0.0,0.0,0.0,0.0,0.0,0.0,0.0,0.0,0.0,0.0,0.0,0.0,0.0,0.0,0.0,0.0,0.0,0.0,0.0,0.0,0.0,0.0,0.0,0.0,0.0,0.0,0.0,0.0,0.0,0.0,0.0,0.0,0.0,0.0,0.0,0.0,0.0,0.0,0.0,0.0,0.0,0.0,0.0,0.0,0.0,0.0,0.0,0.0,0.0,0.0,0.0,0.0,0.0,0.0,0.0,0.0,0.0,0.0,0.0,0.0,0.0,0.0,0.0,0.0,0.0,0.0,0.0,0.0,0.0,0.0,0.0,0.0,0.0,0.0,0.0,0.0,0.0,0.0,0.0,0.0,0.0,0.0,0.0,0.0,0.0,0.0,0.0,0.0,0.0,0.0,0.0,0.0,0.0,0.0,0.0,0.0,0.0,0.0,0.0,0.0,0.0,0.0,0.0,0.0,0.0,0.0,0.0,0.0,0.0,0.0,0.0,0.0,0.0,0.0,0.0,0.0,0.0,0.0,0.0,0.0,0.0,0.0,0.0,0.0,0.0,0.0,0.0,0.0,0.0,0.0,0.0,0.0,0.0,0.0,0.0,0.0,0.0,0.0,0.0,0.0,0.0,0.0,0.0,0.0,0.0,0.0,0.0,0.0,0.0,0.0,0.0,0.0,0.0,0.0,0.0,0.0,0.0,0.0,0.0,0.0,0.0,0.0,0.0,0.0,0.0,0.0,0.0,0.0,0.0,0.0,0.0,0.0,0.0,0.0,0.0,0.0,0.0,0.0,0.0,0.0,0.0,0.0,0.0,0.0,0.0,0.0,0.0,0.0,0.0,0.0,0.0,0.0,0.0,0.0,0.0,0.0,0.0,0.0,0.0,0.0,0.0,0.0,0.0,0.0,0.0,0.0,0.0,0.0,0.0,0.0,0.0,0.0,0.0,0.0,0.0,0.0,0.0,0.0,0.0,0.0,0.0,0.0,0.0,0.0,0.0,0.0,0.0,0.0,0.0,0.0,0.0,0.0,0.0,0.0,0.0,0.0,0.0,0.0,0.0,0.0,0.0,0.0,0.0,0.0,0.0,0.0,0.0,0.0,0.0,0.0,0.0,0.0,0.0,0.0,0.0,0.0,0.0,0.0,0.0,0.0,0.0,0.0,0.0,0.0,0.0,0.0,0.0,0.0,0.0,0.0,0.0,0.0,0.0,0.0,0.0,0.0,0.0,0.0,0.0,0.0,0.0,0.0,0.0,0.0,0.0,0.0,0.0,0.0,0.0,0.0,0.0,0.0,0.0,0.0,0.0,0.0,0.0,0.0,0.0,0.0,0.0,0.0,0.0,0.0,0.0,0.0,0.0,0.0,0.0,0.0,0.0,0.0,0.0,0.0,0.0,0.0,0.0,0.0,0.0,0.0,0.0,0.0,0.0,0.0,0.0,0.0,0.0,0.0,0.0,0.0,0.0,0.0,0.0,0.0,0.0,0.0,0.0,0.0,0.0,0.0,0.0,0.0,0.0,0.0,0.0,0.0,0.0,0.0,0.0,0.0,0.0,0.0,0.0,0.0,0.0,0.0,0.0,0.0,0.0,0.0,0.0,0.0,0.0,0.0,0.0,0.0,0.0,0.0,0.0,0.0,0.0,0.0,0.0,0.0,0.0,0.0,0.0,0.0,0.0,0.0,0.0,0.0,0.0,0.0,0.0,0.0,0.0,0.0,0.0,0.0,0.0,0.0,0.0,0.0,0.0,0.0,0.0,0.0,0.0,0.0,0.0,0.0,0.0,0.0,0.0,0.0,0.0,0.0,0.0,0.0,0.0,0.0,0.0,0.0,0.0,0.0,0.0,0.0,0.0,0.0,0.0,0.0,0.0,0.0,0.0,0.0,0.0,0.0,0.0,0.0,0.0,0.0,0.0,0.0,0.0,0.0,0.0,0.0,0.0,0.0,0.0,0.0,0.0,0.0,0.0,0.0,0.0,0.0,0.0,0.0,0.0,0.0,0.0,0.0,0.0,0.0,0.0,0.0,0.0,0.0,0.0,0.0,0.0,0.0,0.0,0.0,0.0,0.0,0.0,0.0,0.0,0.0,0.0,0.0,0.0,0.0,0.0,0.0,0.0,0.0,0.0,0.0,0.0,0.0,0.0,0.0,0.0,0.0,0.0,0.0,0.0,0.0,0.0,0.0,0.0,0.0,0.0,0.0,0.0,0.0,0.0,0.0,0.0,0.0,0.0,0.0,0.0,0.0,0.0,0.0,0.0,0.0,0.0,0.0,0.0,0.0,0.0,0.0,0.0,0.0,0.0,0.0,0.0,0.0,0.0,0.0,0.0,0.0,0.0,0.0,0.0,0.0,0.0,0.0,0.0,0.0,0.0,0.0,0.0,0.0,0.0,0.0,0.0,0.0,0.0,0.0,0.0,0.0,0.0,0.0,0.0,0.0,0.0,0.0,0.0,0.0,0.0,0.0,0.0,0.0,0.0,0.0,0.0,0.0,0.0,0.0,0.0,0.0,0.0,0.0,0.0,0.0,0.0,0.0,0.0,0.0,0.0,0.0,0.0,0.0,0.0,0.0,0.0,0.0,0.0,0.0,0.0,0.0,0.0,0.0,0.0,0.0,0.0,0.0,0.0,0.0,0.0,-4.3931,0.0,0.0,0.0,0.0,0.0,0.0,0.0,0.0,0.0,0.0,0.0,0.0,0.0,0.0,0.0,0.0,0.0,0.0,0.0,0.0,0.0,0.0,0.0,0.0,0.0,0.0,0.0,0.0,0.0,0.0,0.0,0.0,0.0,0.0,0.0,0.0,0.0,0.0,-3.2393,-3.4246,-3.6019,-3.7711,-3.823,-3.8601,-3.8849,0.0,0.0,0.0,0.0,0.0,0.0,0.0,0.0,0.0,0.0,0.0,0.0,0.0,0.0,0.0,0.0,0.0,0.0,0.0,0.0,0.0,0.0,0.0,0.0,0.0,0.0,0.0,0.0,0.0,0.0,0.0,0.0,0.0,0.0,0.0,0.0,0.0,0.0,0.0,0.0,0.0,0.0,0.0,0.0,0.0,0.0,0.0,0.0,0.0,0.0,0.0,0.0,0.0,0.0,0.0,0.0,0.0,0.0,0.0,0.0,0.0,0.0,0.0,0.0,0.0,0.0,0.0,0.0,0.0,0.0,0.0,-4.3659,0.0,0.0,0.0,0.0,0.0,0.0,0.0,0.0,0.0,0.0,0.0,0.0,0.0,0.0,0.0,0.0,0.0,0.0,0.0,0.0,0.0,0.0,0.0,0.0,-2.8204,-2.7714,-2.7941,-2.7848,0.0,0.0,0.0,0.0,0.0,0.0,0.0,-3.0866,-3.183,-3.2736,-3.5138,-3.7287,-3.9176,-3.8998,-3.9324,-4.0081,-4.0238,0.0,0.0,0.0,0.0,0.0,0.0,0.0,0.0,0.0,0.0,0.0,0.0,0.0,0.0,0.0,0.0,0.0,0.0,0.0,0.0,0.0,0.0,0.0,0.0,0.0,0.0,0.0,0.0,0.0,0.0,0.0,0.0,0.0,0.0,0.0,0.0,0.0,0.0,0.0,0.0,0.0,0.0,0.0,0.0,0.0,0.0,0.0,0.0,0.0,0.0,0.0,0.0,0.0,0.0,0.0,0.0,0.0,0.0,0.0,0.0,0.0,0.0,0.0,-4.6271,-4.6175,-4.6169,-4.6269,-4.5863,-4.5042,-4.4674,-4.4387,-4.4104,0.0,0.0,0.0,0.0,0.0,0.0,0.0,0.0,0.0,0.0,0.0,0.0,0.0,0.0,0.0,0.0,0.0,0.0,0.0,0.0,0.0,0.0,-2.7945,-2.7833,-2.8229,-2.7743,-2.7556,0.0,0.0,0.0,0.0,0.0,0.0,-3.0693,-3.0667,-3.1375,-3.2843,-3.4878,-3.6598,-3.7958,-3.8962,-4.0045,-4.1191,-4.1674,-4.1986,-4.2088,0.0,0.0,0.0,0.0,0.0,0.0,0.0,0.0,0.0,0.0,0.0,0.0,0.0,0.0,0.0,0.0,0.0,0.0,0.0,0.0,0.0,0.0,0.0,0.0,0.0,0.0,0.0,0.0,0.0,0.0,0.0,0.0,0.0,0.0,0.0,0.0,0.0,0.0,0.0,0.0,0.0,-3.9551,-4.0047,0.0,0.0,0.0,0.0,0.0,0.0,0.0,0.0,0.0,0.0,0.0,0.0,0.0,0.0,-4.5816,-4.6444,-4.6869,-4.6995,-4.7501,-4.7371,-4.6807,-4.7437,-4.6704,-4.4963,-4.5396,0.0,-4.3666,-4.3192,0.0,0.0,0.0,0.0,0.0,0.0,0.0,0.0,0.0,0.0,0.0,0.0,0.0,0.0,0.0,0.0,0.0,0.0,0.0,0.0,0.0,-2.7401,-2.7608,-2.8277,-2.8132,-2.8071,-2.8115,-2.8247,0.0,0.0,0.0,-2.9265,-3.0371,-3.0959,-3.2083,-3.3859,-3.5063,-3.6435,-3.7997,-3.8999,-4.061,-4.2619,-4.2323,-4.2341,-4.2575,-4.2695,0.0,0.0,0.0,0.0,0.0,0.0,0.0,0.0,0.0,0.0,0.0,0.0,0.0,0.0,0.0,0.0,0.0,0.0,0.0,0.0,0.0,0.0,0.0,0.0,0.0,0.0,0.0,0.0,0.0,0.0,0.0,0.0,0.0,0.0,0.0,0.0,0.0,0.0,0.0,-3.9124,-4.0191,-4.0292,-4.0103,-3.9784,0.0,0.0,0.0,0.0,0.0,0.0,0.0,0.0,0.0,-4.5101,-4.5437,-4.593,-4.6586,-4.7046,-4.721,-4.7144,-4.7539,-4.744,-4.6912,-4.734,-4.6618,-4.4974,-4.5666,-4.4935,-4.3182,-4.2956,-4.2445,-4.1749,0.0,0.0,0.0,0.0,0.0,-3.9707,0.0,0.0,0.0,0.0,0.0,0.0,0.0,0.0,0.0,0.0,0.0,0.0,-2.6698,-2.6926,-2.7376,-2.8321,-2.8402,-2.845,-2.8445,-2.8627,0.0,-2.87,-2.886,-2.9255,-2.99,-3.1272,-3.2696,-3.4169,-3.4865,-3.606,-3.7721,-3.8478,-4.0213,-4.2642,-4.1992,-4.2319,-4.3322,-4.3202,-4.2677,-4.1822,0.0,0.0,0.0,0.0,0.0,0.0,0.0,0.0,0.0,0.0,0.0,0.0,0.0,0.0,0.0,0.0,0.0,0.0,0.0,0.0,0.0,0.0,0.0,0.0,0.0,0.0,0.0,0.0,0.0,0.0,0.0,0.0,0.0,0.0,0.0,0.0,0.0,-3.9751,-4.0609,-4.0636,-4.0604,-4.0469,0.0,0.0,0.0,0.0,0.0,0.0,-4.3682,-4.3892,-4.4554,-4.5704,-4.5878,-4.6342,-4.703,-4.7167,-4.7201,-4.7098,-4.7165,-4.6999,-4.6599,-4.6668,-4.5923,-4.4561,-4.5113,-4.4334,-4.2711,-4.2783,-4.2479,-4.1936,-4.1559,-4.1114,-4.0688,-4.0569,-4.0238,-3.9812,0.0,0.0,0.0,0.0,0.0,0.0,0.0,0.0,0.0,0.0,0.0,-2.4425,-2.6419,-2.6517,-2.7005,-2.8474,-2.8225,-2.8261,-2.8813,-2.8536,-2.8523,-2.8875,-2.8548,-2.8762,-2.9725,-3.146,-3.2591,-3.3081,-3.3988,-3.5115,-3.6418,-3.6974,-3.8231,-4.0122,-4.0371,-4.2181,-4.4879,-4.3431,-4.3306,-4.3788,-4.1118,0.0,0.0,0.0,0.0,0.0,0.0,0.0,0.0,0.0,0.0,0.0,0.0,0.0,0.0,0.0,0.0,0.0,0.0,0.0,0.0,0.0,0.0,0.0,0.0,0.0,0.0,0.0,0.0,0.0,0.0,0.0,0.0,0.0,0.0,0.0,0.0,0.0,0.0,-4.1429,-4.136,0.0,0.0,0.0,0.0,-4.3231,-4.3329,-4.3713,-4.4587,-4.483,-4.5285,-4.6052,-4.6375,-4.6585,-4.6617,-4.6617,-4.6754,-4.6927,-4.6545,-4.6121,-4.5651,-4.5479,-4.4641,-4.3295,-4.3327,-4.2911,-4.2238,-4.3234,-4.2716,-4.1303,-4.099,-4.0574,-4.018,-3.9721,-3.9409,-3.9187,0.0,0.0,0.0,0.0,0.0,0.0,0.0,0.0,-2.0742,-2.187,-2.2683,-2.3724,-2.5209,-2.5734,-2.6403,-2.76,-2.7703,-2.7797,-2.7989,-2.7989,-2.7989,-2.7989,-2.817,-2.8787,-3.0007,-3.0907,-3.1757,-3.2463,-3.3223,-3.4014,-3.4917,-3.5625,-3.6888,-3.8557,-3.8646,-3.9933,-4.2152,-4.3534,-4.3652,-4.2892,-4.2844,-4.1597,0.0,0.0,0.0,0.0,0.0,0.0,0.0,0.0,0.0,0.0,0.0,0.0,0.0,0.0,0.0,0.0,0.0,0.0,0.0,0.0,0.0,0.0,0.0,0.0,0.0,0.0,0.0,0.0,0.0,0.0,0.0,0.0,0.0,0.0,0.0,0.0,0.0,-4.1507,-4.1977,0.0,-4.2457,-4.2674,-4.3081,-4.3692,-4.4133,-4.4549,-4.5013,-4.5195,-4.5503,-4.5864,-4.6152,-4.6294,-4.6262,-4.6298,-4.6191,-4.6012,-4.5977,-4.5592,-4.489,-4.4929,-4.4169,-4.2898,-4.3309,-4.2798,-4.162,-4.238,-4.2293,-4.1662,-4.1533,-4.1246,-4.0862,-4.0438,-3.9975,-3.9566,0.0,0.0,0.0,0.0,0.0,0.0,0.0,0.0,-1.9374,-2.049,-2.1447,-2.2531,-2.3908,-2.465,-2.5458,-2.6543,-2.6794,-2.6958,-2.7062,-2.7121,-2.7162,-2.7144,-2.7591,-2.8339,-2.9261,-2.9862,-3.0572,-3.1464,-3.2253,-3.2947,-3.3498,-3.426,-3.5425,-3.6855,-3.6889,-3.7937,-3.9761,-4.212,-4.2873,-4.2568,-4.3008,-4.214,-4.0385,0.0,0.0,0.0,0.0,0.0,0.0,0.0,0.0,0.0,0.0,0.0,0.0,0.0,0.0,0.0,0.0,0.0,0.0,0.0,0.0,0.0,0.0,0.0,0.0,0.0,0.0,0.0,0.0,0.0,0.0,0.0,0.0,0.0,0.0,0.0,-4.1382,-4.1342,-4.2068,-4.2596,-4.2659,-4.305,-4.353,-4.4112,-4.4589,-4.4986,-4.5167,-4.5346,-4.5463,-4.5604,-4.575,-4.5792,-4.5792,-4.5792,-4.5682,-4.5426,-4.5505,-4.5033,-4.4046,-4.4091,-4.3406,-4.2181,-4.2619,-4.2202,-4.1153,-4.1451,-4.1492,-4.1323,-4.1358,-4.1225,-4.0987,-4.0612,-4.0283,-3.9896,0.0,0.0,0.0,0.0,0.0,0.0,0.0,-1.6844,-1.7632,-1.9016,-1.9827,-2.0879,-2.2549,-2.3262,-2.4096,-2.5315,-2.561,-2.5841,-2.6113,-2.5946,-2.603,-2.6404,-2.6872,-2.7225,-2.7457,-2.8317,-2.9167,-3.0074,-3.1126,-3.1822,-3.2215,-3.2907,-3.3832,-3.4914,-3.5207,-3.6289,-3.7964,-3.9202,-4.093,-4.2795,-4.1449,-4.1797,-4.2681,0.0,0.0,0.0,0.0,0.0,0.0,0.0,0.0,0.0,0.0,0.0,0.0,0.0,0.0,0.0,0.0,0.0,0.0,0.0,0.0,0.0,0.0,0.0,0.0,0.0,0.0,0.0,0.0,0.0,0.0,0.0,0.0,0.0,-3.8281,-3.9739,-4.0794,-4.0976,-4.173,-4.2437,-4.2955,-4.3205,-4.3669,-4.4541,-4.4761,-4.4949,-4.5129,-4.5167,-4.5167,-4.5167,-4.5167,-4.5167,-4.5167,-4.5167,-4.5167,-4.5167,-4.5167,-4.445,-4.3078,-4.3078,-4.233,-4.1083,-4.1083,-4.095,-4.0749,-4.0574,-4.0335,-4.0165,-4.0401,-4.0501,-4.0466,-4.0081,-4.0082,-4.004,0.0,0.0,0.0,0.0,0.0,0.0,0.0,-1.5312,-1.6281,-1.7385,-1.8539,-1.9743,-2.1051,-2.182,-2.2645,-2.3674,-2.3996,-2.4231,-2.4445,-2.4402,-2.4488,-2.4723,-2.5032,-2.5713,-2.6801,-2.7344,-2.8094,-2.908,-2.994,-3.0279,-3.0237,-3.1288,-3.2059,-3.2652,-3.3408,-3.4291,-3.5401,-3.683,-3.7866,-3.8727,-4.03,-4.0518,-3.9886,0.0,0.0,0.0,0.0,0.0,0.0,0.0,0.0,0.0,0.0,0.0,0.0,0.0,0.0,0.0,0.0,0.0,0.0,0.0,0.0,0.0,0.0,0.0,0.0,0.0,0.0,0.0,0.0,0.0,0.0,0.0,0.0,-3.7745,-3.8385,-4.0055,-4.1228,-4.1302,-4.2477,-4.3378,-4.3521,-4.3559,-4.3736,-4.4112,-4.422,-4.4297,-4.4335,-4.4603,-4.4761,-4.4761,-4.5055,-4.5129,-4.4949,-4.4949,-4.4942,-4.4761,-4.4641,-4.3857,-4.2535,-4.2389,-4.1581,-4.0327,-4.0327,-4.0191,-4.0016,-3.9803,-3.9559,-3.9475,-4.0281,-4.0498,-4.0287,-3.9802,-3.9282,-3.8706,0.0,0.0,0.0,0.0,0.0,0.0,0.0,-1.3742,-1.4781,-1.5399,-1.6767,-1.8087,-1.9115,-1.9997,-2.0827,-2.1676,-2.1987,-2.2252,-2.2585,-2.2824,-2.2955,-2.3086,-2.3363,-2.4016,-2.5042,-2.5669,-2.6396,-2.7111,-2.8075,-2.8402,-2.8168,-2.922,-2.9964,-3.0436,-3.1069,-3.1856,-3.2883,-3.4066,-3.4718,-3.5182,-3.7,-3.8298,-3.9117,-3.8082,-3.8045,-3.8375,-3.7473,-3.6664,-3.597,-3.5788,0.0,0.0,0.0,0.0,0.0,0.0,0.0,0.0,0.0,0.0,0.0,0.0,0.0,0.0,0.0,0.0,0.0,0.0,0.0,0.0,0.0,0.0,0.0,0.0,-3.6701,-3.7481,-3.7938,-3.968,-4.0965,-4.1118,-4.2512,-4.3409,-4.3409,-4.3478,-4.3636,-4.3871,-4.3871,-4.391,-4.3988,-4.4189,-4.4374,-4.4374,-4.4564,-4.4641,-4.4534,-4.4534,-4.4458,-4.4343,-4.3953,-4.3205,-4.2169,-4.1784,-4.1013,0.0,-3.991,-3.9768,-3.9583,-3.9563,-3.921,0.0,0.0,0.0,0.0,0.0,-3.9179,-3.8448,0.0,0.0,0.0,0.0,0.0,0.0,0.0,-1.1999,-1.3065,-1.314,-1.4638,-1.6028,-1.6879,-1.784,-1.8734,-1.9559,-1.9832,-2.0178,-2.0737,-2.115,-2.1392,-2.1437,-2.1916,-2.2315,-2.2706,-2.368,-2.438,-2.4688,-2.5954,-2.6388,-2.6127,-2.6955,-2.7669,-2.8184,-2.8516,-2.9295,-3.0369,-3.1263,-3.1772,-3.2101,-3.2755,-3.5477,-3.9013,-3.7064,-3.738,-3.8708,-3.737,-3.6452,-3.5864,-3.5683,0.0,0.0,0.0,0.0,0.0,0.0,0.0,0.0,0.0,0.0,0.0,0.0,0.0,0.0,0.0,0.0,0.0,0.0,0.0,0.0,0.0,0.0,0.0,0.0,-3.637,-3.7017,-3.725,-3.8946,-4.0265,-4.0694,-4.1991,-4.2881,-4.2941,-4.317,-4.3329,-4.3557,-4.3636,-4.3714,-4.3871,0.0,0.0,0.0,0.0,-4.3836,-4.3745,-4.3706,-4.3706,-4.3745,-4.3061,-4.2455,-4.1826,-4.1146,-4.0474,-3.9839,-3.9661,-3.9445,-3.9288,-3.9504,-3.9089,-3.8428,-3.9273,-3.943,-3.9236,-3.9767,-3.9395,0.0,0.0,0.0,0.0,0.0,0.0,0.0,0.0,-0.9846,-1.0534,-1.0956,-1.2017,-1.3273,-1.4649,-1.5576,-1.6626,-1.7979,-1.8303,-1.8642,-1.9193,-1.9376,-1.9491,-1.9662,-2.0345,-2.0933,-2.1441,-2.2359,-2.3032,-2.3285,-2.4405,-2.47,-2.4227,-2.5385,-2.5783,-2.5591,-2.6718,-2.7487,-2.8035,-2.934,-2.9954,-3.0109,-3.0906,-3.3009,-3.5648,-3.5315,-3.5886,-3.6937,-3.7389,-3.7087,-3.6532,-3.654,-3.5812,-3.4638,-3.3116,-3.2072,0.0,0.0,0.0,0.0,0.0,0.0,0.0,0.0,0.0,0.0,0.0,0.0,0.0,0.0,0.0,0.0,0.0,0.0,0.0,-3.6172,-3.652,-3.6889,-3.7278,-3.8642,-3.9801,-4.0265,-4.1144,-4.1979,-4.267,-4.297,-4.301,-4.289,-4.317,-4.3329,-4.318,-4.3557,0.0,-4.2968,-4.2938,-4.2705,-4.2123,-4.1979,-4.1979,-4.2123,0.0,0.0,-4.0694,-4.0234,-3.9669,-3.9017,-3.8797,-3.8612,-3.8448,-3.8669,-3.8922,-3.9157,-3.9021,-3.9272,-3.9673,-3.9698,-3.9026,-3.8033,0.0,0.0,0.0,0.0,0.0,0.0,0.0,-0.8464,-0.9255,-0.8844,-1.0271,-1.159,-1.2211,-1.3332,-1.4339,-1.5136,-1.5859,-1.6391,-1.6532,-1.7161,-1.7587,-1.7669,-1.8282,-1.8885,-1.9502,-2.0103,-2.0532,-2.0843,-2.1828,-2.2126,-2.1861,-2.2771,-2.3098,-2.2963,-2.3791,-2.4439,-2.4968,-2.5951,-2.6883,-2.7771,-2.8088,-2.9869,-3.2361,-3.3267,-3.4142,-3.503,-3.5908,-3.5737,-3.5102,-3.5286,-3.4578,-3.3498,-3.2824,-3.2054,-3.1236,0.0,0.0,0.0,0.0,0.0,0.0,0.0,0.0,0.0,0.0,0.0,0.0,0.0,0.0,-3.3692,0.0,0.0,-3.5843,-3.6402,-3.6766,-3.6976,-3.6867,-3.806,-3.9167,-3.9773,-4.092,-4.189,-4.2293,-4.2566,-4.2688,-4.2688,-4.289,-4.301,-4.2981,-4.2882,-4.2701,-4.2402,-4.2081,-4.1713,-4.1241,-4.1164,-4.1164,-4.1241,-4.0685,-4.0321,-4.007,-3.9557,-3.9084,-3.8649,-3.8427,-3.8165,-3.792,-3.8036,-3.8546,-3.9282,-3.8523,-3.8745,-3.9495,-3.9227,-3.8546,-3.7774,0.0,0.0,0.0,0.0,0.0,0.0,0.0,-0.6974,-0.7918,-0.6874,-0.8555,-0.9838,-0.9797,-1.1014,-1.1989,-1.2221,-1.338,-1.4016,-1.3824,-1.485,-1.5488,-1.5586,-1.6006,-1.6557,-1.7166,-1.753,-1.7817,-1.8071,-1.8858,-1.918,-1.9095,-1.9679,-2.0034,-2.0204,-2.0641,-2.1211,-2.1959,-2.2626,-2.3838,-2.5395,-2.5402,-2.6812,-2.912,-3.0751,-3.2112,-3.3263,-3.412,-3.4019,-3.3541,-3.3697,-3.3108,-3.2337,-3.2471,-3.194,-3.1251,-3.1149,-3.0817,0.0,0.0,0.0,0.0,0.0,0.0,0.0,0.0,0.0,-3.2759,-3.2645,-3.3008,-3.384,-3.5487,-3.5748,-3.5902,-3.6452,-3.688,-3.7014,-3.6488,-3.745,-3.8411,-3.9133,-4.067,-4.1794,-4.1951,-4.2146,-4.2351,-4.2485,-4.2566,-4.267,-4.2683,-4.2219,-4.1833,-4.1665,-4.1092,-4.0651,-4.035,-4.0235,-4.0235,-4.0312,-3.963,-3.9329,-3.9404,-3.8772,-3.8427,-3.8269,-3.8196,-3.7968,-3.7714,-3.7805,-3.8291,-3.8926,-3.7954,-3.806,-3.8684,-3.8395,-3.7934,-3.7413,0.0,0.0,0.0,0.0,0.0,0.0,0.0,0.0,-0.4981,-0.5031,-0.5932,-0.6775,-0.7471,-0.8358,-0.9345,-1.0565,-1.158,-1.2211,-1.2162,-1.2576,-1.306,-1.3529,-1.3748,-1.4156,-1.4671,-1.5196,-1.5454,-1.553,-1.5961,-1.6085,-1.5821,-1.6266,-1.6626,-1.695,-1.8047,-1.8949,-1.9793,-2.0964,-2.214,-2.3311,-2.3807,-2.479,-2.602,-2.7369,-2.9611,-3.2083,-3.2981,-3.339,-3.3488,-3.3344,-3.3521,-3.3495,-3.1928,-3.1565,-3.1375,-2.9842,0.0,-3.0568,-2.9173,-2.967,-3.0488,-3.0135,-3.1041,-3.1837,0.0,0.0,-3.3392,-3.3441,-3.4197,-3.5073,-3.5775,-3.5948,-3.6104,-3.6324,-3.6535,-3.6607,-3.6448,-3.7143,-3.7774,-3.803,-3.9605,-4.0933,-4.1645,-4.1785,-4.1785,-4.1827,-4.2199,-4.2169,-4.1594,-4.1666,-4.1224,-4.0102,-3.9833,-3.9396,-3.8772,-3.8245,-3.8131,-3.8481,-3.7854,-3.7787,-3.8101,-3.7663,-3.7443,-3.7433,-3.7805,-3.7982,-3.809,-3.8431,-3.8351,-3.7959,-3.7658,-3.7124,-3.6684,-3.7108,-3.6888,-3.6296,0.0,0.0,0.0,0.0,0.0,0.0,0.0,0.0,0.0,-0.4131,-0.4776,-0.5427,-0.5782,-0.6376,-0.7161,-0.8195,-0.914,-0.9583,-0.9387,-1.0404,-1.1171,-1.1523,-1.1817,-1.2245,-1.2773,-1.2747,-1.2822,-1.3132,-1.3346,-1.3343,-1.3241,-1.4044,-1.4283,-1.4124,-1.5256,-1.6155,-1.693,-1.7903,-1.9231,-2.0674,-2.1018,-2.2333,-2.4245,-2.5079,-2.6669,-2.8773,-3.035,-3.1146,0.0,-3.1219,-3.1497,-3.1826,-3.1178,-3.1026,-3.0883,-3.0197,-3.0219,0.0,-2.9891,-3.0136,0.0,0.0,-3.1838,-3.239,-3.214,-3.2862,-3.3632,-3.3811,-3.4073,-3.46,-3.5722,-3.6106,-3.6345,0.0,-3.6839,-3.6791,-3.6402,-3.6961,-3.7464,-3.7545,-3.8652,-3.9669,-4.0376,-4.0513,-4.0557,-4.0404,-4.0608,-4.0654,-4.0525,-4.0255,-3.9819,-3.9266,-3.8812,-3.8312,-3.7815,-3.7558,-3.7366,-3.7327,-3.6844,-3.6834,-3.7183,-3.6805,-3.6795,-3.7123,-3.6785,-3.6865,-3.7221,-3.738,-3.7113,-3.6713,-3.698,-3.6499,-3.5715,-3.6452,-3.624,-3.5525,0.0,0.0,0.0,0.0,0.0,0.0,0.0,0.0,0.0,0.0,-0.3714,-0.4175,-0.4232,-0.4676,-0.5222,-0.5872,-0.6719,-0.7123,-0.693,-0.8019,-0.8881,-0.9284,-0.9302,-0.961,-1.0181,-0.9896,-0.9908,-1.0259,-1.0475,-1.063,-1.069,-1.1496,-1.1828,-1.1783,-1.2641,-1.3437,-1.4256,-1.5167,-1.6546,-1.8143,-1.8478,-2.0106,-2.2366,-2.3203,-2.4271,-2.5629,-2.7768,-2.887,-2.9249,-2.9054,-2.9311,-2.9859,-3.0167,-3.0189,-3.0099,-3.015,-2.9916,-2.9685,-2.9827,0.0,0.0,-3.1146,-3.1932,-3.2543,-3.2437,-3.2946,-3.3495,-3.372,-3.3814,-3.427,-3.5641,-3.6125,-3.6391,-3.6739,-3.6805,-3.669,-3.6067,-3.6361,-3.6769,-3.6932,-3.7565,-3.8116,-3.8488,-3.9058,-3.9339,-3.9337,-3.9321,-3.9424,-3.9531,-3.9071,-3.8677,-3.8388,-3.7901,-3.7481,-3.7056,-3.69,-3.6744,-3.6508,-3.6103,-3.6092,-3.6401,-3.6064,-3.617,-3.6587,-3.6075,-3.6183,-3.6626,-3.6645,-3.634,-3.5873,-3.6229,-3.5835,-3.5066,-3.574,-3.5588,-3.5122,0.0,0.0,0.0,0.0,0.0,0.0,0.0,0.0,0.0,0.0,0.0,0.0,0.0,-0.3126,-0.3374,-0.3679,-0.468,-0.5281,-0.5281,-0.5331,-0.5682,-0.6476,-0.5732,-0.5639,-0.6457,-0.6451,-0.6505,-0.6569,-0.7234,-0.7704,-0.7994,-0.8254,-0.8972,-1.0053,-1.0218,-1.1,-1.2146,-1.3285,-1.462,-1.5997,-1.6804,-1.8185,-1.9894,-2.1674,-2.2704,-2.3496,-2.5834,-2.7082,-2.756,-2.7216,-2.7672,-2.8419,-2.8669,-2.8969,0.0,-2.9055,-2.8657,-2.8277,-2.8257,-2.886,-2.9396,-2.896,-3.0411,-3.1822,-3.1093,-3.2027,-3.3078,-3.319,-3.3843,-3.4653,-3.5475,-3.6048,-3.6354,-3.6137,-3.6105,-3.5886,-3.5231,-3.5153,-3.5372,-3.5978,-3.6239,-3.6306,0.0,-3.74,-3.8436,-3.8861,-3.8902,-3.8851,-3.8664,-3.8607,-3.8097,-3.7113,-3.7046,-3.6794,-3.6334,-3.5924,-3.5831,-3.6031,-3.5629,-3.5548,-3.571,-3.5507,-3.5548,-3.5737,-3.6128,-3.6442,-3.6704,-3.6919,-3.6427,-3.5595,-3.5644,-3.5114,-3.4433,-3.4726,-3.5017,-3.5162,0.0,0.0,0.0,0.0,0.0,0.0,0.0,0.0,0.0,0.0,0.0,0.0,0.0,0.0,0.0,0.0,-0.2515,-0.2967,-0.3324,-0.3525,-0.3874,-0.4522,-0.3837,-0.3791,-0.4628,-0.4309,-0.4401,-0.4962,-0.5363,-0.5367,-0.4966,-0.6096,-0.6528,-0.6418,-0.7929,-0.9217,-1.028,-1.1568,-1.2814,-1.3976,-1.4846,-1.6168,-1.7857,-1.9591,-2.0933,-2.2095,0.0,-2.4918,-2.6442,-2.6761,-2.7161,-2.7551,-2.8026,-2.8123,-2.8103,-2.8033,-2.8082,-2.8238,-2.837,-2.8793,-2.9326,-2.9768,-3.0579,-3.1332,-3.1567,-3.2096,-3.2512,-3.2617,-3.3034,-3.3522,-3.4164,-3.5017,-3.566,-3.5699,-3.5763,-3.5731,-3.5484,-3.5118,-3.4936,-3.5114,-3.5054,0.0,0.0,0.0,0.0,-3.681,-3.7066,-3.7143,-3.6893,-3.6893,-3.665,-3.6151,-3.6151,-3.5991,-3.571,-3.5183,-3.4902,-3.4936,-3.4647,-3.4586,-3.4728,-3.5062,-3.5386,-3.5696,-3.5396,-3.5209,-3.5194,-3.5403,-3.4986,-3.4308,-3.4847,-3.4701,-3.4211,-3.431,-3.4408,-3.4434,0.0,0.0,0.0,0.0,0.0,0.0,0.0,0.0,0.0,0.0,0.0,0.0,0.0,0.0,0.0,0.0,0.0,-0.1158,-0.1512,-0.1511,-0.166,-0.2011,-0.1322,-0.1286,-0.1978,-0.177,-0.2048,-0.2888,-0.3479,-0.3597,-0.3188,-0.4399,-0.4819,-0.4543,-0.6196,-0.755,-0.8637,-0.9906,-1.1109,-1.2209,-1.3186,-1.4426,-1.5887,-1.7816,-1.9295,0.0,-2.176,-2.3183,-2.4594,-2.5296,-2.591,-2.6392,-2.6693,-2.7013,-2.7192,-2.6983,-2.7381,-2.7863,-2.7774,-2.8225,-2.8908,-2.9505,-3.0016,-3.0505,-3.134,-3.1526,-3.1655,-3.21,-3.2369,-3.2655,-3.3241,-3.4314,-3.5015,-3.4828,-3.5187,-3.5337,-3.4992,-3.4549,-3.4314,-3.4481,-3.4356,0.0,0.0,0.0,0.0,-3.5494,-3.5777,-3.5858,-3.5669,-3.575,-3.5629,-3.5263,-3.5223,-3.4993,-3.4495,-3.4309,-3.417,-3.4147,-3.3981,-3.399,-3.4161,-3.4311,-3.4619,-3.51,-3.4395,-3.4111,-3.4238,-3.4368,-3.4096,-3.3668,-3.439,-3.4359,-3.3915,-3.3915,-3.3866,-3.3819,0.0,0.0,0.0,0.0,0.0,0.0,0.0,0.0,0.0,0.0,0.0,0.0,0.0,0.0,0.0,0.0,0.0,0.0,0.0,0.0504,0.0806,0.0805,0.161,0.1762,0.121,0.0957,0.0356,-0.0519,-0.1609,-0.2301,-0.2602,-0.3137,-0.3705,-0.4358,-0.5044,-0.5977,-0.7199,-0.8367,-0.9526,-1.0751,-1.1946,-1.2959,-1.4046,-1.6518,-1.786,-1.8738,-2.0801,-2.1759,-2.2182,-2.297,-2.3985,-2.4843,-2.4881,-2.5629,-2.6436,-2.6002,-2.6541,-2.7147,-2.6486,-2.7133,-2.8067,-2.8145,-2.8634,-2.9405,-3.0379,-3.0324,-3.0455,-3.155,-3.1862,-3.209,0.0,0.0,-3.4438,-3.3617,-3.4374,-3.4749,-3.3845,-3.3539,-3.3581,0.0,0.0,0.0,0.0,0.0,0.0,-3.5003,0.0,-3.5059,-3.495,-3.5196,-3.5006,-3.4345,-3.4277,-3.3825,-3.287,-3.3392,-3.3606,-3.3623,-3.3535,-3.3684,-3.4001,-3.3368,-3.3433,-3.4053,-3.327,-3.3276,-3.3853,-3.3843,-3.3712,-3.3576,-3.4122,-3.4064,-3.3618,-3.3545,-3.3419,-3.3269,0.0,0.0,0.0,0.0,0.0,0.0,0.0,0.0,0.0,0.0,0.0,0.0,0.0,0.0,0.0,0.0,0.0,0.0,0.0309,0.0814,0.1111,0.111,0.1866,0.1928,0.1236,0.1133,0.0467,-0.0793,-0.0899,-0.1059,-0.1276,-0.1657,-0.1929,-0.2197,-0.3705,-0.4994,-0.6155,-0.7668,-0.8982,-1.0139,-1.1773,-1.2842,-1.3656,-1.6004,-1.7284,-1.8011,-1.937,-2.0417,-2.1404,-2.2619,-2.3438,-2.4076,-2.4627,-2.4977,-2.5196,-2.54,-2.5829,-2.6238,-2.6074,-2.6639,-2.736,-2.7642,-2.8087,-2.8514,-2.8942,-2.9117,-2.9405,-2.9969,-3.0336,-3.0759,0.0,0.0,0.0,-3.3278,-3.3966,0.0,-3.4121,-3.3708,0.0,-3.3086,0.0,-3.3283,-3.3068,-3.3411,0.0,0.0,-3.4548,-3.4936,-3.4564,-3.4225,-3.3933,-3.3606,-3.3027,-3.2555,-3.2305,-3.2705,-3.274,-3.2429,-3.3104,-3.3286,-3.3062,-3.3595,-3.3777,-3.3699,-3.3182,-3.3018,-3.2996,-3.3104,-3.2865,-3.2533,-3.3319,-3.3269,-3.2745,-3.2521,-3.237,-3.2342,0.0,0.0,0.0,0.0,0.0,0.0,0.0,0.0,0.0,0.0,0.0,0.0,0.0,0.0,0.0,0.0,0.0,0.0,0.0,0.071,0.111,0.1361,0.1915,0.1925,0.1229,0.0973,0.0103,-0.1403,-0.1714,-0.1973,-0.2231,-0.2928,-0.3255,-0.3307,-0.479,-0.6039,-0.7029,-0.831,-0.9368,0.0,0.0,-1.2385,-1.3028,-1.5037,-1.6138,-1.673,-1.8,-1.9221,-2.0382,-2.1691,-2.2528,-2.3238,-2.4001,-2.4263,-2.4316,-2.4703,0.0,-2.545,-2.545,-2.5828,-2.6318,-2.6716,-2.6976,-2.716,-2.7604,-2.7763,-2.8018,-2.8794,-2.9075,0.0,-3.0084,0.0,0.0,0.0,0.0,0.0,-3.327,-3.2964,-3.2709,0.0,-3.268,0.0,-3.2982,-3.3154,-3.324,0.0,-3.3878,-3.4089,-3.3683,-3.3376,-3.3011,-3.2574,-3.2228,-3.201,-3.201,-3.1833,-3.1959,-3.2472,-3.2634,-3.271,-3.2783,-3.3019,-3.3053,-3.2972,0.0,-3.2364,-3.2394,-3.2508,-3.2345,-3.2193,-3.2799,-3.2745,-3.224,-3.1936,-3.1783,-3.1578,0.0,0.0,0.0,0.0,0.0,0.0,0.0,0.0,0.0,0.0,0.0,0.0,0.0,0.0,0.0,0.0,0.0,0.0,0.0,0.0,0.0703,0.1203,0.1457,0.1359,0.0804,0.0201,-0.0854,-0.2414,-0.3366,-0.4017,-0.4414,-0.5256,-0.5755,-0.596,-0.689,-0.7808,-0.8669,-0.945,-1.0147,-1.0789,-1.1469,-1.1949,-1.2432,0.0,-1.4834,-1.5294,-1.6813,-1.8077,-1.9223,-2.0373,-2.1322,-2.2226,-2.3145,-2.3469,-2.3578,-2.3972,-2.4374,-2.4667,-2.4723,-2.4855,-2.5128,-2.5604,-2.5617,-2.568,-2.6222,-2.6263,-2.6499,-2.7637,0.0,-2.7904,-2.8901,-3.0008,-3.0633,-3.0262,0.0,-3.2412,-3.1999,-3.1902,-3.1953,-3.2186,-3.2313,-3.2593,-3.3043,-3.3172,-3.3215,-3.3172,-3.3025,-3.2853,-3.2766,-3.2649,-3.229,-3.1618,-3.1762,-3.1871,-3.1945,-3.1179,-3.1527,-3.297,-3.2272,-3.2187,-3.2603,-3.2135,-3.2012,-3.2072,0.0,0.0,-3.1967,-3.2019,-3.2002,-3.1995,-3.2464,-3.2291,-3.1812,-3.1527,-3.1219,-3.0961,0.0,0.0,0.0,0.0,0.0,0.0,0.0,0.0,0.0,0.0,0.1964,0.1208,0.0,0.0,0.0,0.0,0.0,0.0,0.0,0.0,0.0,-0.0884,-0.0499,-0.0654,-0.1406,-0.2208,-0.3257,-0.466,-0.4852,-0.5404,-0.6305,-0.5822,-0.6082,-0.698,-0.7384,-0.8051,-0.8867,-0.9482,-1.0091,-1.0789,-1.188,-1.2421,-1.2679,-1.3897,0.0,0.0,-1.5858,-1.6989,-1.8009,-1.8686,-1.9759,-2.1006,-2.2029,-2.2506,-2.275,-2.3445,-2.3815,-2.4144,-2.4368,-2.4242,-2.4187,-2.4763,-2.4701,-2.4474,-2.4597,-2.4774,0.0,0.0,-2.5759,-2.6256,-2.7319,-2.857,-2.9632,-3.0206,-3.0834,0.0,0.0,0.0,-3.1368,0.0,0.0,0.0,0.0,0.0,0.0,0.0,0.0,-3.2288,-3.2982,-3.2429,-3.1821,-3.1439,-3.1455,-3.1721,-3.2131,-3.1997,-3.2003,-3.2179,-3.2521,-3.2143,-3.1151,-3.2206,-3.2266,-3.1555,0.0,0.0,-3.1737,-3.1743,-3.1488,-3.1124,-3.1636,-3.1476,-3.0931,-3.0464,-3.0256,-3.0089,0.0,0.0,0.0,0.0,0.0,0.0,0.0,0.2316,0.1971,0.2163,0.005,-0.1204,-0.0352,-0.1912,-0.3171,0.0,0.0,0.0,0.0,0.0,0.0,0.0,-0.2712,-0.3083,-0.4061,-0.5005,-0.6001,-0.7056,0.0,-0.8238,-0.8894,-0.864,-0.8788,-0.9288,-0.9689,-0.9987,-1.0271,-1.0889,-1.1248,-1.1468,-1.2225,-1.2437,-1.2424,0.0,0.0,0.0,0.0,-1.5793,-1.6505,-1.7313,-1.8118,-1.9085,-2.0667,-2.1328,-2.1683,-2.2354,-2.2879,-2.3255,-2.3579,-2.3492,-2.3419,-2.3668,-2.3642,-2.3506,-2.3506,0.0,0.0,0.0,-2.4627,-2.5014,-2.6458,-2.7357,0.0,-2.8812,-2.9528,0.0,0.0,0.0,0.0,0.0,0.0,0.0,0.0,0.0,0.0,0.0,0.0,0.0,-3.2463,-3.1816,-3.1357,-3.1297,-3.0942,-3.1041,-3.1667,-3.1521,-3.1606,-3.1962,-3.1838,-3.1632,-3.1291,-3.1868,-3.1879,-3.1455,-3.1732,0.0,-3.141,-3.1314,-3.1033,-3.0662,-3.0876,-3.0651,-3.013,-2.9869,-2.9516,-2.9082,0.0,0.0,0.0,0.0,0.0,0.0,0.0,0.1406,0.0779,0.0843,-0.2229,-0.391,-0.2627,-0.3636,-0.4658,0.0,0.0,0.0,0.0,0.0,0.0,0.0,0.0,0.0,0.0,0.0,0.0,-0.9493,-1.0337,0.0,0.0,0.0,0.0,0.0,-1.1726,-1.1773,-1.1639,-1.2129,-1.2188,0.0,0.0,-1.2173,0.0,0.0,0.0,0.0,0.0,-1.4477,-1.4965,-1.5849,-1.6402,-1.7006,-1.8722,-1.9808,-2.0548,-2.1229,-2.176,-2.2233,-2.256,-2.2525,-2.2467,-2.2659,-2.2544,-2.2372,-2.2478,-2.2369,0.0,-2.3513,-2.3509,-2.3827,-2.5576,-2.6231,-2.6696,0.0,-2.8222,-2.8899,0.0,0.0,0.0,0.0,0.0,0.0,0.0,0.0,0.0,0.0,0.0,0.0,-3.1893,-3.1506,-3.1264,-3.1461,-3.0852,-3.0785,-3.135,-3.1065,-3.1153,-3.162,-3.1079,-3.0989,-3.1398,-3.1279,-3.1289,-3.1331,-3.1522,0.0,0.0,-3.0915,-3.0589,-3.0287,-3.0235,-2.9869,-2.9396,-2.9343,-2.885,-2.8157,0.0,0.0,0.0,0.0,0.0,0.0,0.0,0.0282,-0.0794,-0.1569,-0.3996,-0.5942,-0.6638,-0.6858,-0.7081,0.0,0.0,0.0,0.0,0.0,0.0,0.0,0.0,0.0,0.0,0.0,0.0,-1.1707,0.0,0.0,0.0,0.0,0.0,0.0,0.0,-1.1934,-1.1872,-1.1911,0.0,0.0,0.0,0.0,0.0,0.0,0.0,0.0,0.0,-1.2956,-1.3625,-1.3976,0.0,-1.5252,-1.5724,-1.7398,-1.9333,-2.0172,0.0,0.0,-2.1588,-2.1301,-2.0984,-2.1796,-2.1346,-2.0762,-2.102,0.0,-2.0782,-2.1158,-2.1571,-2.2384,-2.4022,-2.4941,-2.5829,-2.7098,-2.7589,-2.792,0.0,0.0,0.0,0.0,0.0,0.0,0.0,0.0,0.0,0.0,0.0,0.0,0.0,-3.2064,-3.2283,-3.2283,-3.1967,-3.1879,-3.1928,-3.1704,-3.135,-3.0827,-3.0745,-3.0474,-3.0096,-3.0573,-3.0785,-3.089,0.0,0.0,0.0,-3.0653,-3.0266,-2.9994,-2.9764,-2.9343,-2.8741,-2.8495,-2.7974,-2.7284,0.0,0.0,0.0,0.0,0.0,0.0,-0.1814,-0.2728,-0.3608,-0.4145,-0.6508,-0.839,-0.9034,-0.994,-1.0113,-0.9212,0.0,0.0,0.0,0.0,0.0,0.0,0.0,0.0,0.0,0.0,-1.2574,-1.2883,-1.2446,0.0,0.0,0.0,0.0,0.0,0.0,0.0,-1.0735,-1.0892,0.0,0.0,0.0,0.0,0.0,0.0,0.0,0.0,0.0,0.0,-1.2966,-1.3244,0.0,0.0,-1.4775,-1.5845,0.0,0.0,-1.9588,-2.0233,-2.0473,-2.043,-2.0385,-2.0539,-2.04,-2.0359,-2.0617,0.0,-2.0152,-2.0944,-2.1245,-2.1795,-2.3082,-2.4147,-2.5118,-2.5974,-2.6572,0.0,-2.7641,0.0,0.0,0.0,0.0,0.0,0.0,0.0,0.0,0.0,0.0,0.0,0.0,-3.1362,-3.1496,-3.1294,-3.1362,-3.1294,-3.1137,-3.1071,-3.0727,-3.0086,-3.0076,-3.0085,-3.0046,-3.0066,-3.044,-3.1042,0.0,0.0,0.0,-3.0254,-2.9679,-2.8993,-2.8867,-2.8441,-2.7906,-2.7799,-2.7165,-2.6295,0.0,0.0,0.0,0.0,0.0,-0.3266,-0.3789,-0.4741,-0.5631,-0.6334,-0.8473,-1.0314,-1.1193,-1.2368,-1.2769,-1.2034,-1.1838,0.0,0.0,0.0,0.0,0.0,0.0,0.0,0.0,0.0,-1.4284,-1.4184,-1.3366,-1.2543,0.0,0.0,0.0,0.0,0.0,0.0,0.0,0.0,0.0,0.0,0.0,0.0,0.0,0.0,0.0,0.0,0.0,0.0,0.0,0.0,0.0,-1.3551,-1.4051,-1.4756,-1.564,-1.7235,-1.8414,-1.924,-1.928,-1.9435,-1.9626,-1.9457,-1.9538,-1.9662,0.0,0.0,-1.9445,-2.0275,-2.0572,-2.1048,-2.2132,-2.3219,-2.4182,-2.5061,-2.575,-2.6451,-2.7194,0.0,0.0,0.0,0.0,0.0,0.0,0.0,0.0,0.0,0.0,0.0,0.0,-3.0441,-3.0646,-3.0623,-3.0691,-3.0646,-3.042,-3.0258,-2.9952,-2.9515,-2.9398,-2.9462,-2.9687,-2.9612,-2.9988,-3.0638,0.0,0.0,0.0,-2.9588,-2.9026,-2.8301,-2.8067,-2.7691,-2.7152,-2.7152,-2.6414,-2.5396,0.0,0.0,0.0,0.0,0.0,0.0,-0.3718,-0.4932,-0.635,-0.7971,-0.953,-1.131,-1.3442,-1.3994,-1.4772,-1.6206,-1.4866,0.0,0.0,0.0,0.0,0.0,0.0,0.0,0.0,0.0,-1.579,-1.5784,-1.4771,-1.321,-1.12,-1.1209,-0.9895,-0.7627,0.0,0.0,0.0,0.0,0.0,0.0,0.0,0.0,0.0,0.0,0.0,0.0,0.0,0.0,0.0,0.0,0.0,0.0,0.0,-1.4072,-1.5244,-1.6365,-1.716,-1.7701,-1.7964,-1.8227,-1.8457,-1.8724,-1.86,-1.8463,0.0,-1.8503,-1.8405,-1.8686,-1.9143,-1.9889,-2.1016,-2.2,-2.3103,-2.4673,-2.5256,-2.5946,-2.7152,0.0,0.0,0.0,0.0,0.0,0.0,0.0,0.0,0.0,0.0,0.0,0.0,-2.9534,-3.0102,-3.0578,-3.0352,-3.0102,-2.9897,-2.9443,-2.9193,-2.9081,-2.8649,-2.8518,-2.8724,-2.917,-2.9412,0.0,0.0,0.0,0.0,-2.8654,-2.8281,-2.8228,-2.7638,-2.7098,-2.6609,-2.6609,-2.572,-2.4456,0.0,0.0,0.0,0.0,0.0,0.0,0.0,-0.6759,-0.7901,-0.9484,-1.0762,-1.2251,-1.4154,-1.5058,-1.5924,-1.7017,-1.6329,0.0,0.0,0.0,0.0,0.0,0.0,0.0,0.0,0.0,-1.7445,-1.7296,-1.5623,-1.3897,-1.2173,-1.0213,-0.8704,-0.7534,-0.6431,0.0,0.0,0.0,0.0,0.0,0.0,0.0,0.0,0.0,0.0,0.0,0.0,0.0,0.0,0.0,0.0,0.0,0.0,0.0,0.0,-1.5345,-1.6287,-1.6949,-1.6873,-1.7171,-1.7517,-1.7434,-1.7767,-1.8139,-1.837,-1.8179,-1.8066,-1.855,-1.8887,-1.9351,-2.0102,-2.1224,-2.247,-2.3814,-2.4517,-2.531,0.0,0.0,0.0,0.0,0.0,0.0,0.0,0.0,0.0,0.0,0.0,0.0,0.0,-2.8877,-2.9104,-2.9577,-2.9485,-2.9237,-2.8857,-2.8385,-2.8077,-2.7869,-2.759,-2.7613,-2.8011,-2.8183,0.0,0.0,0.0,0.0,0.0,-2.8388,-2.796,-2.7368,-2.6989,-2.6609,-2.6191,-2.5757,-2.5005,-2.4158,0.0,0.0,0.0,0.0,0.0,0.0,0.0,-0.6764,-0.778,-0.9433,-1.0721,-1.2248,-1.4225,-1.5333,-1.6318,-1.7302,-1.7326,0.0,0.0,0.0,0.0,0.0,0.0,0.0,-2.049,-1.9896,-1.9345,-1.881,-1.7113,-1.5158,-1.2925,-1.0668,-0.8805,-0.7235,-0.5831,-0.5675,0.0,0.0,0.0,0.0,0.0,0.0,-1.0969,0.0,0.0,0.0,0.0,0.0,0.0,0.0,0.0,0.0,0.0,0.0,0.0,0.0,-1.588,-1.638,-1.6317,-1.6675,-1.7066,-1.6919,-1.7295,-1.7758,-1.7872,-1.7827,-1.7871,-1.817,-1.8596,-1.9052,-1.9525,-2.0644,-2.1855,-2.2931,-2.3683,-2.4598,0.0,0.0,0.0,0.0,0.0,0.0,0.0,0.0,0.0,0.0,0.0,0.0,0.0,0.0,-2.8363,-2.8291,-2.8495,-2.8386,-2.7987,-2.7544,-2.7238,-2.7193,-2.678,-2.6841,-2.7318,-2.7622,0.0,0.0,0.0,0.0,0.0,-2.7745,-2.7368,-2.6826,-2.6391,-2.6008,-2.5516,-2.4982,-2.4205,-2.3385,0.0,0.0,0.0,0.0,0.0,0.0,0.0,-0.5331,-0.6478,-0.8127,-0.9637,-1.1432,-1.3697,-1.4912,-1.6019,-1.7245,0.0,0.0,0.0,0.0,0.0,0.0,0.0,0.0,-2.1332,-2.1665,-2.1391,-2.0404,-1.9222,-1.6944,-1.3659,-1.2446,-1.0129,-0.6992,-0.6302,-0.5676,0.0,0.0,0.0,0.0,-0.844,-0.9554,0.0,0.0,0.0,0.0,0.0,0.0,0.0,0.0,0.0,0.0,0.0,0.0,0.0,0.0,0.0,0.0,0.0,-1.675,-1.7067,-1.6995,-1.7202,-1.7419,-1.7352,-1.7527,0.0,-1.7761,-1.8319,-1.8923,-1.9256,-2.0239,-2.1245,-2.2055,-2.2898,0.0,0.0,0.0,0.0,0.0,0.0,0.0,0.0,0.0,0.0,0.0,0.0,0.0,0.0,0.0,-2.7853,-2.6973,-2.7283,-2.7415,-2.7216,-2.6715,-2.6628,-2.6842,-2.6149,-2.6049,-2.6558,-2.7338,0.0,0.0,0.0,0.0,0.0,-2.6772,-2.6554,-2.6482,-2.5863,-2.5258,-2.4693,-2.4261,-2.3402,-2.2236,0.0,0.0,0.0,0.0,0.0,0.0,0.0,0.0,0.0,0.0,-0.9262,-1.1013,-1.3007,-1.4226,-1.543,0.0,0.0,0.0,0.0,0.0,0.0,0.0,0.0,0.0,-2.3689,-2.3505,-2.3074,-2.2429,-2.1373,-1.9369,-1.6575,-1.4566,-1.192,-0.8894,-0.749,-0.625,0.0,0.0,0.0,0.0,-0.8535,-0.9795,0.0,0.0,0.0,0.0,-1.3358,-1.3891,0.0,0.0,0.0,0.0,0.0,0.0,0.0,0.0,-1.7205,-1.7548,-1.7846,0.0,-1.6703,-1.6675,-1.7174,-1.7631,0.0,-1.7807,-1.804,-1.8272,-1.8596,-1.8998,-1.9632,-2.0298,-2.1129,-2.2162,-2.2804,-2.3374,0.0,0.0,0.0,0.0,0.0,0.0,0.0,0.0,0.0,0.0,0.0,0.0,0.0,0.0,-2.6729,-2.6171,-2.5937,-2.5916,-2.6237,-2.5758,-2.5481,-2.5401,-2.4995,-2.5171,-2.5742,-2.5762,0.0,0.0,0.0,0.0,-2.6391,-2.6282,-2.6118,-2.5808,-2.4979,-2.4422,-2.3993,-2.2872,-2.2152,-2.1602,0.0,0.0,0.0,0.0,0.0,0.0,0.0,0.0,0.0,0.0,0.0,0.0,0.0,0.0,0.0,0.0,0.0,0.0,0.0,0.0,0.0,0.0,0.0,-2.443,-2.4514,-2.4598,-2.4387,-2.3887,-2.2892,-2.1007,-1.8195,-1.651,-1.3975,-1.0731,-0.8379,-0.641,0.0,0.0,0.0,0.0,-0.8002,0.0,0.0,0.0,0.0,0.0,-1.4802,-1.5294,0.0,-1.6371,-1.6523,-1.6677,0.0,0.0,0.0,0.0,-1.8209,-1.8617,-1.9014,-1.8375,-1.7629,-1.768,-1.7985,-1.8285,-1.8117,-1.8272,-1.8458,-1.8596,-1.9012,-1.9471,-1.9973,-2.0609,-2.1221,-2.1862,-2.2333,0.0,0.0,0.0,0.0,0.0,0.0,0.0,0.0,0.0,0.0,0.0,0.0,0.0,0.0,0.0,-2.5941,-2.514,-2.4868,-2.4997,-2.5443,-2.5076,-2.4778,-2.4572,-2.439,-2.4549,-2.4985,-2.5125,0.0,0.0,0.0,0.0,-2.5467,-2.5304,-2.4981,-2.4535,-2.3897,-2.3382,-2.2922,-2.2047,-2.1381,-2.0808,0.0,0.0,0.0,0.0,0.0,0.0,0.0,0.0,0.0,0.0,0.0,0.0,0.0,0.0,0.0,0.0,0.0,0.0,0.0,0.0,0.0,0.0,-2.343,-2.4682,-2.4574,-2.5208,-2.5359,-2.4935,-2.4039,-2.2215,-1.948,-1.8321,-1.5714,-1.1884,-0.8642,-0.6322,0.0,0.0,0.0,0.0,-0.7262,0.0,0.0,0.0,0.0,0.0,0.0,0.0,0.0,-1.784,-1.7871,-1.7731,-1.8673,0.0,0.0,0.0,0.0,0.0,-2.0019,-1.9744,-1.9287,-1.9224,-1.9241,-1.9162,-1.8862,-1.8953,-1.9046,-1.9046,0.0,0.0,0.0,-2.0887,0.0,0.0,0.0,0.0,0.0,0.0,0.0,0.0,0.0,0.0,0.0,0.0,0.0,0.0,0.0,0.0,0.0,0.0,0.0,-2.4054,-2.4034,-2.4186,-2.4551,-2.4444,-2.4249,-2.3991,-2.3974,-2.4094,-2.4295,-2.4823,-2.5052,0.0,0.0,0.0,-2.4343,-2.4108,-2.3651,-2.3081,-2.2749,-2.2253,-2.167,-2.1323,-2.0619,-1.9849,0.0,0.0,0.0,0.0,0.0,0.0,0.0,0.0,0.0,0.0,0.0,0.0,0.0,0.0,0.0,0.0,0.0,0.0,0.0,0.0,0.0,-2.0874,-2.2893,-2.4231,-2.483,-2.5505,-2.5738,-2.5464,-2.4893,-2.3593,-2.1679,-1.9961,-1.6139,-1.0582,-0.7737,-0.5852,-0.4875,0.0,0.0,-0.6127,-0.6976,0.0,0.0,0.0,0.0,0.0,0.0,0.0,0.0,-1.8215,-1.8782,-1.9332,-1.9531,0.0,0.0,0.0,0.0,0.0,-2.0864,-2.1188,-2.1362,-2.0481,-2.0279,-2.0262,-2.0212,-2.0195,-2.0242,0.0,0.0,0.0,0.0,-2.0979,-2.1327,0.0,0.0,0.0,0.0,0.0,0.0,0.0,0.0,0.0,0.0,0.0,0.0,0.0,0.0,0.0,0.0,0.0,0.0,-2.3295,-2.3276,-2.3232,-2.3101,-2.3493,-2.345,-2.3033,-2.3351,-2.3595,-2.3784,-2.3802,-2.3881,0.0,0.0,-2.325,-2.2844,-2.2807,-2.2559,-2.214,-2.1587,-2.1,-2.0423,-1.9829,-1.924,-1.8597,0.0,0.0,0.0,0.0,0.0,0.0,0.0,0.0,0.0,0.0,0.0,0.0,0.0,0.0,0.0,0.0,0.0,0.0,0.0,0.0,-1.8657,-2.0508,-2.2337,-2.3921,-2.5189,-2.5549,-2.5843,-2.6135,-2.5401,-2.414,-2.2382,-1.9349,-1.5745,-1.1798,-0.9585,-0.7612,-0.5883,-0.6021,-0.5952,-0.5857,0.0,0.0,0.0,0.0,0.0,0.0,0.0,0.0,0.0,0.0,-1.9347,-1.9724,-1.9879,0.0,0.0,0.0,0.0,0.0,-2.1165,-2.1623,-2.1963,-2.1402,-2.1168,-2.1038,-2.0693,-2.0595,-2.0548,0.0,0.0,0.0,0.0,0.0,0.0,0.0,0.0,0.0,0.0,0.0,0.0,0.0,0.0,0.0,0.0,0.0,0.0,0.0,0.0,0.0,0.0,0.0,0.0,0.0,-2.2466,-2.2176,-2.1847,-2.2024,-2.2246,-2.2416,-2.2922,-2.3131,-2.3083,-2.3341,-2.3441,-2.3478,0.0,-2.2682,-2.1937,-2.1937,-2.1454,-2.0755,-2.0428,-1.9897,-1.9146,-1.8583,-1.8003,-1.7477,0.0,0.0,0.0,0.0,0.0,0.0,0.0,0.0,0.0,0.0,0.0,0.0,0.0,0.0,0.0,0.0,0.0,0.0,0.0,-1.572,-1.7249,-1.9379,-2.1179,-2.3178,-2.5379,-2.5549,-2.5884,-2.6531,-2.5633,-2.4186,-2.2162,-1.8358,-1.5406,-1.3105,-1.1428,-0.9388,-0.716,-0.7091,-0.6709,-0.6258,0.0,0.0,0.0,0.0,0.0,0.0,0.0,0.0,0.0,0.0,0.0,0.0,0.0,0.0,0.0,-1.9983,-2.0498,-2.1011,-2.1011,-2.142,-2.1794,-2.1628,-2.161,-2.1526,-2.0948,-2.0833,-2.0736,0.0,0.0,0.0,0.0,0.0,0.0,0.0,0.0,0.0,0.0,0.0,0.0,0.0,0.0,0.0,0.0,0.0,0.0,0.0,0.0,0.0,0.0,0.0,0.0,0.0,-2.1491,-2.1195,-2.0817,-2.0817,-2.1185,-2.1878,-2.2333,-2.2506,-2.247,-2.2871,-2.296,-2.2671,-2.262,-2.1999,-2.0992,-2.0992,-2.0315,-1.9309,-1.9309,-1.8788,-1.795,-1.7424,-1.6895,-1.6524,0.0,0.0,0.0,0.0,0.0,0.0,0.0,0.0,0.0,0.0,0.0,0.0,0.0,0.0,0.0,0.0,0.0,0.0,0.0,-1.3775,-1.5274,-1.6911,-1.8828,-2.1549,-2.5126,-2.5633,-2.599,-2.624,-2.5549,-2.372,-2.0818,-1.8174,-1.5569,-1.3071,-1.1694,-1.0126,-0.8523,-0.7825,-0.7609,-0.7684,-0.7172,0.0,0.0,0.0,0.0,0.0,0.0,0.0,0.0,0.0,0.0,0.0,0.0,0.0,-1.9428,-1.9687,-1.9931,-2.0189,-2.0189,-2.0585,-2.0928,-2.0688,-2.1244,-2.1724,-2.1213,-2.1263,-2.1197,-2.0436,0.0,0.0,0.0,0.0,0.0,0.0,0.0,0.0,0.0,0.0,0.0,0.0,0.0,0.0,0.0,0.0,0.0,0.0,0.0,0.0,0.0,0.0,0.0,0.0,0.0,-2.0382,-2.0337,-2.0337,-2.0646,-2.1287,-2.1406,-2.1786,-2.2296,-2.2247,-2.1894,-2.1418,-2.1162,-2.0442,-1.9472,-1.9472,-1.8936,-1.8122,-1.8122,-1.7582,-1.6789,-1.6205,-1.5992,-1.5939,0.0,0.0,0.0,0.0,0.0,0.0,0.0,0.0,0.0,0.0,0.0,0.0,0.0,0.0,0.0,0.0,0.0,0.0,0.0,-1.3238,-1.4378,-1.6303,-1.7921,-2.0067,-2.2859,-2.4178,-2.5268,-2.6199,-2.4514,-2.2678,-2.0649,-1.8021,-1.6013,-1.4518,-1.3215,-1.1894,-1.0735,-1.0239,-0.9772,-0.9314,-0.837,-0.8564,0.0,0.0,0.0,0.0,0.0,0.0,0.0,0.0,-1.8204,-1.8293,-1.8245,-1.8468,-1.8736,-1.8646,-1.8945,-1.9294,-1.9294,-1.9702,-2.0084,-1.9836,-2.0251,-2.0762,-2.0726,-2.0554,-2.0307,-2.0007,-1.9886,0.0,0.0,0.0,0.0,0.0,0.0,0.0,0.0,0.0,0.0,0.0,0.0,0.0,0.0,0.0,0.0,0.0,0.0,0.0,0.0,0.0,0.0,0.0,0.0,-1.9333,-1.918,-1.9012,-1.9235,-1.9825,-2.0566,-2.0863,-2.0818,-2.0992,-2.079,-2.0292,-2.0189,-1.945,-1.8259,-1.8613,-1.805,-1.6912,-1.6567,-1.6258,-1.5885,-1.5512,-1.5137,-1.4815,0.0,0.0,0.0,0.0,0.0,0.0,0.0,0.0,0.0,0.0,0.0,0.0,0.0,0.0,0.0,0.0,0.0,0.0,-1.2417,-1.2525,-1.3328,-1.5004,-1.6474,-1.8104,-2.0024,-2.1686,-2.3515,-2.5571,-2.3494,-2.1782,-2.0446,-1.8163,-1.6645,-1.582,-1.4777,-1.3793,-1.2978,-1.2501,-1.1812,-1.094,-0.9741,-0.9189,0.0,0.0,0.0,0.0,0.0,0.0,0.0,0.0,-1.7132,-1.745,-1.7477,-1.7649,-1.7845,-1.7753,-1.795,-1.8213,-1.8468,-1.8752,-1.8929,-1.8868,-1.9031,-1.9237,-1.9536,-1.9596,-1.9487,-1.9233,-1.8945,0.0,0.0,0.0,0.0,0.0,0.0,0.0,0.0,0.0,0.0,0.0,0.0,0.0,0.0,0.0,0.0,0.0,0.0,0.0,0.0,0.0,0.0,0.0,0.0,-1.8257,-1.8118,-1.7885,-1.7912,-1.8233,-1.8999,-1.9458,-1.9681,-1.981,-1.955,-1.9016,-1.9067,-1.8306,-1.7123,-1.7574,-1.7016,-1.5842,-1.5175,-1.4922,-1.4869,-1.4611,-1.4234,-1.39,0.0,0.0,0.0,0.0,0.0,0.0,0.0,0.0,0.0,0.0,0.0,0.0,0.0,0.0,0.0,0.0,0.0,0.0,-1.1413,-1.1598,-1.2015,-1.2656,-1.4104,-1.5499,-1.6854,-1.8209,-2.0602,-2.4165,-2.2595,-2.1175,-1.9956,-1.8575,-1.7439,-1.66,-1.6182,-1.5708,-1.5139,-1.4343,-1.3518,-1.2607,-1.1268,-1.0032,-0.901,0.0,0.0,0.0,0.0,0.0,0.0,0.0,-1.5766,-1.6373,-1.7013,-1.6952,-1.6736,-1.7067,-1.6961,-1.6893,-1.7768,-1.7595,-1.7291,-1.7835,-1.7595,0.0,-1.7525,-1.8434,-1.9011,-1.8174,-1.7753,-1.7845,-1.8617,0.0,0.0,0.0,0.0,0.0,0.0,0.0,0.0,0.0,0.0,0.0,0.0,0.0,0.0,0.0,0.0,0.0,0.0,0.0,0.0,0.0,0.0,0.0,-1.7279,-1.7091,-1.6857,-1.6588,-1.6642,-1.7532,-1.9143,-1.8613,-1.8095,-1.759,-1.7567,-1.6967,-1.601,-1.6202,-1.5749,-1.488,-1.4018,-1.3694,-1.364,-1.3423,-1.3315,-1.3315,0.0,0.0,0.0,0.0,0.0,0.0,0.0,0.0,0.0,0.0,0.0,0.0,0.0,0.0,0.0,0.0,0.0,0.0,-1.2088,-1.1685,-1.1722,-1.2391,-1.3134,-1.4252,-1.5669,-1.7316,-1.9427,-2.2145,-2.1767,-2.1119,-2.0193,-1.9031,-1.7989,-1.7133,-1.6729,-1.6315,-1.5933,-1.5715,-1.5359,-1.479,-1.3189,-1.1665,-1.0216,0.0,0.0,0.0,0.0,0.0,0.0,0.0,0.0,0.0,-1.5767,-1.6132,-1.6397,-1.6533,-1.6448,-1.641,-1.6741,-1.6684,-1.6572,-1.6514,0.0,0.0,0.0,-1.6959,0.0,0.0,-1.6749,-1.6749,0.0,0.0,0.0,0.0,0.0,0.0,0.0,0.0,0.0,0.0,0.0,0.0,0.0,0.0,0.0,0.0,0.0,0.0,0.0,0.0,0.0,0.0,0.0,0.0,-1.5961,-1.5758,-1.5615,-1.5534,-1.5194,-1.5768,-1.7136,-1.6831,-1.6482,-1.6125,-1.5757,-1.52,-1.4491,-1.4071,-1.3848,-1.3748,-1.3315,-1.3261,-1.3369,-1.3098,-1.2881,-1.2663,0.0,0.0,0.0,0.0,0.0,0.0,0.0,0.0,0.0,0.0,-1.2688,0.0,0.0,0.0,0.0,0.0,0.0,0.0,0.0,-1.1816,-1.1802,-1.2314,-1.258,-1.3287,-1.456,-1.6351,-1.8175,-1.9978,-2.037,-2.0391,-2.0069,-1.934,-1.8612,-1.7882,-1.7465,-1.7237,-1.7187,-1.704,-1.669,-1.6162,-1.4842,-1.3275,-1.1585,0.0,0.0,0.0,0.0,0.0,0.0,0.0,0.0,0.0,-1.4385,-1.5078,-1.5549,-1.5612,-1.5618,-1.5615,-1.5851,-1.5783,-1.5615,-1.583,-1.5771,-1.5652,-1.5398,0.0,0.0,0.0,0.0,0.0,0.0,0.0,0.0,0.0,0.0,0.0,0.0,0.0,0.0,0.0,0.0,0.0,0.0,0.0,0.0,0.0,0.0,0.0,0.0,0.0,0.0,0.0,0.0,0.0,-1.4819,-1.4472,-1.4232,-1.4136,-1.3763,-1.3875,-1.4557,-1.487,-1.4793,-1.4375,-1.3785,-1.3427,-1.3162,-1.2415,-1.2385,-1.2718,-1.2327,-1.2391,-1.2609,-1.2273,-1.2055,-1.1837,0.0,0.0,0.0,0.0,0.0,0.0,0.0,0.0,0.0,0.0,-1.3178,0.0,0.0,0.0,0.0,0.0,0.0,0.0,0.0,-1.2047,-1.2113,-1.2423,-1.2398,-1.2737,-1.3478,-1.5373,-1.6828,-1.7904,-1.8793,-1.9444,-1.983,-1.9704,-1.9303,-1.8696,-1.8307,-1.8225,-1.84,-1.8084,-1.7495,-1.6708,-1.6186,-1.4713,-1.2861,-1.2019,0.0,0.0,0.0,0.0,0.0,0.0,0.0,0.0,-1.2906,-1.3684,-1.4364,-1.445,-1.4461,-1.457,-1.5042,-1.479,-1.4579,-1.5356,-1.5084,0.0,-1.4388,-1.4822,-1.529,0.0,0.0,0.0,0.0,0.0,0.0,0.0,0.0,0.0,0.0,0.0,0.0,0.0,0.0,0.0,0.0,0.0,0.0,0.0,0.0,0.0,0.0,0.0,0.0,0.0,0.0,0.0,-1.3763,-1.327,-1.2883,0.0,-1.236,-1.2082,-1.1814,-1.2822,-1.3002,-1.2436,-1.1746,-1.1644,-1.1916,-1.1105,-1.1177,-1.1782,-1.1181,-1.1181,-1.1455,-1.1072,-1.0962,-1.0907,0.0,0.0,0.0,0.0,0.0,0.0,0.0,0.0,0.0,0.0,0.0,0.0,0.0,0.0,0.0,0.0,0.0,0.0,0.0,-1.2193,-1.2025,-1.2625,-1.2947,-1.3057,-1.2827,-1.4243,-1.5697,-1.7123,-1.9374,-2.054,-2.0818,-2.0893,-2.0392,-1.9437,-1.9155,-1.8587,-1.7755,-1.7469,-1.6942,-1.6394,-1.6275,-1.4988,-1.3142,-1.2487,-1.1126,0.0,0.0,0.0,0.0,0.0,0.0,0.0,-1.1093,-1.1973,-1.2635,-1.3345,-1.3535,-1.3537,-1.3689,-1.3562,0.0,-1.3633,-1.3559,-1.3393,-1.3344,-1.3409,-1.3618,0.0,0.0,0.0,0.0,0.0,0.0,0.0,0.0,0.0,0.0,0.0,0.0,0.0,0.0,0.0,0.0,0.0,0.0,0.0,0.0,0.0,0.0,0.0,0.0,0.0,0.0,-1.3098,-1.271,-1.2613,-1.2214,0.0,-1.1296,-1.1119,-1.1058,-1.1501,-1.1285,-1.056,-1.0562,-1.0459,-1.022,-0.9989,-1.017,-1.0641,-1.0021,-1.0249,-1.0798,-1.0021,-0.9746,-0.9691,0.0,0.0,0.0,0.0,0.0,0.0,0.0,0.0,0.0,0.0,0.0,0.0,0.0,0.0,0.0,0.0,0.0,0.0,0.0,0.0,-1.1971,-1.2221,-1.2745,-1.2924,-1.2643,-1.4077,-1.5353,-1.6487,-1.9082,-2.0495,-2.0765,-2.1197,-2.0799,-1.9686,-1.9336,-1.8801,-1.8135,-1.7526,-1.6971,-1.6505,-1.6192,-1.5143,-1.365,-1.3041,-1.1713,-1.0123,-0.9189,0.0,0.0,0.0,0.0,0.0,0.0,0.0,-1.1576,-1.1964,-1.2119,-1.2293,-1.2574,-1.2552,0.0,-1.2618,0.0,-1.275,-1.2302,-1.2458,0.0,0.0,0.0,0.0,0.0,0.0,0.0,0.0,0.0,0.0,0.0,0.0,0.0,0.0,0.0,0.0,0.0,0.0,0.0,0.0,0.0,0.0,0.0,0.0,0.0,0.0,-1.2467,-1.2224,-1.1834,-1.159,-1.11,-1.0413,-1.0167,-0.9821,-0.9468,-1.001,-1.001,-0.964,-0.9559,-0.9528,-0.9496,-0.9396,-0.9559,-0.9824,-0.9231,-0.9265,-0.9541,-0.8834,-0.8592,-0.8478,0.0,0.0,0.0,0.0,0.0,0.0,0.0,0.0,0.0,0.0,0.0,0.0,0.0,0.0,0.0,0.0,0.0,0.0,0.0,0.0,0.0,-1.1695,-1.2302,-1.2598,-1.2583,-1.4026,-1.5148,-1.589,-1.8311,-1.9742,-2.0189,-2.1203,-2.1026,-1.9935,-1.9447,-1.9036,-1.866,-1.7636,-1.7019,-1.6675,-1.5888,-1.5065,-1.4191,-1.3603,-1.233,-1.0836,-1.0343,-0.9306,-0.8097,-0.8152,0.0,0.0,0.0,0.0,-1.046,-1.0343,-1.0515,-1.0852,-1.14,-1.1509,-1.1537,-1.1869,-1.2157,0.0,-1.1454,-1.1718,0.0,0.0,0.0,0.0,0.0,0.0,0.0,0.0,0.0,0.0,0.0,0.0,0.0,0.0,0.0,0.0,0.0,0.0,0.0,0.0,0.0,0.0,0.0,0.0,-1.1523,-1.1845,-1.1658,-1.1345,-1.1002,-1.056,-1.0019,-0.9377,-0.908,-0.8485,-0.7739,-0.8507,-0.887,-0.8885,-0.8621,-0.8726,-0.912,-0.8923,-0.9015,-0.9168,-0.862,-0.8308,-0.822,-0.7601,-0.7292,-0.7204,0.0,0.0,0.0,0.0,0.0,0.0,0.0,0.0,0.0,0.0,0.0,0.0,0.0,0.0,0.0,0.0,0.0,0.0,-1.3064,0.0,0.0,-1.1705,-1.2136,-1.2271,-1.2112,-1.3262,-1.4429,-1.5576,-1.7066,-1.8355,-1.9404,-2.131,-2.1721,-2.0903,-2.0311,-1.9401,-1.8174,-1.6746,-1.6189,-1.63,-1.5256,-1.4721,-1.4526,-1.4109,-1.3057,-1.1673,-1.0562,-0.9416,-0.8263,-0.726,-0.6982,0.0,0.0,0.0,-0.8146,-0.8644,-0.8975,-0.9251,-0.9636,-1.0104,-1.052,0.0,-1.0928,-1.1027,0.0,0.0,0.0,0.0,0.0,0.0,0.0,0.0,0.0,0.0,0.0,0.0,0.0,0.0,0.0,0.0,0.0,0.0,0.0,0.0,0.0,0.0,0.0,0.0,0.0,-1.1159,-1.1066,-1.123,-1.1243,-1.0904,-1.0167,-1.0068,-0.9575,-0.8528,-0.8031,-0.7385,-0.6642,-0.7098,-0.7412,-0.7623,-0.759,-0.7903,-0.842,-0.8104,-0.8247,-0.854,-0.7727,-0.7393,-0.7265,-0.6391,-0.5884,-0.5648,0.0,0.0,0.0,0.0,0.0,0.0,0.0,0.0,0.0,0.0,0.0,0.0,0.0,0.0,0.0,-1.5105,-1.4448,-1.3718,-1.2991,-1.2494,-1.2053,-1.1716,-1.1985,-1.2035,-1.1781,-1.254,-1.3302,-1.4091,-1.584,-1.7101,-1.7897,-1.9679,-2.0543,-2.0623,-2.0222,-1.9652,-1.8933,-1.7804,-1.6905,-1.6151,-1.5182,-1.4548,-1.4104,-1.342,-1.274,-1.211,-1.1063,-0.9974,-0.8878,-0.798,-0.7487,-0.716,-0.6821,0.0,0.0,0.0,-0.7709,-0.8054,-0.8631,-0.9087,-0.9479,0.0,-0.9944,-0.9894,-0.9923,0.0,0.0,0.0,0.0,0.0,0.0,0.0,0.0,0.0,0.0,0.0,0.0,0.0,0.0,0.0,0.0,0.0,0.0,0.0,0.0,0.0,0.0,0.0,-1.0757,-1.0316,-1.0331,-1.0863,-1.0667,-1.0167,-0.932,-0.9023,-0.8322,-0.7285,-0.6886,-0.6537,-0.6192,-0.6256,-0.6616,-0.7186,-0.7549,-0.7896,-0.8291,-0.8198,-0.8103,-0.7887,-0.7062,-0.6429,-0.5833,-0.5146,-0.4665,-0.4375,0.0,0.0,0.0,0.0,0.0,0.0,0.0,0.0,0.0,0.0,0.0,0.0,0.0,0.0,0.0,0.0,-1.5153,-1.422,-1.2892,-1.2358,-1.1921,-1.1497,-1.1569,-1.1455,-1.1221,-1.1733,-1.2262,-1.2768,-1.4544,-1.5746,-1.638,-1.7719,-1.8874,-1.9724,-1.9799,-1.9734,-1.9525,-1.8843,-1.8052,-1.7059,-1.5945,-1.503,-1.4334,-1.3396,-1.2708,-1.211,-1.1345,-1.0304,0.0,0.0,0.0,0.0,0.0,-0.6523,0.0,0.0,0.0,-0.6892,-0.7595,0.0,-0.8292,-0.8955,-0.9065,-0.8976,0.0,0.0,0.0,0.0,0.0,0.0,0.0,0.0,0.0,0.0,0.0,0.0,0.0,0.0,0.0,0.0,0.0,0.0,0.0,0.0,0.0,0.0,0.0,0.0,-1.0007,-0.9503,-0.9473,-1.0256,-0.9821,-0.927,-0.8577,-0.7875,-0.703,-0.6087,-0.5837,-0.5706,-0.5735,-0.584,-0.6162,-0.6714,-0.738,-0.7883,-0.8291,-0.8387,-0.8041,-0.7326,-0.6616,-0.5621,-0.4609,-0.4107,-0.3676,-0.326,0.0,0.0,0.0,0.0,0.0,0.0,0.0,0.0,0.0,0.0,0.0,0.0,-1.7735,-1.7582,-1.7326,-1.6588,-1.5629,-1.4424,-1.2894,-1.1814,-1.1191,-1.0934,-1.0639,0.0,-1.0158,-1.0914,-1.1532,-1.2042,-1.3134,-1.4155,-1.5114,-1.5934,-1.6999,-1.8243,-1.9288,-1.9587,-1.9399,-1.8977,-1.9201,-1.9637,-1.7803,-1.6678,-1.609,-1.5209,-1.3511,-1.1564,-1.1236,0.0,0.0,0.0,0.0,0.0,0.0,0.0,0.0,0.0,0.0,0.0,0.0,-0.6515,0.0,-0.7687,-0.8049,0.0,0.0,0.0,0.0,0.0,0.0,0.0,0.0,0.0,0.0,0.0,0.0,0.0,0.0,0.0,0.0,0.0,0.0,0.0,0.0,0.0,0.0,0.0,0.0,0.0,-0.9147,-0.8712,-0.8664,-0.9188,-0.8714,-0.8336,-0.8038,-0.6742,-0.5842,-0.524,-0.4985,-0.493,-0.5072,-0.5689,-0.5892,-0.5823,-0.665,-0.7497,-0.8231,-0.8237,-0.7726,-0.6863,-0.6241,-0.5221,-0.3983,-0.3429,-0.2845,-0.2305,0.0,0.0,0.0,0.0,0.0,0.0,0.0,0.0,0.0,0.0,0.0,0.0,0.0,-1.9562,-1.8582,-1.8071,-1.6655,-1.5283,-1.4088,-1.2894,-1.194,-1.1385,-1.0916,-1.0538,-1.0298,-1.0563,-1.0842,-1.1221,-1.209,-1.2855,-1.3522,-1.4328,-1.5246,-1.6246,-1.813,-1.9352,-2.0102,-2.0023,-1.9843,-1.961,-1.8988,-1.8182,-1.7286,-1.6407,-1.5064,0.0,0.0,0.0,0.0,0.0,0.0,0.0,0.0,0.0,0.0,0.0,0.0,-0.515,0.0,0.0,0.0,-0.6801,-0.6932,-0.6946,0.0,0.0,0.0,0.0,0.0,0.0,0.0,0.0,0.0,0.0,0.0,0.0,0.0,0.0,0.0,0.0,0.0,0.0,0.0,0.0,0.0,0.0,0.0,0.0,-0.8359,-0.7761,-0.762,-0.8138,-0.7452,-0.6736,-0.5937,-0.529,-0.4889,-0.4688,-0.4939,-0.5107,-0.5145,-0.5787,-0.6095,-0.6178,-0.6498,-0.6976,-0.7567,-0.722,-0.6862,-0.6512,-0.5529,-0.4316,-0.3178,-0.2532,-0.1889,-0.1369,0.0,0.0,0.0,0.0,0.0,0.0,0.0,0.0,0.0,-2.5409,0.0,0.0,0.0,0.0,-2.0505,-1.9503,-1.7705,-1.6143,-1.4944,-1.3616,-1.2506,-1.1639,-1.1002,-1.056,-1.0265,-1.0265,-1.0448,-1.0758,-1.15,-1.2132,-1.2699,-1.3478,-1.4307,-1.5169,-1.6999,-1.8577,-1.997,-2.0769,-2.0819,-2.0409,0.0,0.0,-1.876,0.0,0.0,0.0,0.0,0.0,0.0,0.0,0.0,0.0,0.0,0.0,0.0,0.0,0.0,0.0,-0.4871,0.0,0.0,0.0,0.0,-0.5852,0.0,0.0,0.0,0.0,0.0,0.0,0.0,0.0,0.0,0.0,0.0,0.0,0.0,0.0,0.0,0.0,0.0,0.0,0.0,0.0,0.0,0.0,0.0,0.0,-0.7486,-0.6963,-0.6727,-0.6835,-0.6374,-0.5588,-0.4423,-0.4529,-0.4529,-0.4478,-0.5065,-0.542,-0.5595,-0.6124,-0.6255,-0.6117,-0.5989,-0.6327,-0.6992,-0.6647,-0.6246,-0.5861,-0.4922,-0.3747,-0.2529,-0.1932,-0.1223,-0.058,0.0,0.0,0.0,0.0,0.0,0.0,0.0,0.0,-2.5836,-2.5993,0.0,0.0,0.0,0.0,0.0,-2.0934,-1.8808,-1.696,-1.5403,-1.3977,-1.2737,-1.1727,-1.0904,-1.0364,-1.0068,-1.0068,-1.0261,-1.0712,-1.1267,-1.1928,-1.2648,-1.3448,-1.4299,-1.5123,-1.5954,-1.7244,-1.8941,0.0,-2.2097,-2.2182,0.0,-2.2249,-2.0503,0.0,0.0,0.0,-1.4623,-1.2427,0.0,-0.9151,0.0,0.0,0.0,0.0,0.0,0.0,0.0,0.0,0.0,0.0,0.0,0.0,0.0,0.0,0.0,0.0,0.0,0.0,0.0,0.0,0.0,0.0,0.0,0.0,0.0,0.0,0.0,0.0,0.0,0.0,0.0,0.0,0.0,0.0,0.0,0.0,0.0,-0.6342,-0.6453,-0.6391,-0.6013,-0.5287,-0.5489,-0.5025,-0.3681,-0.4457,-0.4767,-0.4612,-0.5326,-0.5845,-0.6316,-0.6659,-0.6383,-0.5565,-0.5165,-0.5561,-0.6408,-0.6467,-0.5823,-0.4764,-0.4457,-0.3522,-0.2244,-0.1618,-0.0776,0.0,0.0,0.0,0.0,0.0,0.0,0.0,-2.9609,-2.8657,-2.7935,0.0,0.0,0.0,-2.6499,-2.5039,-2.3545,-2.2254,-2.0996,-1.9474,-1.7618,-1.6264,-1.4864,-1.3329,-1.2495,-1.1863,-1.1473,-1.1238,-1.1194,-1.1299,-1.2434,-1.2999,-1.2997,-1.4253,-1.5017,-1.5395,-1.5851,-1.6899,-1.8348,-2.0574,0.0,-2.2518,-2.3886,-2.3569,0.0,0.0,0.0,0.0,0.0,-1.3892,-1.1048,0.0,-0.7818,-0.6491,0.0,0.0,0.0,0.0,0.0,0.0,-0.4199,0.0,0.0,0.0,0.0,0.0,0.0,0.0,0.0,0.0,0.0,0.0,0.0,0.0,0.0,0.0,0.0,0.0,0.0,0.0,0.0,0.0,0.0,0.0,0.0,0.0,0.0,0.0,-0.6255,-0.6118,-0.6221,-0.5893,-0.5263,-0.431,-0.4305,-0.3962,-0.3226,-0.4067,-0.4537,-0.4699,-0.5799,-0.6369,-0.6538,-0.6985,-0.6682,-0.5802,-0.5284,-0.4892,-0.4551,-0.4369,-0.4349,-0.4407,-0.363,-0.2784,-0.1944,-0.1015,-0.0238,0.0419,0.0,0.0,0.0,0.0,0.0,-3.0905,-3.1041,-3.009,-2.9642,0.0,0.0,0.0,-2.7764,-2.6097,-2.4814,-2.4307,-2.2611,-2.1018,-1.9723,-1.8008,-1.6433,-1.5088,-1.375,-1.2878,-1.2534,-1.2021,-1.1835,-1.1993,-1.2833,-1.3254,-1.3392,-1.4464,-1.5235,-1.5709,-1.6233,0.0,0.0,0.0,0.0,0.0,-2.4183,0.0,0.0,-2.3121,-2.1542,0.0,0.0,0.0,-1.2683,-1.062,-0.8499,0.0,0.0,0.0,0.0,0.0,0.0,0.0,0.0,0.0,0.0,0.0,0.0,0.0,-0.3856,-0.4068,0.0,0.0,0.0,0.0,0.0,0.0,0.0,0.0,0.0,0.0,0.0,0.0,0.0,0.0,0.0,0.0,0.0,0.0,0.0,0.0,-0.5978,-0.5863,-0.5822,-0.5321,-0.4623,-0.3798,-0.3567,-0.3319,-0.3048,-0.3914,-0.4619,-0.5218,-0.6189,-0.6765,-0.6985,-0.7069,-0.6732,-0.5912,-0.5035,-0.4213,-0.3379,-0.2855,-0.2999,-0.3512,-0.281,-0.208,-0.1292,-0.0544,0.0363,0.1156,0.0,0.0,-3.2649,-3.2788,-3.228,-3.1992,-3.2605,-3.1517,-3.1089,0.0,-3.0511,-2.8982,-2.8992,-2.7558,-2.6566,-2.662,-2.4068,-2.2222,-2.1674,-1.9414,-1.7734,-1.6849,-1.491,-1.3705,-1.3524,-1.2734,-1.2537,-1.2996,-1.3036,-1.3424,-1.4035,-1.4694,-1.541,-1.6152,-1.7014,0.0,0.0,0.0,0.0,-2.2131,-2.4214,-2.4775,0.0,0.0,-2.2708,-2.1392,-1.9891,-1.7463,-1.4533,-1.2243,-0.9235,0.0,0.0,0.0,0.0,0.0,-0.4725,0.0,0.0,0.0,0.0,0.0,0.0,0.0,-0.3377,-0.3294,-0.3214,0.0,0.0,0.0,0.0,0.0,0.0,0.0,0.0,0.0,0.0,0.0,0.0,0.0,0.0,0.0,0.0,0.0,-0.5785,-0.6049,-0.5835,-0.5606,-0.5569,-0.4936,-0.4309,-0.3687,-0.3282,-0.3143,-0.3155,-0.3992,-0.489,-0.5855,-0.6512,-0.7012,-0.7397,-0.6992,-0.6546,-0.5949,-0.4588,-0.3564,-0.2782,-0.178,-0.1729,-0.2344,-0.1974,-0.1295,-0.0432,0.0,0.0928,0.2044,0.0,-3.3934,-3.4356,-3.4778,-3.4656,-3.4733,-3.5627,-3.3891,-3.2698,-3.3397,-3.1971,-3.0881,-3.0872,-2.9661,-2.8609,-2.7973,-2.6628,-2.51,-2.3304,-2.1516,-1.9875,-1.8385,-1.6652,-1.562,-1.5369,-1.4817,-1.4515,-1.4624,-1.5306,-1.5631,-1.5499,-1.6781,-1.7405,-1.7648,-1.8213,0.0,0.0,0.0,0.0,-2.3782,-2.5509,0.0,-2.5343,-2.4775,-2.3511,-2.1904,-2.0829,-1.8588,-1.5525,0.0,-0.8371,-0.6375,0.0,0.0,0.0,0.0,0.0,0.0,0.0,0.0,0.0,0.0,0.0,0.0,-0.2741,-0.2776,-0.2753,0.0,0.0,0.0,0.0,0.0,0.0,0.0,0.0,0.0,0.0,0.0,0.0,0.0,0.0,0.0,0.0,0.0,-0.6107,-0.6376,-0.6161,-0.5959,-0.5917,-0.5508,-0.4965,-0.4214,-0.3927,-0.3748,-0.3675,-0.4258,-0.4943,-0.5648,-0.6308,-0.6677,-0.6754,-0.6584,-0.6121,-0.5387,-0.4195,-0.3288,-0.2457,-0.0925,-0.0864,-0.1665,-0.1049,-0.0679,-0.037,0.0875,0.1633,0.2139,-3.3442,-3.417,-3.4703,-3.4827,-3.5305,-3.6,-3.6936,-3.5382,-3.4285,-3.4715,-3.2908,-3.1388,-3.1011,-2.998,-2.9192,-2.8894,-2.751,-2.6108,-2.4764,-2.2463,-2.0752,-1.9688,-1.7618,-1.6377,-1.6113,-1.5732,-1.5455,-1.5303,-1.591,-1.6151,-1.6122,-1.7154,-1.8114,-1.9005,-1.9294,-2.0416,0.0,0.0,-2.435,-2.514,-2.6088,0.0,-2.5869,-2.5343,-2.4165,-2.264,-2.1661,-1.9019,-1.5431,-1.1385,-0.8619,0.0,0.0,-0.4394,-0.4073,0.0,-0.4604,-0.3871,0.0,0.0,0.0,-0.2412,0.0,0.0,0.0,-0.2331,-0.2304,-0.2726,0.0,0.0,0.0,0.0,0.0,0.0,0.0,0.0,0.0,0.0,0.0,0.0,0.0,0.0,0.0,0.0,-0.6408,-0.6462,-0.635,-0.6268,-0.6276,-0.5631,-0.5071,-0.4529,-0.4113,-0.394,-0.4001,-0.447,-0.5079,-0.5712,-0.5961,-0.6111,-0.6111,-0.5837,-0.535,-0.47,-0.345,-0.2473,-0.1665,-0.0308,0.0062,-0.0247,0.0123,0.0432,0.0802,0.1554,0.2193,0.291,-3.3219,-3.3923,-3.4538,-3.4428,-3.5404,-3.6428,-3.7298,-3.6233,-3.5412,-3.5633,-3.3763,-3.2041,-3.1012,-2.9976,-2.9316,-2.9183,-2.7749,-2.6475,-2.5674,-2.3206,-2.1445,-2.0616,-1.8333,-1.6981,-1.6704,-1.6484,-1.6341,-1.6276,-1.6529,-1.6711,-1.6922,-1.7551,-1.8665,-2.0164,-2.0621,-2.203,0.0,0.0,0.0,-2.6331,0.0,-2.666,-2.6341,-2.5738,-2.4776,-2.357,-2.2345,-1.9376,-1.5626,-1.2404,0.0,-0.7451,-0.5552,-0.4152,0.0,0.0,0.0,0.0,0.0,0.0,0.0,0.0,0.0,-0.2078,0.0,0.0,0.0,-0.2694,0.0,0.0,0.0,0.0,0.0,0.0,0.0,0.0,0.0,0.0,0.0,0.0,0.0,0.0,0.0,0.0,-0.6614,-0.6633,-0.6503,-0.644,-0.6464,-0.5706,-0.5075,-0.4743,-0.4205,-0.4042,-0.4313,-0.4654,-0.5054,-0.5625,-0.5475,-0.5436,-0.5314,-0.494,-0.4422,-0.3785,-0.2575,-0.158,-0.074,0.037,0.0926,0.1173,0.1173,0.1542,0.2036,0.2234,0.2884,0.3685,-3.3148,-3.3623,-3.4262,-3.4827,-3.569,-3.6416,-3.6834,-3.6236,-3.5506,-3.4918,-3.4979,-3.4261,-3.2159,0.0,0.0,0.0,0.0,0.0,-2.5359,0.0,-2.2893,-2.0542,-1.9229,-1.8428,-1.8157,-1.7907,-1.8222,-1.9104,-1.8938,-1.8968,-1.9214,-1.9818,-2.0358,-2.0858,-2.2551,0.0,0.0,0.0,-2.7035,0.0,-2.7956,-2.7762,0.0,-2.6118,-2.5447,-2.4734,-2.2504,-2.0116,-1.7475,0.0,-1.1742,-0.9307,0.0,-0.3679,-0.258,0.0,0.0,0.0,0.0,0.0,0.0,0.0,-0.2118,0.0,0.0,0.0,-0.2025,-0.1879,0.0,0.0,0.0,0.0,0.0,0.0,0.0,0.0,0.0,0.0,0.0,0.0,0.0,0.0,0.0,0.0,0.0,-0.7075,-0.6493,-0.6208,-0.6303,-0.5911,-0.5499,-0.5008,-0.4598,-0.4546,-0.4744,-0.4509,-0.4608,-0.4981,-0.4905,-0.4747,-0.4441,-0.4018,-0.3371,-0.2464,-0.1504,-0.0729,0.0,0.1295,0.1849,0.1911,0.1911,0.1912,0.2103,0.3048,0.3724,0.419,-3.2852,-3.352,-3.4074,-3.4254,-3.5467,-3.6567,-3.6978,-3.6651,-3.6235,-3.586,-3.5203,-3.4225,0.0,0.0,0.0,0.0,0.0,-2.6793,0.0,0.0,-2.1977,-2.1167,0.0,0.0,-1.9332,-1.9242,-1.9273,-1.9397,-1.9448,-1.9463,-1.9427,-2.0163,-2.1054,-2.2097,-2.3203,0.0,-2.6416,0.0,-2.7812,0.0,0.0,0.0,0.0,-2.678,-2.5827,-2.48,-2.3557,-2.1933,-1.9989,0.0,-1.4452,0.0,0.0,0.0,0.0,0.0,0.0,0.0,0.0,0.0,0.0,0.0,0.0,0.0,0.0,0.0,-0.221,0.0,0.0,0.0,0.0,0.0,0.0,0.0,0.0,0.0,0.0,0.0,0.0,0.0,0.0,0.0,0.0,0.0,0.0,0.0,0.0,-0.6473,-0.6581,-0.6304,-0.5812,-0.5054,-0.4954,-0.4774,-0.4516,-0.4588,-0.4523,-0.4315,-0.4067,-0.3615,-0.2891,-0.2512,-0.1735,-0.0603,-0.0061,0.0674,0.148,0.2282,0.2714,0.2903,0.3113,0.3107,0.2968,0.3663,0.4159,0.4588,-3.3104,-3.3614,-3.3905,-3.3917,-3.5201,-3.6524,-3.7418,-3.7547,-3.7477,-3.7306,0.0,0.0,-3.3751,-3.2998,0.0,0.0,-2.854,-2.6899,0.0,0.0,-2.1929,0.0,0.0,0.0,0.0,-2.0416,-2.0277,-2.0004,-2.0328,-2.0292,-1.9998,-2.0806,-2.1794,-2.2953,0.0,-2.5644,-2.7814,0.0,-2.8678,-2.9345,-2.8881,-2.8555,-2.8239,-2.7299,-2.6081,-2.4893,-2.4513,-2.3444,-2.1932,-1.9865,-1.6932,0.0,-1.2406,0.0,0.0,0.0,0.0,0.0,-0.2958,0.0,0.0,0.0,0.0,0.0,0.0,0.0,0.0,0.0,0.0,0.0,0.0,0.0,0.0,0.0,0.0,0.0,0.0,0.0,0.0,0.0,0.0,0.0,0.0,0.0,0.0,0.0,-0.6337,-0.6381,-0.6492,-0.6266,-0.5812,-0.5078,-0.4872,-0.4571,-0.4118,-0.4064,-0.3825,-0.3389,-0.2925,-0.2244,-0.1394,-0.1031,-0.0182,0.1031,0.1411,0.2034,0.2775,0.3207,0.3515,0.3766,0.4182,0.4111,0.3897,0.4305,0.4692,0.5066,-3.4188,-3.4015,0.0,0.0,0.0,-3.6173,-3.8087,-3.8971,-3.9335,0.0,0.0,0.0,0.0,0.0,0.0,0.0,0.0,-2.8355,-2.6147,0.0,-2.3936,0.0,0.0,-2.1263,0.0,0.0,-2.1505,-2.203,-2.2333,-2.2182,-2.1623,-2.2485,-2.2887,-2.297,-2.508,-2.6484,-2.7342,-2.9095,-2.994,-3.0118,-2.9768,-2.9189,-2.8363,0.0,-2.6259,-2.5367,-2.5123,0.0,0.0,-2.0692,-1.8994,0.0,0.0,0.0,0.0,0.0,0.0,0.0,0.0,0.0,0.0,-0.2912,0.0,0.0,0.0,0.0,-0.131,0.0,0.0,0.0,0.0,0.0,0.0,0.0,0.0,0.0,0.0,0.0,0.0,0.0,0.0,0.0,0.0,0.0,0.0,-0.5678,-0.541,-0.5397,-0.5824,-0.5601,-0.5266,-0.4935,-0.4104,-0.3651,-0.371,-0.257,-0.2003,-0.2034,-0.1417,-0.0739,-0.0062,0.0308,0.0986,0.1971,0.2652,0.3147,0.3517,0.413,0.4376,0.4376,0.4752,0.4875,0.4899,0.5178,0.546,0.5781,0.0,0.0,0.0,0.0,0.0,-3.6786,-3.9069,-3.9305,0.0,0.0,0.0,0.0,0.0,-3.5711,-3.4366,0.0,0.0,-2.9195,-2.8018,-2.5987,0.0,0.0,0.0,-2.3394,0.0,0.0,0.0,0.0,-2.2384,-2.208,-2.1165,-2.2232,-2.2787,-2.297,0.0,-2.6751,0.0,0.0,0.0,0.0,0.0,-3.0106,-2.9542,0.0,0.0,-2.6642,-2.6563,-2.5942,0.0,-2.3663,-2.193,-2.0021,-1.8497,-1.5904,-1.3221,-1.2256,-1.085,0.0,0.0,0.0,-0.5758,-0.5181,0.0,0.0,0.0,0.0,0.0,0.0,0.0,0.0,0.0,0.0,0.0,0.0,0.0,0.0,0.0,0.0,0.0,0.0,0.0,0.0,0.0,0.0,0.0,-0.5406,-0.519,-0.5202,0.0,-0.535,-0.4843,-0.4101,-0.3879,-0.3337,-0.2471,-0.1853,-0.1275,-0.0678,0.0,0.0678,0.1356,0.1665,0.2342,0.3266,0.3512,0.3884,0.4441,0.4868,0.5176,0.5436,0.5922,0.6181,0.6206,0.5725,0.5649,0.5725,-3.5497,0.0,0.0,0.0,0.0,0.0,0.0,0.0,0.0,0.0,-3.9815,0.0,-3.8187,0.0,-3.5758,0.0,-3.2612,-3.0965,-3.0102,-2.8012,0.0,-2.7324,-2.6093,0.0,0.0,0.0,0.0,0.0,0.0,-2.2215,-2.0925,-2.2097,-2.2736,-2.312,0.0,-2.6941,-2.8541,0.0,-3.116,0.0,0.0,-3.0898,0.0,0.0,-2.8354,-2.7468,0.0,-2.6723,-2.5917,-2.5246,-2.3974,-2.2509,-2.1818,-1.9659,-1.7227,-1.6329,-1.5092,-1.3623,-1.1596,-1.0018,0.0,-0.6943,-0.5424,0.0,-0.3325,0.0,0.0,0.0,0.0,0.0,0.0,0.0,0.0,0.0,0.0,0.0,0.0,0.3665,0.0,0.0,0.0,0.0,0.0,0.0,-0.399,-0.4589,-0.4384,-0.4445,0.0,0.0,-0.4101,-0.3532,-0.3202,-0.259,-0.147,-0.0841,-0.0122,0.074,0.1418,0.2034,0.2712,0.2897,0.3512,0.4435,0.4435,0.4807,0.5425,0.5667,0.5994,0.6345,0.6724,0.6941,0.7058,0.6558,0.6259,0.6126,0.0,0.0,0.0,0.0,-3.7848,0.0,0.0,0.0,-4.0402,0.0,-3.9981,-3.9446,-3.9187,-3.7714,-3.6613,-3.6275,-3.4959,0.0,-3.2298,-3.1123,0.0,0.0,-2.8392,-2.7539,-2.7675,0.0,0.0,0.0,0.0,-2.2707,-2.0976,-2.2097,-2.2887,-2.342,-2.5256,0.0,-2.8866,-3.0599,-3.1889,-3.2703,-3.2019,-3.1607,-3.1253,-3.0303,0.0,-2.7853,-2.7446,-2.6699,-2.59,-2.5524,-2.5111,-2.4659,-2.3635,-2.28,-2.1996,-2.0683,-1.9894,-1.8878,-1.594,-1.3796,-1.1609,-0.8492,0.0,0.0,0.0,0.0,-0.3537,0.0,0.0,0.0,0.0,0.0,0.0,0.0,0.0,0.0,0.0,0.0,0.0,0.0,0.0,0.0,0.0,-0.2376,-0.2837,-0.3433,-0.3213,-0.336,0.0,0.0,-0.3026,-0.3026,-0.2201,-0.1472,-0.0823,0.0425,0.1356,0.2096,0.2775,0.3391,0.3943,0.3943,0.4496,0.5421,0.5421,0.579,0.6403,0.6464,0.6708,0.7176,0.718,0.7253,0.7379,0.7445,0.7195,0.6867,-3.635,-3.6882,-3.7573,0.0,-3.889,-3.9069,0.0,0.0,0.0,0.0,-3.9843,-3.9761,-3.8753,-3.8157,-3.7483,-3.6632,-3.5512,0.0,0.0,0.0,0.0,-3.2921,-3.1714,-3.0443,-2.9029,-2.8201,0.0,-2.337,0.0,0.0,-2.1522,-2.2434,-2.3238,-2.3998,0.0,0.0,-2.9624,-3.1158,-3.2457,-3.3411,-3.2901,-3.2633,0.0,0.0,-3.0751,-2.953,-2.8737,-2.7912,-2.7128,-2.6689,-2.6582,-2.6437,-2.5349,-2.4562,-2.3711,-2.2205,-2.131,-2.0323,-1.7987,-1.6169,-1.4475,-1.2636,-1.007,-0.7716,0.0,0.0,0.0,0.0,0.0,0.0,0.0,0.0,0.0,0.0,0.0,0.0,0.0,0.0,0.0,0.0,0.0,0.0,0.0,-0.1822,-0.2472,-0.3103,-0.2869,0.0,0.0,0.0,0.0,-0.213,-0.1738,-0.1001,0.0118,0.0971,0.1973,0.3147,0.3761,0.4253,0.4626,0.493,0.5298,0.5794,0.6035,0.6403,0.6775,0.7021,0.7387,0.7874,0.7901,0.8054,0.8162,0.7351,0.685,0.6502,-3.6647,0.0,0.0,-3.8935,0.0,0.0,-3.9486,0.0,0.0,-3.9592,-3.9943,0.0,-3.8657,-3.8435,-3.8084,-3.7335,-3.6545,0.0,-3.5479,0.0,0.0,-3.4625,-3.3695,-3.2651,-3.1526,-3.0475,0.0,-2.5496,0.0,0.0,-2.2877,-2.3409,-2.4097,-2.5012,0.0,-2.8566,-3.0214,-3.2127,-3.3428,-3.4111,-3.3632,0.0,0.0,-3.2463,-3.1266,-2.9795,-2.9693,-2.9026,-2.8055,-2.7265,-2.7233,-2.7394,-2.6576,-2.6159,-2.572,-2.4457,-2.3621,-2.2548,-2.0186,-1.8318,-1.6573,-1.4739,-1.2552,-1.0393,-0.8713,-0.7403,-0.6188,0.0,0.0,0.0,0.0,0.0,0.0,0.0,0.0,0.0,0.0,0.0,0.0,0.0,0.0,0.0,0.0,0.0,-0.1926,0.0,0.0,0.0,0.0,0.0,0.0,-0.1609,-0.1203,-0.0466,0.0466,0.1373,0.2485,0.3664,0.4273,0.4838,0.5364,0.536,0.5851,0.653,0.6464,0.6771,0.7327,0.7566,0.7913,0.8402,0.8511,0.8701,0.8795,0.7794,0.7143,0.666,0.0,0.0,0.0,0.0,0.0,0.0,0.0,-4.0559,0.0,-4.0082,0.0,-3.9676,-3.8686,-3.8651,-3.8477,-3.796,0.0,-3.6804,-3.6131,-3.5729,-3.5547,-3.5506,-3.4831,-3.436,-3.4143,-3.2549,0.0,0.0,0.0,0.0,-2.4679,-2.4815,-2.5411,-2.6368,0.0,0.0,0.0,-3.3189,-3.4382,0.0,-3.4177,-3.3648,-3.3093,-3.2698,-3.1267,-2.9581,-3.031,-2.9816,-2.8625,-2.7456,-2.7429,-2.7803,-2.7359,-2.7465,-2.7525,-2.6719,-2.6057,-2.502,-2.2424,-2.0352,-1.8413,-1.6133,-1.4518,-1.2965,-1.0876,-0.9374,-0.805,-0.6701,-0.5136,0.0,0.0,0.0,0.0,0.0,0.0,0.0,0.0,0.0,0.0,0.0,0.0,0.0,0.0,0.0,0.0,0.0,0.0,0.0,0.0,0.0,0.0,-0.1148,-0.062,0.0,0.0575,0.0,0.2791,0.3924,0.4523,0.5168,0.5871,0.5732,0.6219,0.7204,0.6709,0.7077,0.7872,0.7872,0.8262,0.8898,0.915,0.9332,0.9313,0.867,0.7927,0.725,0.0,0.0,0.0,0.0,0.0,-3.9557,-4.0229,-4.0559,-4.0448,-3.9662,-3.9683,-3.955,-3.9044,-3.8732,-3.8247,-3.7546,-3.6585,0.0,0.0,0.0,0.0,-3.6035,-3.6,-3.5395,-3.4297,-3.2981,-3.1194,0.0,0.0,0.0,-2.6082,-2.6741,-2.7359,-2.7934,0.0,0.0,-3.2932,-3.3768,0.0,-3.4744,-3.4325,-3.4073,-3.3914,-3.3369,-3.2266,-3.0989,-3.0712,-2.9635,-2.8297,-2.7644,-2.7764,-2.8048,-2.7075,-2.7481,-2.8084,-2.7157,-2.7002,-2.6638,-2.4511,-2.2717,-2.1094,-1.95,-1.6831,-1.431,-1.3222,-1.1261,-0.9283,-0.78,-0.6997,-0.6327,-0.5506,0.0,0.0,0.0,0.0,0.0,0.0,0.0,0.0,0.0,0.0,0.0,0.0,0.0,0.0,0.0,0.0,0.0,0.0,0.0,0.0,0.0,0.0,0.0,0.0,0.0,0.2628,0.3988,0.4603,0.5133,0.571,0.6628,0.6709,0.6223,0.6898,0.7505,0.7872,0.7872,0.8448,0.9276,0.9814,0.9935,0.9745,0.955,0.8922,0.8077,0.0,0.0,0.0,0.0,0.0,0.0,0.0,-3.9688,0.0,-4.0039,-4.0166,-4.009,-3.9683,-3.95,-3.8965,-3.7834,-3.7033,-3.6276,-3.5471,-3.5296,-3.5311,-3.5594,-3.5744,0.0,-3.4515,-3.4078,-3.2913,-3.0993,0.0,0.0,-2.8368,-2.8354,-2.8769,-2.9564,0.0,-3.1865,0.0,0.0,0.0,-3.4439,-3.4357,-3.4108,-3.3845,-3.3845,-3.2913,-3.1483,-3.0923,-3.0072,-2.9092,-2.829,-2.8286,-2.8584,-2.8442,-2.881,-2.9177,-2.8749,-2.8613,-2.8273,-2.6773,-2.5224,-2.3771,-2.2757,-2.0236,-1.761,-1.6102,-1.3798,-1.1385,-0.9418,-0.8542,-0.7704,-0.6141,-0.5195,0.0,0.0,0.0,0.0,0.0,0.0,0.0,0.0,0.0,0.0,0.0,0.0,0.0,0.0,0.0,0.0,0.0,0.0,0.0,0.0,0.0,0.0,0.0,0.0,0.0,0.415,0.4773,0.5557,0.6536,0.661,0.6653,0.6714,0.7016,0.7444,0.7939,0.8559,0.9068,0.9532,1.0011,1.0255,1.026,1.0327,0.9877,0.9,0.0,-3.5151,0.0,0.0,-3.6142,0.0,-3.8094,-3.8549,-3.9254,-4.051,-4.0553,-4.0466,-4.0375,-4.0168,-3.958,-3.835,-3.7715,-3.682,-3.5487,-3.5209,-3.492,-3.4614,-3.492,-3.4875,-3.4455,-3.4707,-3.4236,0.0,0.0,0.0,0.0,0.0,0.0,0.0,0.0,0.0,0.0,0.0,-3.3376,-3.4032,-3.4202,-3.4027,-3.3706,-3.3975,-3.3085,-3.1562,-3.0819,-3.0271,-2.9798,-2.8998,-2.8776,-2.8961,-2.9453,-2.9781,-2.9975,-2.9965,-3.0047,-2.9925,-2.9003,-2.7741,-2.6541,-2.5782,-2.3561,-2.1006,-1.8916,-1.637,-1.3722,-1.1363,-1.0013,-0.8711,-0.6755,-0.5951,0.0,0.0,0.0,0.0,0.0,0.0,0.0,0.0,0.0,0.0,0.0,0.0,0.0,0.0,0.0,0.0,0.0,0.0,0.0,0.0,0.0,0.0493,0.0495,0.0,0.2856,0.0,0.4888,0.5864,0.7111,0.6478,0.6591,0.7199,0.6893,0.7194,0.8005,0.9218,0.9853,0.9978,1.0241,1.0589,1.0971,1.0984,1.0773,1.0311,0.0,0.0,0.0,0.0,0.0,0.0,0.0,-3.7487,-3.8131,-4.0525,-4.0028,-3.9952,-4.1247,-4.0075,-3.9184,-3.911,-3.7703,-3.6347,-3.523,-3.4523,-3.3868,-3.3305,-3.3818,-3.4004,-3.3618,-3.3934,-3.3793,0.0,0.0,0.0,0.0,0.0,0.0,0.0,0.0,0.0,0.0,-3.2525,-3.2972,-3.3815,-3.3859,-3.3965,-3.4063,-3.3391,-3.2496,-3.1434,-3.0254,-2.9664,-2.9456,-2.9422,-2.907,-2.8685,-2.8502,-2.8976,-2.956,-2.956,-3.0655,-3.1739,-3.106,-3.03,-2.9454,-2.8499,-2.587,-2.3042,-2.1293,-1.8559,-1.5857,-1.3776,-1.1512,-0.9507,-0.8238,-0.7418,-0.6577,0.0,0.0,0.0,0.0,0.0,0.0,0.0,0.0,0.0,0.0,0.0,0.0,0.0,0.0,0.0,0.0,0.0,0.0,-0.0109,0.0,0.0826,0.0839,0.1738,0.0,0.361,0.4736,0.5598,0.6152,0.6936,0.6959,0.6464,0.6464,0.7016,0.8011,0.9569,1.0397,1.07,1.0825,1.1363,1.2076,1.1545,1.1839,1.2395,0.0,0.0,0.0,0.0,0.0,0.0,0.0,-3.6719,-3.7309,-3.9321,-3.8948,-3.8879,-4.0017,-3.9388,-3.8549,-3.761,-3.736,-3.6595,-3.5015,-3.5268,-3.513,-3.44,-3.4413,-3.4336,-3.4065,-3.3942,-3.3961,0.0,0.0,0.0,0.0,0.0,0.0,0.0,0.0,-3.2006,-3.2113,-3.2321,-3.2877,-3.3632,-3.3776,-3.3727,-3.3493,-3.3182,-3.2367,-3.1308,-3.0347,-2.998,-2.9818,-2.9571,-2.9402,-2.9289,-2.9172,-2.9504,-2.9935,-2.9785,-3.0629,-3.153,-3.1117,-3.0969,-3.074,-2.9957,-2.8011,-2.5723,-2.3741,-2.0734,-1.753,-1.4462,-1.1429,-0.9146,-0.8495,-0.7553,-0.6571,0.0,0.0,0.0,0.0,0.0,0.0,0.0,0.0,0.0,0.0,0.0,0.0,0.0,0.0,0.0,0.0,0.0,0.0,0.0265,0.0,0.1459,0.1686,0.2222,0.3091,0.4278,0.4781,0.5757,0.7136,0.6667,0.6709,0.7011,0.7194,0.805,0.9409,1.0177,1.0699,1.1138,1.1329,1.1767,1.2352,1.2587,1.2894,1.3182,-3.2418,0.0,-3.2254,0.0,-3.3553,-3.4125,-3.5637,-3.5884,-3.6424,-3.7856,-3.7537,-3.7619,-3.8814,-3.8572,-3.7832,-3.6603,-3.6895,-3.6403,-3.4679,-3.5402,-3.5466,-3.4448,-3.4477,0.0,-3.4068,-3.4053,-3.4113,-3.4291,-3.3944,0.0,0.0,0.0,0.0,0.0,-3.1494,-3.1561,-3.1431,-3.191,-3.2493,-3.3141,-3.3538,-3.3349,-3.2795,-3.275,-3.207,-3.1003,-3.0322,-3.0077,-3.0057,-2.9648,-2.944,-2.9419,-2.9515,-2.9522,-2.9545,-2.9456,-2.9932,-3.0431,-3.0282,-3.0425,-3.0493,-3.0024,-2.9042,-2.7627,-2.5422,-2.2601,-1.9187,-1.474,-1.1541,-0.9375,-0.9008,-0.7884,-0.6742,-0.6078,0.0,0.0,0.0,0.0,0.0,0.0,0.0,-0.1061,-0.0454,0.0,0.0,0.0,0.0,0.0,0.0,0.0,0.0,0.0,0.0,0.0,0.0,0.2717,0.3478,0.4532,0.4885,0.6034,0.7744,0.6954,0.6954,0.7561,0.8027,0.8965,1.0148,1.0712,1.1236,1.1716,1.1922,1.2419,1.3033,1.3636,1.3974,1.4324,-3.1287,-3.0988,-3.1172,-3.2921,-3.3424,-3.3887,-3.4679,-3.4987,-3.5404,-3.6282,-3.5881,-3.6276,-3.818,-3.7707,-3.7089,-3.6822,-3.6383,-3.5551,-3.4197,-3.4535,-3.4174,0.0,0.0,-3.3813,-3.3308,-3.4025,-3.4267,-3.3982,0.0,0.0,-3.2886,0.0,-3.0871,-3.0623,-3.0623,-3.0623,-3.0646,-3.1204,-3.167,-3.2182,-3.298,-3.2815,-3.2111,-3.1898,-3.1321,-3.0557,-3.0001,-2.9842,-2.9873,-2.9598,-2.9139,-2.8776,-2.9015,-2.8497,-2.7896,-2.8136,-2.8416,-2.8609,-2.8609,-2.8628,-2.8563,-2.8371,-2.8609,-2.8257,-2.5913,-2.4023,-2.1058,-1.4937,-1.2248,-1.0745,-1.0009,-0.8682,-0.7643,-0.751,0.0,0.0,0.0,0.0,0.0,0.0,-0.1263,-0.1263,-0.0454,0.0,0.0,0.0,0.0,0.0,0.0,0.0,0.0,0.1311,0.1858,0.0,0.2186,0.3138,0.3649,0.3827,0.5116,0.6272,0.7434,0.805,0.8172,0.7939,0.8735,0.9293,0.9699,1.1178,1.2065,1.2596,1.2547,1.3333,1.4455,1.4455,1.5196,1.6249,-3.1069,-3.1533,-3.2308,-3.3555,-3.385,-3.4243,-3.5187,-3.5065,-3.5208,-3.6026,-3.5806,-3.5542,-3.5474,-3.6329,-3.6527,0.0,-3.5966,-3.5527,0.0,-3.4679,-3.4799,-3.3624,-3.4198,-3.4559,-3.4582,-3.4102,-3.3983,-3.4292,0.0,0.0,0.0,-3.0948,-3.0582,-3.079,-3.0629,-3.0788,-3.1107,-3.1657,-3.1867,-3.1872,-3.2305,-3.2045,-3.1301,-3.1038,-3.0404,-2.9685,-2.9367,-2.9046,-2.88,-2.8559,-2.7936,-2.7214,-2.7338,-2.7725,-2.7989,-2.7621,-2.7936,-2.8338,-2.8053,-2.7878,-2.7832,-2.798,-2.8073,-2.77,-2.6159,-2.2693,-1.8829,-1.549,-1.3349,-1.1652,-1.0306,-0.9121,-0.8177,-0.7603,0.0,0.0,0.0,0.0,0.0,0.0,-0.1801,-0.1345,0.0,-0.0632,0.0,0.0,0.0,0.0,0.0,0.0,0.0,0.0,0.2828,0.0,0.3628,0.4043,0.4388,0.4767,0.5178,0.5979,0.7072,0.7505,0.8116,0.8854,0.9051,0.9915,1.1379,1.2026,1.2742,1.3298,1.3407,1.3819,1.4329,1.48,1.5534,1.6449,-3.0563,-3.1198,-3.2108,-3.3204,-3.3595,-3.404,-3.4872,-3.4775,-3.4823,-3.5332,-3.4993,-3.4462,-3.372,-3.451,0.0,-3.4007,-3.4921,-3.4631,-3.2557,-3.3983,-3.4342,-3.3125,-3.3907,-3.4482,-3.4799,0.0,0.0,-3.431,-3.3077,-3.1903,-3.0859,-3.0217,-3.017,-3.0529,-3.046,-3.0546,-3.0788,-3.1427,-3.1385,-3.0931,-3.1282,-3.0891,-3.009,-2.9774,-2.9331,-2.8815,-2.8522,-2.8314,-2.8077,-2.7668,-2.6934,-2.617,-2.5924,-2.6239,-2.6734,-2.6819,-2.6868,-2.6806,-2.6626,-2.6393,-2.6277,-2.6598,-2.6915,-2.6692,-2.4928,-2.1386,-1.776,-1.5115,-1.3142,-1.1509,-1.0132,-0.913,-0.836,-0.7977,0.0,-0.6023,0.0,0.0,0.0,0.0,0.0,0.0,0.0,-0.048,0.0,0.0,0.0,0.0,0.0,0.0,0.0,0.3228,0.374,0.0,0.4719,0.4819,0.5009,0.5354,0.5988,0.6584,0.7136,0.7999,0.8805,0.961,0.981,1.0845,1.2318,1.2861,1.344,1.3911,1.4157,1.446,1.4842,1.5443,1.6117,1.6965,-2.9932,-3.0255,0.0,0.0,-3.2851,0.0,-3.3941,-3.4237,-3.436,-3.4337,-3.3716,-3.3193,-3.2785,-3.2414,-3.2206,-3.2277,0.0,0.0,0.0,-3.2653,-3.2957,-3.1371,-3.2745,-3.3694,-3.3965,-3.3446,-3.3423,-3.3871,-3.2432,-3.0921,-2.9485,-2.953,-2.9682,-2.9935,-3.0147,-3.0122,-2.9976,-3.0637,-3.0334,-2.9463,-2.9969,-2.9529,-2.8507,-2.8257,-2.8097,-2.7935,-2.752,-2.7542,-2.7643,-2.6903,-2.6202,-2.5546,-2.478,-2.4434,-2.4517,-2.5798,-2.5305,-2.4361,-2.4657,-2.439,-2.4106,-2.4412,-2.5224,-2.5292,-2.2655,-2.0297,-1.7644,-1.4123,-1.214,-1.0731,-0.9737,-0.8823,-0.8322,-0.8629,-0.776,-0.6842,-0.6323,0.0,0.0,0.0,0.0,0.0,0.0,-0.0215,0.0268,0.0,0.0,0.0,0.0,0.0,0.3772,0.4092,0.4586,0.506,0.5472,0.5429,0.5528,0.5655,0.7332,0.7932,0.7619,0.9249,1.0066,1.026,1.1036,1.1892,1.2838,1.36,1.4202,1.4539,1.4866,1.5317,1.5823,1.6155,1.683,1.7581,0.0,0.0,-3.2034,-3.2348,-3.2851,-3.3423,-3.4014,-3.4237,-3.4193,-3.3645,-3.3431,-3.2768,-3.1363,-3.1595,-3.1457,-3.0306,-3.1809,-3.2018,-3.0011,-3.2273,-3.2669,-3.0307,-3.24,-3.3247,-3.2521,-3.2745,-3.2533,-3.1712,-3.1027,-3.0253,-2.9485,-2.9702,-2.9932,-3.0154,-3.0357,-3.0283,-3.0056,-3.0263,-2.9663,-2.8603,-2.8709,-2.8325,-2.7632,-2.7804,-2.7609,-2.7203,-2.6917,-2.6718,-2.655,-2.5645,-2.5383,-2.5274,-2.4417,-2.3947,-2.3821,-2.4499,-2.4227,-2.3717,-2.3794,-2.3226,-2.2686,-2.3044,-2.2991,-2.2524,-2.1608,-1.9792,-1.757,-1.4909,-1.3752,-1.2572,-1.0642,-0.977,-0.9369,-0.9241,-0.8242,-0.7303,-0.685,0.0,0.0,0.0,-0.28,-0.1817,-0.092,-0.0569,0.017,0.0,0.0,0.0,0.0,0.4166,0.4951,0.4931,0.5314,0.5632,0.5932,0.5859,0.5974,0.6167,0.7485,0.8171,0.8364,0.9406,1.0468,1.1421,1.178,1.2772,1.4244,1.4521,1.5062,1.5649,1.5714,1.5809,1.5989,1.6316,1.6886,1.7451,-2.9747,-3.0802,-3.1913,-3.2167,-3.2269,-3.2622,-3.3568,-3.3311,-3.2886,-3.2609,-3.2076,-3.1428,-3.0552,-3.0458,-3.0115,-2.9392,-3.0742,-3.1014,-2.9562,-3.147,-3.1783,-2.9821,-3.1917,-3.2695,-3.1812,-3.1986,-3.1472,-3.0285,-2.9899,-2.9415,-2.8792,-2.9154,-2.951,-2.9839,-3.0163,-3.0098,-2.9806,-2.9806,-2.8936,-2.7641,-2.7641,-2.7178,-2.6478,-2.6699,-2.6596,-2.6374,-2.5823,-2.5752,-2.5669,-2.4648,-2.4412,-2.4421,-2.3693,-2.3111,-2.2769,-2.2902,-2.2976,-2.2996,-2.3093,-2.2611,-2.2113,-2.2278,-2.222,-2.1907,-2.0828,-1.9351,-1.7517,-1.5282,-1.4005,-1.2675,-1.0679,-0.9593,-0.8917,-0.8751,-0.804,-0.7373,-0.704,-0.5873,0.0,-0.4401,-0.3005,-0.1751,-0.0883,-0.0351,0.0581,0.2208,0.0,0.0,0.3344,0.4161,0.472,0.5072,0.5768,0.6294,0.6623,0.6507,0.649,0.657,0.7827,0.8569,0.8953,1.0297,1.1453,1.2473,1.2836,1.3895,1.5287,1.5524,1.5964,1.6483,1.6483,1.6364,1.6234,1.6234,1.6509,1.6883,-2.9796,-3.0471,-3.1322,-3.1761,-3.1527,-3.1629,-3.2896,-3.2189,-3.1533,-3.1614,-3.0759,-3.0155,-3.0135,-2.9429,-2.9,-2.9093,-2.982,-2.9972,-2.9146,-3.0418,-3.0643,-2.9366,-3.0997,-3.1686,-3.1192,-3.1046,-3.0413,-2.9423,-2.9042,-2.8571,-2.7951,-2.8455,-2.8824,-2.9176,-2.9661,-2.9547,-2.9006,-2.8992,-2.8056,-2.6668,-2.6635,-2.6143,-2.5396,-2.5471,-2.5502,-2.5466,-2.4646,-2.4648,-2.4842,-2.3737,-2.3434,-2.3443,-2.2879,-2.223,-2.1561,-2.1355,-2.149,-2.1795,-2.2189,-2.1956,-2.1597,-2.1493,-2.1788,-2.1631,-1.9866,-1.8583,-1.7213,-1.5195,-1.3521,-1.1938,-1.0413,-0.9044,-0.8077,-0.7997,-0.7655,-0.7323,-0.7077,0.0,-0.523,-0.4774,-0.3078,-0.1602,-0.0652,0.0059,0.1123,0.2658,0.2614,0.2932,0.0,0.3844,0.4148,0.4875,0.5991,0.6786,0.7153,0.7148,0.7065,0.6964,0.8289,0.91,0.95,1.132,1.2572,1.3427,1.4006,1.4955,1.6169,1.6483,1.6807,1.713,1.7066,1.6753,1.6299,1.5899,1.5833,1.584,-2.8956,-2.9893,-3.094,-3.127,-3.127,-3.1527,-3.2443,-3.2415,-3.2085,-3.1434,-3.1247,-3.0859,-3.0056,-2.9805,-2.9554,-2.9139,-2.9112,-2.8715,-2.7915,-2.9314,-2.9358,-2.7589,-2.8666,-2.9283,-2.9322,-2.9576,-2.96,-2.9423,-2.8359,-2.7752,-2.771,-2.8307,-2.8396,-2.8076,-2.8523,-2.8258,-2.7329,-2.7003,-2.6369,-2.5538,-2.5408,-2.5158,-2.4873,-2.5218,-2.4955,-2.4298,-2.3877,-2.3702,-2.3503,-2.2673,-2.2711,-2.3023,-2.26,-2.1677,-2.0718,-2.0465,-1.9821,-1.9345,-2.0275,-2.021,-1.9881,-1.9949,-1.9547,-1.8832,-1.7699,-1.6806,-1.5792,-1.4249,-1.2974,-1.1775,-1.0453,-0.9392,-0.8672,-0.8369,-0.7777,-0.7285,-0.7156,0.0,-0.5085,-0.4741,-0.334,-0.202,-0.1041,0.0121,0.1142,0.1984,0.2924,0.3334,0.2932,0.4073,0.4763,0.4875,0.5596,0.6299,0.7,0.7428,0.7501,0.7327,0.8815,0.9764,1.027,1.1834,1.3099,1.4223,1.4623,1.5544,1.6872,1.6872,1.726,1.7776,1.7195,1.6408,1.5489,1.4903,1.4277,1.3779,-2.9063,-2.9804,-3.0538,-3.094,-3.0879,-3.1064,-3.1885,-3.1694,-3.1356,-3.1105,-3.0902,-3.0651,-3.0443,-3.0102,-2.9829,-2.9715,-2.9255,-2.8699,-2.8066,-2.8921,-2.8855,-2.7552,-2.8384,-2.879,-2.8564,-2.8882,-2.8577,-2.7667,-2.6723,-2.6019,-2.5638,-2.6359,-2.6621,-2.6458,-2.7098,-2.6937,-2.6218,-2.6075,-2.54,-2.4442,-2.4468,-2.4268,-2.3971,-2.4135,-2.4089,-2.3888,-2.3461,-2.3197,-2.2938,-2.2468,-2.2285,-2.2142,-2.1621,-2.0772,-1.9754,-1.9142,-1.8934,-1.8934,-1.9185,-1.9355,-1.94,-1.9123,-1.8879,-1.8531,-1.7842,-1.6993,-1.5992,-1.492,-1.3461,-1.2037,-1.0778,-0.9413,-0.8301,-0.7642,-0.7067,0.0,0.0,-0.5526,-0.4875,-0.4331,-0.3191,-0.2034,-0.0863,0.0306,0.1404,0.2443,0.2988,0.3291,0.3265,0.361,0.407,0.4651,0.5929,0.6826,0.7285,0.7757,0.7878,0.7694,0.9056,1.0132,1.0968,1.2185,1.3657,1.5257,1.5649,1.6429,1.7582,1.7787,1.8045,1.8238,1.713,1.6084,1.5033,1.439,1.3669,1.3013,-2.9141,-2.9669,-3.0227,-3.0608,-3.0547,-3.0651,-3.1373,-3.0948,-3.0626,-3.0964,-3.0557,-3.0442,-3.0871,-3.042,-3.0057,-3.0148,-2.9531,-2.9,-2.8441,-2.8671,-2.8507,-2.7751,-2.838,-2.8541,-2.8114,-2.8111,-2.7505,-2.6215,-2.5109,-2.4326,-2.3866,-2.4516,-2.4854,-2.484,-2.5402,-2.5326,-2.4707,-2.4514,-2.3895,-2.3061,-2.3141,-2.3188,-2.3085,-2.301,-2.3216,-2.3441,-2.2877,-2.2488,-2.2151,-2.1877,-2.141,-2.0915,-2.0587,-1.9672,-1.8555,-1.7885,-1.788,-1.8139,-1.8252,-1.858,-1.8724,-1.8364,-1.8354,-1.8343,-1.8041,-1.7164,-1.6127,-1.5268,-1.365,-1.2017,-1.0735,-0.918,-0.7746,-0.6797,0.0,0.0,0.0,-0.4879,-0.4496,-0.3761,-0.2889,-0.184,-0.0491,0.0613,0.1655,0.2639,0.2963,0.3226,0.3554,0.3183,0.3527,0.4732,0.6403,0.7306,0.7519,0.8022,0.8147,0.7933,0.9056,1.0118,1.1106,1.2032,1.3566,1.5505,1.5944,1.6678,1.7711,1.8173,1.8249,1.798,1.6678,1.5463,1.4388,1.3687,1.3046,1.2608,-2.8657,-2.9383,-3.0109,-3.0391,-3.0391,-3.0599,-3.1116,-3.0799,-3.07,-3.1205,-3.0859,-3.0668,-3.0984,-3.0736,-3.0352,-2.9988,-2.9646,-2.9163,-2.8441,-2.8228,-2.7873,-2.7365,-2.7565,-2.7672,-2.7554,-2.6778,-2.6344,-2.6215,-2.4136,-2.3333,-2.3643,-2.3953,-2.3905,-2.3598,-2.3546,-2.2994,-2.208,-2.1178,-2.0915,-2.1065,-2.0947,-2.1524,-2.2534,-2.242,-2.2458,-2.2485,-2.1707,-2.1107,-2.059,-2.0128,-1.957,-1.9199,-1.9713,-1.8468,-1.6831,-1.702,-1.6246,-1.5642,-1.7261,-1.7257,-1.6926,-1.7506,-1.728,-1.6964,-1.7089,-1.6226,-1.5102,-1.4124,-1.2691,-1.1171,-0.9841,-0.8537,-0.7301,-0.6212,0.0,0.0,-0.4488,-0.4395,-0.4069,-0.3145,-0.2435,-0.1509,-0.0181,0.1147,0.1932,0.1995,0.3096,0.35,0.3007,0.3342,0.4123,0.5496,0.657,0.7216,0.7519,0.8113,0.8233,0.7933,0.8628,0.9371,1.0246,1.1043,1.2282,1.3933,1.4697,1.5629,1.6667,1.7335,1.7206,1.6537,1.5434,1.4301,1.3102,1.2277,1.1992,1.2105,-2.8066,-2.8615,-2.9248,-2.9828,-3.0026,-3.0203,-3.027,-3.0404,-3.0541,-3.0608,-3.0606,-3.0758,-3.1139,-3.096,-3.0736,-3.0556,-3.0057,-2.9554,-2.9117,-2.856,-2.8078,-2.7752,-2.7647,-2.7582,-2.7541,-2.6794,-2.5737,-2.4478,-2.3028,-2.2178,-2.1724,-2.1744,-2.1709,-2.165,-2.1434,-2.0968,-2.0241,-1.9633,-1.9617,-1.9887,-1.9726,-2.0521,-2.1676,-2.1263,-2.1545,-2.2131,-2.1318,-2.0934,-2.0753,-2.0168,-1.9612,-1.9083,-1.8726,-1.7803,-1.6669,-1.5731,-1.456,-1.384,-1.4919,-1.5625,-1.6108,-1.6323,-1.6392,-1.6298,-1.5958,-1.5393,-1.4648,-1.338,-1.1845,-1.0364,-0.9071,-0.7631,-0.6291,-0.5355,0.0,-0.4334,-0.3532,-0.3331,-0.2928,-0.2156,-0.1508,-0.0716,0.0181,0.1613,0.2316,0.1903,0.3249,0.3702,0.2813,0.4158,0.5081,0.5279,0.6816,0.7668,0.7633,0.8159,0.8244,0.7933,0.8878,0.962,1.0101,1.0944,1.2004,1.3228,1.3859,1.4519,1.5242,1.5713,1.555,1.4842,1.347,1.2839,1.2649,1.1755,1.2132,1.3059,-2.7744,-2.8235,-2.8717,-2.9335,-2.9452,-2.9456,-2.9536,-2.9721,-2.9864,-3.0033,-3.0193,-3.0442,-3.0892,-3.0826,-3.0691,-3.0487,-3.0057,-2.9667,-2.9385,-2.8751,-2.8285,-2.8098,-2.7751,-2.7536,-2.7562,-2.6528,-2.5109,-2.3411,-2.2131,-2.1216,-2.0604,-2.0473,-2.0424,-2.0498,-2.0034,-1.9484,-1.8835,-1.8163,-1.8158,-1.8599,-1.8528,-1.9375,-2.0637,-2.0256,-2.0629,-2.1267,-2.0726,-2.0287,-1.9935,-1.9456,-1.8841,-1.8184,-1.7618,-1.682,-1.5839,-1.451,-1.3208,-1.2371,-1.294,-1.3707,-1.4519,-1.508,-1.521,-1.5094,-1.4792,-1.4261,-1.3527,-1.2116,-1.0793,-0.9384,-0.7761,-0.648,-0.5313,-0.4172,-0.3731,-0.3269,-0.2517,-0.2351,-0.2122,-0.1416,-0.0837,-0.0235,0.0478,0.1946,0.2688,0.2338,0.3447,0.3885,0.3312,0.487,0.5673,0.5398,0.6955,0.7652,0.7399,0.7939,0.8122,0.7933,0.8823,0.936,0.9607,1.0315,1.1106,1.198,1.2609,1.319,1.3717,1.4244,1.4014,1.3191,1.24,1.2214,1.2458,1.2176,1.2962,1.4276,-2.7804,-2.8249,-2.8794,-2.9026,-2.856,-2.8364,-2.9137,-2.8703,-2.863,-2.9661,-2.9591,-2.9669,-3.017,-3.0216,-2.9988,-2.9531,-2.9485,-2.9385,-2.9111,-2.8555,-2.8265,-2.8286,-2.7654,-2.7373,-2.7505,-2.5652,-2.4278,-2.3364,-2.145,-2.0526,-2.0604,-2.0473,-2.044,-2.0462,-1.9428,-1.8599,-1.7881,-1.6478,-1.6334,-1.7127,-1.7127,-1.7992,-1.9316,-1.957,-1.9708,-1.9732,-1.9676,-1.8917,-1.7854,-1.7588,-1.6863,-1.616,-1.6399,-1.5402,-1.4033,-1.3384,-1.2158,-1.1229,-1.1643,-1.1682,-1.2055,-1.3886,-1.3777,-1.3295,-1.3609,-1.2757,-1.1511,-1.0254,-0.9388,-0.817,-0.5808,-0.5124,-0.4351,-0.2774,-0.253,-0.2324,-0.1502,-0.1748,-0.1758,-0.1047,-0.0711,-0.0116,0.0823,0.2087,0.2928,0.316,0.3793,0.4221,0.4484,0.5398,0.5904,0.597,0.6826,0.7164,0.6801,0.7509,0.7872,0.7872,0.8244,0.8372,0.8433,0.8877,0.9381,0.9882,1.0897,1.1622,1.2153,1.3191,1.2733,1.1588,1.2416,1.2574,1.2429,1.3485,1.4588,1.5556,-2.7035,-2.7338,-2.7655,-2.776,-2.7767,-2.7525,-2.6816,-2.7003,-2.7362,-2.7666,-2.7993,-2.8631,-2.9874,-2.9806,-2.9806,-2.9988,-2.9531,-2.8912,-2.8161,-2.7193,-2.6687,-2.6831,-2.7111,-2.7229,-2.7021,-2.57,-2.424,-2.269,-2.1337,-2.069,-2.0752,-2.0049,-1.9853,-1.9879,-1.8972,-1.8029,-1.7086,-1.6245,-1.6285,-1.6864,-1.6864,-1.7724,-1.8907,-1.864,-1.8844,-1.93,-1.871,-1.8387,-1.8168,-1.7918,-1.7326,-1.661,-1.5747,-1.4759,-1.3596,-1.2133,-1.1414,-1.0909,-1.0428,-1.0584,-1.1228,-1.2603,-1.294,-1.2855,-1.2674,-1.2188,-1.1384,-1.0099,-0.8581,-0.6975,-0.5294,-0.3797,-0.2553,-0.1798,-0.1306,-0.0942,-0.0722,-0.0657,-0.0419,0.0,0.0469,0.0971,0.1469,0.2813,0.3613,0.35,0.4233,0.4785,0.5094,0.5786,0.6039,0.5718,0.6594,0.6931,0.6541,0.717,0.7488,0.7566,0.8122,0.8372,0.8433,0.8809,0.9081,0.9249,0.9761,1.0075,1.0328,1.0709,1.0325,0.9646,1.0602,1.1287,1.1849,1.3021,1.434,1.5573,-2.675,-2.6731,-2.676,-2.6532,-2.6555,-2.6167,-2.4979,-2.5427,-2.6075,-2.658,-2.7037,-2.7861,-2.9416,-2.9531,-2.9485,-2.9485,-2.8885,-2.8179,-2.7476,-2.6539,-2.5931,-2.5664,-2.6113,-2.6302,-2.6222,-2.517,-2.401,-2.2739,-2.1652,-2.1042,-2.0915,-2.0079,-1.9783,-1.9813,-1.8716,-1.7862,-1.7214,-1.6418,-1.6421,-1.6938,-1.6786,-1.7373,-1.8265,-1.7875,-1.8115,-1.8649,-1.8023,-1.7838,-1.7748,-1.7641,-1.7059,-1.6301,-1.5531,-1.4341,-1.2958,-1.1717,-1.0665,-0.9877,-0.9578,-0.9498,-0.9829,-1.0966,-1.151,-1.1751,-1.1441,-1.097,-1.0215,-0.901,-0.7529,-0.5982,-0.4299,-0.2798,-0.1546,-0.0674,-0.0348,-0.012,-0.0061,0.012,0.03,0.0677,0.1181,0.1729,0.2175,0.3334,0.412,0.4316,0.4815,0.5318,0.5704,0.6023,0.61,0.5933,0.639,0.6487,0.6163,0.7005,0.7391,0.7204,0.7755,0.8,0.8005,0.8437,0.8648,0.8706,0.8986,0.9184,0.9297,0.9934,0.9869,0.9543,1.1068,1.1659,1.1851,1.3071,1.3932,1.453,-2.6745,-2.6408,-2.5961,-2.5478,-2.5233,-2.4702,-2.3561,-2.4067,-2.4914,-2.6088,-2.6539,-2.7321,-2.8885,-2.9209,-2.9071,-2.833,-2.7683,-2.7191,-2.6865,-2.6275,-2.5542,-2.4703,-2.4657,-2.4773,-2.5052,-2.4275,-2.3643,-2.3116,-2.2085,-2.1445,-2.1213,-2.0416,-2.007,-2.0019,-1.8694,-1.8039,-1.7946,-1.6823,-1.666,-1.7154,-1.6794,-1.7016,-1.7503,-1.7231,-1.7474,-1.7849,-1.7605,-1.7254,-1.6891,-1.6918,-1.6355,-1.5661,-1.5542,-1.4203,-1.2487,-1.1747,-1.0146,-0.8617,-0.8835,-0.8425,-0.8137,-0.9078,-0.9665,-0.9985,-1.007,-0.9389,-0.8399,-0.7292,-0.6272,-0.5004,-0.3067,-0.2014,-0.1041,0.0353,0.0359,0.0243,0.0493,0.0548,0.0728,0.1046,0.1621,0.2239,0.2825,0.3709,0.4619,0.5446,0.5549,0.5828,0.6335,0.6214,0.6217,0.6393,0.6255,0.6059,0.5794,0.7045,0.7462,0.7021,0.7327,0.7572,0.7633,0.8008,0.8317,0.8428,0.8829,0.9027,0.9258,1.0572,1.089,1.0767,1.2882,1.3054,1.2239,1.3326,1.3382,1.2882,-2.6131,-2.5875,-2.5579,-2.5205,-2.5149,-2.456,-2.2942,-2.3922,-2.4805,-2.4827,-2.5818,-2.7078,-2.8395,-2.8254,-2.7823,-2.7323,-2.6198,-2.5472,-2.5369,-2.4355,-2.3693,-2.3462,-2.2751,-2.2694,-2.3436,-2.3544,-2.3268,-2.2665,-2.1926,-2.1495,-2.1255,-2.0628,-2.0222,-2.0086,-1.9066,-1.8391,-1.796,-1.7036,-1.6844,-1.7154,-1.6626,-1.6756,-1.7239,-1.6906,-1.685,-1.6888,-1.6912,-1.661,-1.6283,-1.6281,-1.6161,-1.5839,-1.5056,-1.4183,-1.3053,-1.1038,-1.0158,-0.9553,-0.7884,-0.7777,-0.7935,-0.7445,-0.7446,-0.7816,-0.8829,-0.8291,-0.7419,-0.66,-0.5266,-0.3948,-0.2761,-0.1053,0.0176,0.0118,0.0965,0.129,0.0617,0.0975,0.139,0.1698,0.2503,0.318,0.3533,0.481,0.5728,0.6162,0.6616,0.6956,0.7069,0.6897,0.6764,0.661,0.6872,0.6635,0.5888,0.6921,0.754,0.7689,0.8244,0.8787,0.9281,0.9099,0.9475,1.0276,1.0897,1.1084,1.107,1.1723,1.157,1.1012,1.1891,1.2114,1.1931,1.2605,1.2708,1.2314,-2.582,-2.5095,-2.4226,-2.3604,-2.3351,-2.2825,-2.1538,-2.2501,-2.3701,-2.4553,-2.5402,-2.6456,-2.7878,-2.762,-2.7149,-2.6527,-2.5371,-2.4571,-2.4395,-2.3379,-2.2706,-2.2618,-2.196,-2.1887,-2.2499,-2.254,-2.2536,-2.2485,-2.1795,-2.1392,-2.1267,-2.0464,-2.0072,-2.0086,-1.9034,-1.839,-1.7939,-1.7264,-1.6951,-1.6938,-1.6468,-1.6516,-1.6709,-1.6406,-1.652,-1.6833,-1.6677,-1.6677,-1.6726,-1.6371,-1.6194,-1.5957,-1.5116,-1.4024,-1.2794,-1.1035,-0.9895,-0.8966,-0.7707,-0.728,-0.7082,-0.6744,-0.635,-0.6246,-0.6825,-0.6493,-0.5781,-0.4909,-0.3815,-0.2758,-0.193,-0.0602,0.0361,0.0482,0.0916,0.1172,0.0803,0.1042,0.1464,0.2135,0.2784,0.3482,0.4231,0.5067,0.5758,0.6209,0.6671,0.7017,0.7138,0.713,0.704,0.6916,0.6844,0.6658,0.6407,0.7199,0.7811,0.8111,0.8116,0.8482,0.9092,0.8875,0.9064,0.964,1.0572,1.0923,1.1047,1.225,1.2235,1.1504,1.2447,1.2289,1.1541,1.1965,1.1859,1.1507,-2.5033,-2.3899,-2.2669,-2.1743,-2.1387,-2.0979,-2.0122,-2.1183,-2.2634,-2.4307,-2.5129,-2.6022,-2.7336,-2.7002,-2.6378,-2.5638,-2.4585,-2.377,-2.3403,-2.2612,-2.2087,-2.1865,-2.1453,-2.141,-2.1817,-2.147,-2.1644,-2.2384,-2.1725,-2.1318,-2.113,-2.0241,-1.9879,-1.9931,-1.8893,-1.8213,-1.7911,-1.7331,-1.6961,-1.6577,-1.6271,-1.6164,-1.6135,-1.5868,-1.6162,-1.6777,-1.6499,-1.675,-1.7067,-1.6596,-1.6183,-1.5817,-1.5294,-1.3976,-1.2469,-1.1425,-0.9835,-0.8299,-0.7823,-0.6992,-0.623,-0.6155,-0.5633,-0.5011,-0.4527,-0.4422,-0.4143,-0.3156,-0.2391,-0.169,-0.105,-0.0308,0.0309,0.0803,0.0803,0.0741,0.105,0.1111,0.1541,0.2459,0.2948,0.3671,0.4784,0.5068,0.5474,0.6138,0.649,0.6847,0.7082,0.7184,0.7245,0.7245,0.679,0.6653,0.6903,0.7566,0.8111,0.8477,0.7872,0.7994,0.8726,0.8516,0.8517,0.8875,0.9935,1.053,1.0969,1.2553,1.2816,1.2223,1.3087,1.2626,1.1417,1.1518,1.1291,1.1009,-2.2362,-2.1878,-2.1438,-2.1081,-2.0979,-2.0688,-1.9879,-2.1844,-2.3367,-2.3132,-2.4963,-2.6496,-2.6955,-2.5511,-2.4477,-2.4326,-2.2975,-2.1949,-2.1742,-2.1374,-2.1087,-2.0817,-2.0389,-2.0332,-2.078,-2.0508,-2.0851,-2.1827,-2.1725,-2.1267,-2.0617,-2.0462,-2.005,-1.9376,-1.8684,-1.8108,-1.7635,-1.7001,-1.663,-1.6324,-1.5803,-1.563,-1.5618,-1.5547,-1.5514,-1.5581,-1.575,-1.5849,-1.5898,-1.6076,-1.572,-1.5235,-1.5116,-1.4381,-1.3251,-1.182,-1.0771,-0.9571,-0.7766,-0.7099,-0.6528,-0.4632,-0.4399,-0.4073,-0.2156,-0.2499,-0.3051,-0.2391,-0.1686,-0.1052,-0.0617,0.0247,0.0803,0.0617,0.0987,0.1357,0.142,0.1666,0.2087,0.2786,0.3625,0.4431,0.5215,0.5501,0.5868,0.6538,0.6956,0.7254,0.7557,0.7488,0.7362,0.7362,0.7317,0.7143,0.6903,0.7566,0.8172,0.8714,0.8421,0.8915,1.0011,0.9731,1.0179,1.1355,1.1793,1.2529,1.335,1.3013,1.3144,1.3481,1.2099,1.1843,1.2084,1.172,1.1618,1.1672,-2.1627,-2.0877,-2.0277,-1.9797,-1.9346,-1.9086,-1.919,-2.0708,-2.2198,-2.3167,-2.4786,-2.5915,-2.6107,-2.4644,-2.3438,-2.3,-2.2144,-2.1518,-2.1195,-2.1119,-2.1014,-2.0738,-2.0634,-2.0491,-2.0195,-2.0303,-2.0354,-2.0344,-2.0652,-2.0601,-2.0241,-1.9791,-1.9494,-1.9272,-1.837,-1.774,-1.7331,-1.6749,-1.6217,-1.5856,-1.5589,-1.5202,-1.4773,-1.4918,-1.5088,-1.549,-1.639,-1.646,-1.6124,-1.6253,-1.5887,-1.5294,-1.4948,-1.4084,-1.2994,-1.1745,-1.0582,-0.9355,-0.7877,-0.6936,-0.595,-0.449,-0.3796,-0.3115,-0.1798,-0.1544,-0.1499,-0.1247,-0.0811,-0.0437,-0.0495,0.0,0.037,0.0247,0.0617,0.0987,0.1173,0.1666,0.2337,0.3117,0.3937,0.4621,0.504,0.5578,0.6085,0.6432,0.6974,0.7372,0.7498,0.7789,0.7939,0.7939,0.7933,0.7872,0.776,0.8055,0.8233,0.8294,0.8543,0.9159,1.0011,0.9617,0.9747,1.0467,1.1272,1.1949,1.2429,1.2684,1.2618,1.2363,1.1975,1.1914,1.2149,1.2136,1.2194,1.2195]},{"header":{"parameterUnit":"m.s-1","parameterCategory":1,"la1":30.6,"la2":28.766,"lo1":-90.7593,"lo2":-88.6598,"dy":0.0162,"dx":0.0183,"nx":116,"ny":114,"refTime":"2023-08-23T12:00:00:Z","depth":0,"parameterNumber":3,"parameterNumberName":"V-component_of_WINDS"},"data":[0.0,0.0,0.0,0.0,0.0,0.0,0.0,0.0,0.0,0.0,0.0,0.0,0.0,0.0,0.0,0.0,0.0,0.0,0.0,0.0,0.0,0.0,0.0,0.0,0.0,0.0,0.0,0.0,0.0,0.0,0.0,0.0,0.0,0.0,0.0,0.0,0.0,0.0,0.0,0.0,0.0,0.0,0.0,0.0,0.0,0.0,0.0,0.0,0.0,0.0,0.0,0.0,0.0,0.0,0.0,0.0,0.0,0.0,0.0,0.0,0.0,0.0,0.0,0.0,0.0,0.0,0.0,0.0,0.0,0.0,0.0,0.0,0.0,0.0,0.0,0.0,0.0,0.0,0.0,0.0,0.0,0.0,0.0,0.0,0.0,0.0,0.0,0.0,0.0,0.0,0.0,0.0,0.0,0.0,0.0,0.0,0.0,0.0,0.0,0.0,0.0,0.0,0.0,0.0,0.0,0.0,0.0,0.0,0.0,0.0,0.0,0.0,0.0,0.0,0.0,0.0,0.0,0.0,0.0,0.0,0.0,0.0,0.0,0.0,0.0,0.0,0.0,0.0,0.0,0.0,0.0,0.0,0.0,0.0,0.0,0.0,0.0,0.0,0.0,0.0,0.0,0.0,0.0,0.0,0.0,0.0,0.0,0.0,0.0,0.0,0.0,0.0,0.0,0.0,0.0,0.0,0.0,0.0,0.0,0.0,0.0,0.0,0.0,0.0,0.0,0.0,0.0,0.0,0.0,0.0,0.0,0.0,0.0,0.0,0.0,0.0,0.0,0.0,0.0,0.0,0.0,0.0,0.0,0.0,0.0,0.0,0.0,0.0,0.0,0.0,0.0,0.0,0.0,0.0,0.0,0.0,0.0,0.0,0.0,0.0,0.0,0.0,0.0,0.0,0.0,0.0,0.0,0.0,0.0,0.0,0.0,0.0,0.0,0.0,0.0,0.0,0.0,0.0,0.0,0.0,0.0,0.0,0.0,0.0,0.0,0.0,0.0,0.0,0.0,0.0,0.0,0.0,0.0,0.0,0.0,0.0,0.0,0.0,0.0,0.0,0.0,0.0,0.0,0.0,0.0,0.0,0.0,0.0,0.0,0.0,0.0,0.0,0.0,0.0,0.0,0.0,0.0,0.0,0.0,0.0,0.0,0.0,0.0,0.0,0.0,0.0,0.0,0.0,0.0,0.0,0.0,0.0,0.0,0.0,0.0,0.0,0.0,0.0,0.0,0.0,0.0,0.0,0.0,0.0,0.0,0.0,0.0,0.0,0.0,0.0,0.0,0.0,0.0,0.0,0.0,0.0,0.0,0.0,0.0,0.0,0.0,0.0,0.0,0.0,0.0,0.0,0.0,0.0,0.0,0.0,0.0,0.0,0.0,0.0,0.0,0.0,0.0,0.0,0.0,0.0,0.0,0.0,0.0,0.0,0.0,0.0,0.0,0.0,0.0,0.0,0.0,0.0,0.0,0.0,0.0,0.0,0.0,0.0,0.0,0.0,0.0,0.0,0.0,0.0,0.0,0.0,0.0,0.0,0.0,0.0,0.0,0.0,0.0,0.0,0.0,0.0,0.0,0.0,0.0,0.0,0.0,0.0,0.0,0.0,0.0,0.0,0.0,0.0,0.0,0.0,0.0,0.0,0.0,0.0,0.0,0.0,0.0,0.0,0.0,0.0,0.0,0.0,0.0,0.0,0.0,0.0,0.0,0.0,0.0,0.0,0.0,0.0,0.0,0.0,0.0,0.0,0.0,0.0,0.0,0.0,0.0,0.0,0.0,0.0,0.0,0.0,0.0,0.0,0.0,0.0,0.0,0.0,0.0,0.0,0.0,0.0,0.0,0.0,0.0,0.0,0.0,0.0,0.0,0.0,0.0,0.0,0.0,0.0,0.0,0.0,0.0,0.0,0.0,0.0,0.0,0.0,0.0,0.0,0.0,0.0,0.0,0.0,0.0,0.0,0.0,0.0,0.0,0.0,0.0,0.0,0.0,0.0,0.0,0.0,0.0,0.0,0.0,0.0,0.0,0.0,0.0,0.0,0.0,0.0,0.0,0.0,0.0,0.0,0.0,0.0,0.0,0.0,0.0,0.0,0.0,0.0,0.0,0.0,0.0,0.0,0.0,0.0,0.0,0.0,0.0,0.0,0.0,0.0,0.0,0.0,0.0,0.0,0.0,0.0,0.0,0.0,0.0,0.0,0.0,0.0,0.0,0.0,0.0,0.0,0.0,0.0,0.0,0.0,0.0,0.0,0.0,0.0,0.0,0.0,0.0,0.0,0.0,0.0,0.0,0.0,0.0,0.0,0.0,0.0,0.0,0.0,0.0,0.0,0.0,0.0,0.0,0.0,0.0,0.0,0.0,0.0,0.0,0.0,0.0,0.0,0.0,0.0,0.0,0.0,0.0,0.0,0.0,0.0,0.0,0.0,0.0,0.0,0.0,0.0,0.0,0.0,0.0,0.0,0.0,0.0,0.0,0.0,0.0,0.0,0.0,0.0,0.0,0.0,0.0,0.0,0.0,0.0,0.0,0.0,0.0,0.0,0.0,0.0,0.0,0.0,0.0,0.0,0.0,0.0,0.0,0.0,0.0,0.0,0.0,0.0,0.0,0.0,0.0,0.0,0.0,0.0,0.0,0.0,0.0,0.0,0.0,0.0,0.0,0.0,0.0,0.0,0.0,0.0,0.0,0.0,0.0,0.0,0.0,0.0,0.0,0.0,0.0,0.0,0.0,0.0,0.0,0.0,0.0,0.0,0.0,0.0,0.0,0.0,0.0,0.0,0.0,0.0,0.0,0.0,0.0,0.0,0.0,0.0,0.0,0.0,0.0,0.0,0.0,0.0,0.0,0.0,0.0,0.0,0.0,0.0,0.0,0.0,0.0,0.0,0.0,0.0,0.0,0.0,0.0,0.0,0.0,0.0,0.0,0.0,0.0,0.0,0.0,0.0,0.0,0.0,0.0,0.0,0.0,0.0,0.0,0.0,0.0,0.0,0.0,0.0,0.0,0.0,0.0,0.0,0.0,0.0,0.0,0.0,0.0,0.0,0.0,0.0,0.0,0.0,0.0,0.0,0.0,0.0,0.0,0.0,0.0,0.0,0.0,0.0,0.0,0.0,0.0,0.0,0.0,0.0,0.0,0.0,0.0,0.0,0.0,0.0,0.0,0.0,0.0,0.0,0.0,0.0,0.0,0.0,0.0,0.0,0.0,0.0,0.0,0.0,0.0,0.0,0.0,0.0,0.0,0.0,0.0,0.0,0.0,0.0,0.0,0.0,0.0,0.0,0.0,0.0,0.0,0.0,0.0,0.0,0.0,0.0,0.0,0.0,0.0,0.0,0.0,0.0,0.0,0.0,0.0,0.0,0.0,0.0,0.0,0.0,0.0,0.0,0.0,0.0,0.0,0.0,0.0,0.0,0.0,0.0,0.0,0.0,0.0,0.0,0.0,0.0,0.0,0.0,0.0,0.0,0.0,0.0,0.0,0.0,0.0,0.0,0.0,0.0,0.0,0.0,0.0,0.0,0.0,0.0,0.0,0.0,0.0,0.0,0.0,0.0,0.0,0.0,0.0,0.0,0.0,0.0,0.0,0.0,0.0,0.0,0.0,0.0,0.0,0.0,0.0,0.0,0.0,0.0,0.0,0.0,0.0,0.0,0.0,0.0,0.0,0.0,0.0,0.0,0.0,0.0,0.0,0.0,0.0,0.0,0.0,0.0,0.0,0.0,0.0,0.0,0.0,0.0,0.0,0.0,0.0,0.0,0.0,0.0,0.0,0.0,0.0,0.0,0.0,0.0,0.0,0.0,0.0,0.0,0.0,0.0,0.0,0.0,0.0,0.0,0.0,0.0,0.0,0.0,0.0,0.0,0.0,0.0,0.0,0.0,0.0,0.0,0.0,0.0,0.0,0.0,0.0,0.0,0.0,0.0,0.0,0.0,0.0,0.0,0.0,0.0,0.0,0.0,0.0,0.0,0.0,0.0,0.0,0.0,0.0,0.0,0.0,0.0,0.0,0.0,0.0,0.0,0.0,0.0,0.0,0.0,0.0,0.0,0.0,0.0,0.0,0.0,0.0,0.0,0.0,0.0,0.0,0.0,0.0,0.0,0.0,0.0,0.0,0.0,0.0,0.0,0.0,0.0,0.0,0.0,0.0,0.0,0.0,0.0,0.0,0.0,0.0,0.0,0.0,0.0,0.0,0.0,0.0,0.0,0.0,0.0,0.0,0.0,0.0,0.0,0.0,0.0,0.0,0.0,0.0,0.0,0.0,0.0,0.0,0.0,0.0,0.0,0.0,0.0,0.0,0.0,0.0,0.0,0.0,0.0,0.0,0.0,0.0,0.0,0.0,0.0,0.0,0.0,0.0,0.0,0.0,0.0,0.0,0.0,0.0,0.0,0.0,0.0,0.0,0.0,0.0,0.0,0.0,0.0,0.0,0.0,0.0,0.0,0.0,0.0,0.0,0.0,0.0,0.0,0.0,0.0,0.0,0.0,0.0,0.0,0.0,0.0,0.0,0.0,0.0,0.0,0.0,0.0,0.0,0.0,0.0,0.0,0.0,0.0,0.0,0.0,0.0,0.0,0.0,0.0,0.0,0.0,0.0,0.0,0.0,0.0,0.0,0.0,0.0,0.0,0.0,0.0,0.0,0.0,0.0,0.0,0.0,0.0,0.0,0.0,0.0,0.0,0.0,0.0,0.0,0.0,0.0,0.0,0.0,0.0,0.0,0.0,0.0,0.0,0.0,0.0,0.0,0.0,0.0,0.0,0.0,0.0,0.0,0.0,0.0,0.0,0.0,0.0,0.0,0.0,0.0,0.0,0.0,0.0,0.0,0.0,0.0,0.0,0.0,0.0,0.0,0.0,0.0,0.0,0.0,0.0,0.0,0.0,0.0,0.0,0.0,0.0,0.0,0.0,0.0,0.0,0.0,0.0,0.0,0.0,0.0,0.0,0.0,0.0,0.0,0.0,0.0,0.0,0.0,0.0,0.0,0.0,0.0,0.0,0.0,0.0,0.0,0.0,0.0,0.0,0.0,0.0,0.0,0.0,0.0,0.0,0.0,0.0,0.0,0.0,0.0,0.0,0.0,0.0,0.0,0.0,0.0,0.0,0.0,0.0,0.0,0.0,0.0,0.0,0.0,0.0,0.0,0.0,0.0,0.0,0.0,0.0,0.0,0.0,0.0,0.0,0.0,0.0,0.0,0.0,0.0,0.0,0.0,0.0,0.0,0.0,0.0,0.0,0.0,0.0,0.0,0.0,0.0,0.0,0.0,0.0,0.0,0.0,0.0,0.0,0.0,0.0,0.0,0.0,0.0,0.0,0.0,0.0,0.0,0.0,0.0,0.0,0.0,0.0,0.0,0.0,0.0,0.0,0.0,0.0,0.0,0.0,0.0,0.0,0.0,0.0,0.0,0.0,0.0,0.0,0.0,0.0,0.0,0.0,0.0,0.0,0.0,0.0,0.0,0.0,0.0,0.0,0.0,0.0,0.0,0.0,0.0,0.0,0.0,0.0,0.0,0.0,0.0,0.0,0.0,0.0,0.0,0.0,0.0,0.0,0.0,0.0,0.0,0.0,0.0,0.0,0.0,0.0,0.0,0.0,0.0,0.0,0.0,0.0,0.0,0.0,0.0,0.0,0.0,0.0,0.0,0.0,0.0,0.0,0.0,0.0,0.0,0.0,0.0,0.0,0.0,0.0,0.0,0.0,0.0,0.0,0.0,0.0,0.0,0.0,0.0,0.0,0.0,0.0,0.0,0.0,0.0,0.0,0.0,0.0,0.0,0.0,0.0,0.0,0.0,0.0,0.0,0.0,0.0,0.0,0.0,0.0,0.0,0.0,0.0,0.0,0.0,0.0,0.0,0.0,0.0,0.0,0.0,0.0,0.0,0.0,0.0,0.0,0.0,0.0,0.0,0.0,0.0,0.0,0.0,0.0,0.0,0.0,0.0,0.0,0.0,0.0,0.0,0.0,0.0,0.0,0.0,0.0,0.0,0.0,0.0,0.0,0.0,0.0,0.0,0.0,0.0,0.0,0.0,0.0,0.0,0.0,0.0,0.0,0.0,0.0,0.0,0.0,0.0,0.0,2.1844,0.0,0.0,0.0,0.0,0.0,0.0,0.0,0.0,0.0,0.0,0.0,0.0,0.0,0.0,0.0,0.0,0.0,0.0,0.0,0.0,0.0,0.0,0.0,0.0,0.0,0.0,0.0,0.0,0.0,0.0,0.0,0.0,0.0,0.0,0.0,0.0,0.0,0.0,2.629,2.5168,2.4067,2.294,2.1191,1.9141,1.6942,0.0,0.0,0.0,0.0,0.0,0.0,0.0,0.0,0.0,0.0,0.0,0.0,0.0,0.0,0.0,0.0,0.0,0.0,0.0,0.0,0.0,0.0,0.0,0.0,0.0,0.0,0.0,0.0,0.0,0.0,0.0,0.0,0.0,0.0,0.0,0.0,0.0,0.0,0.0,0.0,0.0,0.0,0.0,0.0,0.0,0.0,0.0,0.0,0.0,0.0,0.0,0.0,0.0,0.0,0.0,0.0,0.0,0.0,0.0,0.0,0.0,0.0,0.0,0.0,0.0,0.0,0.0,0.0,0.0,0.0,0.0,2.2125,0.0,0.0,0.0,0.0,0.0,0.0,0.0,0.0,0.0,0.0,0.0,0.0,0.0,0.0,0.0,0.0,0.0,0.0,0.0,0.0,0.0,0.0,0.0,0.0,3.0048,3.0712,3.0293,3.0325,0.0,0.0,0.0,0.0,0.0,0.0,0.0,2.9612,2.9039,2.7287,2.678,2.5747,2.4361,2.3606,2.1797,1.9225,1.871,0.0,0.0,0.0,0.0,0.0,0.0,0.0,0.0,0.0,0.0,0.0,0.0,0.0,0.0,0.0,0.0,0.0,0.0,0.0,0.0,0.0,0.0,0.0,0.0,0.0,0.0,0.0,0.0,0.0,0.0,0.0,0.0,0.0,0.0,0.0,0.0,0.0,0.0,0.0,0.0,0.0,0.0,0.0,0.0,0.0,0.0,0.0,0.0,0.0,0.0,0.0,0.0,0.0,0.0,0.0,0.0,0.0,0.0,0.0,0.0,0.0,0.0,0.0,2.8633,2.8714,2.8501,2.8562,2.8105,2.7198,2.5275,2.41,2.3389,0.0,0.0,0.0,0.0,0.0,0.0,0.0,0.0,0.0,0.0,0.0,0.0,0.0,0.0,0.0,0.0,0.0,0.0,0.0,0.0,0.0,0.0,3.0765,3.0709,3.1351,3.0947,3.101,0.0,0.0,0.0,0.0,0.0,0.0,3.0626,2.9874,2.913,2.8487,2.7434,2.6651,2.6149,2.585,2.5328,2.4506,2.2217,2.1105,2.0813,0.0,0.0,0.0,0.0,0.0,0.0,0.0,0.0,0.0,0.0,0.0,0.0,0.0,0.0,0.0,0.0,0.0,0.0,0.0,0.0,0.0,0.0,0.0,0.0,0.0,0.0,0.0,0.0,0.0,0.0,0.0,0.0,0.0,0.0,0.0,0.0,0.0,0.0,0.0,0.0,0.0,2.6866,2.7524,0.0,0.0,0.0,0.0,0.0,0.0,0.0,0.0,0.0,0.0,0.0,0.0,0.0,0.0,2.8699,2.9021,2.9003,2.8799,2.9466,2.9601,2.9177,2.957,2.8972,2.7554,2.7819,0.0,2.4517,2.4562,0.0,0.0,0.0,0.0,0.0,0.0,0.0,0.0,0.0,0.0,0.0,0.0,0.0,0.0,0.0,0.0,0.0,0.0,0.0,0.0,0.0,3.1871,3.19,3.2457,3.222,3.2221,3.2701,3.2638,0.0,0.0,0.0,3.2573,3.1382,3.1573,3.105,2.9759,2.9618,2.9242,2.8633,2.8727,2.8833,2.8883,2.6769,2.4631,2.2519,2.152,0.0,0.0,0.0,0.0,0.0,0.0,0.0,0.0,0.0,0.0,0.0,0.0,0.0,0.0,0.0,0.0,0.0,0.0,0.0,0.0,0.0,0.0,0.0,0.0,0.0,0.0,0.0,0.0,0.0,0.0,0.0,0.0,0.0,0.0,0.0,0.0,0.0,0.0,0.0,2.8491,2.8207,2.874,2.907,2.9506,0.0,0.0,0.0,0.0,0.0,0.0,0.0,0.0,0.0,3.0997,3.0504,3.0185,3.0109,3.0116,3.0149,3.0179,3.0359,3.0514,3.0611,3.0669,2.9986,2.8859,2.9444,2.8558,2.6722,2.6194,2.5756,2.5396,0.0,0.0,0.0,0.0,0.0,2.6282,0.0,0.0,0.0,0.0,0.0,0.0,0.0,0.0,0.0,0.0,0.0,0.0,3.3117,3.2882,3.2916,3.3602,3.3328,3.3237,3.36,3.3444,0.0,3.3382,3.4016,3.3728,3.2205,3.2953,3.2767,3.1516,3.1739,3.1693,3.1372,3.1437,3.1772,3.2206,3.079,2.821,2.4886,2.3824,2.2991,2.2354,0.0,0.0,0.0,0.0,0.0,0.0,0.0,0.0,0.0,0.0,0.0,0.0,0.0,0.0,0.0,0.0,0.0,0.0,0.0,0.0,0.0,0.0,0.0,0.0,0.0,0.0,0.0,0.0,0.0,0.0,0.0,0.0,0.0,0.0,0.0,0.0,0.0,2.9616,2.9504,2.9864,2.9908,3.022,0.0,0.0,0.0,0.0,0.0,0.0,3.2249,3.1963,3.178,3.1706,3.1384,3.1258,3.1424,3.1219,3.1167,3.1322,3.1292,3.133,3.1505,3.1404,3.083,2.9916,3.0286,2.9763,2.8606,2.7717,2.7323,2.7299,2.6732,2.67,2.6994,2.7172,2.759,2.8202,0.0,0.0,0.0,0.0,0.0,0.0,0.0,0.0,0.0,0.0,0.0,3.3773,3.443,3.3712,3.3573,3.4542,3.3937,3.3755,3.4414,3.4694,3.4755,3.4412,3.4785,3.4506,3.3524,3.3152,3.331,3.4032,3.3182,3.325,3.4259,3.3659,3.3601,3.4041,3.3501,3.1714,2.8936,2.6615,2.5764,2.5793,2.3859,0.0,0.0,0.0,0.0,0.0,0.0,0.0,0.0,0.0,0.0,0.0,0.0,0.0,0.0,0.0,0.0,0.0,0.0,0.0,0.0,0.0,0.0,0.0,0.0,0.0,0.0,0.0,0.0,0.0,0.0,0.0,0.0,0.0,0.0,0.0,0.0,0.0,0.0,3.0169,3.0396,0.0,0.0,0.0,0.0,3.2136,3.2135,3.2273,3.2469,3.2199,3.2302,3.2773,3.2246,3.1942,3.1964,3.1964,3.1834,3.1578,3.2139,3.1995,3.1302,3.155,3.1113,3.0175,3.0197,2.9907,2.9438,2.9368,2.8948,2.8387,2.8768,2.841,2.7744,2.8464,2.883,2.9196,0.0,0.0,0.0,0.0,0.0,0.0,0.0,0.0,3.7229,3.6578,3.6125,3.6013,3.6424,3.5911,3.5763,3.6379,3.6104,3.5982,3.6229,3.6229,3.6229,3.6229,3.6138,3.5949,3.5603,3.5242,3.527,3.5739,3.5783,3.5844,3.5843,3.5859,3.625,3.683,3.588,3.5097,3.4287,3.1124,2.9167,2.8121,2.6967,2.6309,0.0,0.0,0.0,0.0,0.0,0.0,0.0,0.0,0.0,0.0,0.0,0.0,0.0,0.0,0.0,0.0,0.0,0.0,0.0,0.0,0.0,0.0,0.0,0.0,0.0,0.0,0.0,0.0,0.0,0.0,0.0,0.0,0.0,0.0,0.0,0.0,0.0,3.1634,3.192,0.0,3.2578,3.3191,3.3432,3.3149,3.3408,3.357,3.3536,3.329,3.3135,3.317,3.2768,3.2566,3.2544,3.2493,3.2645,3.2896,3.2946,3.2746,3.2316,3.2195,3.1578,3.067,3.1035,3.081,3.0239,3.0721,3.0307,2.9375,2.9489,2.9556,2.962,3.0197,3.0743,3.1331,0.0,0.0,0.0,0.0,0.0,0.0,0.0,0.0,3.8965,3.8434,3.7908,3.7684,3.7892,3.7508,3.739,3.7732,3.765,3.7533,3.7506,3.7415,3.7385,3.7447,3.7458,3.7437,3.7368,3.729,3.7419,3.7747,3.7847,3.7817,3.7697,3.78,3.8322,3.9178,3.8283,3.8186,3.8564,3.6213,3.3571,3.0928,2.9767,2.903,2.8475,0.0,0.0,0.0,0.0,0.0,0.0,0.0,0.0,0.0,0.0,0.0,0.0,0.0,0.0,0.0,0.0,0.0,0.0,0.0,0.0,0.0,0.0,0.0,0.0,0.0,0.0,0.0,0.0,0.0,0.0,0.0,0.0,0.0,0.0,0.0,3.2623,3.2738,3.3015,3.3355,3.378,3.4167,3.4316,3.4078,3.4291,3.4286,3.4113,3.3939,3.3717,3.3592,3.3392,3.3269,3.3269,3.3269,3.3419,3.3767,3.3595,3.3247,3.2742,3.2551,3.1899,3.0928,3.1321,3.1228,3.0871,3.1449,3.1266,3.0578,3.0464,3.0644,3.1026,3.1516,3.2186,3.3034,0.0,0.0,0.0,0.0,0.0,0.0,0.0,4.0293,3.9954,3.9314,3.8912,3.8757,3.8762,3.843,3.8282,3.852,3.8418,3.8311,3.8173,3.8286,3.823,3.7972,3.8646,3.8971,3.876,3.9154,3.9597,4.0091,3.913,3.9122,3.996,3.9391,3.9787,4.0969,4.0769,4.1017,4.1612,4.1582,3.8926,3.4424,3.2094,3.1639,3.2089,0.0,0.0,0.0,0.0,0.0,0.0,0.0,0.0,0.0,0.0,0.0,0.0,0.0,0.0,0.0,0.0,0.0,0.0,0.0,0.0,0.0,0.0,0.0,0.0,0.0,0.0,0.0,0.0,0.0,0.0,0.0,0.0,0.0,3.2407,3.2978,3.3479,3.3256,3.3567,3.4059,3.4785,3.4599,3.4581,3.4799,3.458,3.4335,3.4162,3.4113,3.4113,3.4113,3.4113,3.4113,3.4113,3.4113,3.4113,3.4113,3.4113,3.3571,3.2536,3.2536,3.1971,3.1029,3.1029,3.1139,3.1339,3.1629,3.1869,3.2021,3.1849,3.1785,3.1829,3.2313,3.3115,3.4197,0.0,0.0,0.0,0.0,0.0,0.0,0.0,4.2356,4.2412,4.1971,4.1517,4.1045,4.0654,4.0291,3.9923,3.9595,3.9447,3.9348,3.9216,3.9242,3.9189,3.8995,3.977,4.0264,4.03,4.0924,4.1455,4.1821,4.1209,4.1107,4.1428,4.1426,4.1969,4.2843,4.305,4.34,4.3814,4.3698,4.2332,3.9929,3.6446,3.5377,3.5444,0.0,0.0,0.0,0.0,0.0,0.0,0.0,0.0,0.0,0.0,0.0,0.0,0.0,0.0,0.0,0.0,0.0,0.0,0.0,0.0,0.0,0.0,0.0,0.0,0.0,0.0,0.0,0.0,0.0,0.0,0.0,0.0,3.4436,3.3663,3.4059,3.4365,3.4275,3.4938,3.5441,3.5637,3.559,3.5496,3.5404,3.5332,3.5235,3.5187,3.4847,3.458,3.458,3.4261,3.4162,3.4335,3.4335,3.4408,3.458,3.4799,3.4342,3.3306,3.3492,3.3001,3.2006,3.2006,3.2113,3.2332,3.2593,3.2828,3.305,3.3058,3.3162,3.3358,3.3994,3.483,3.5701,0.0,0.0,0.0,0.0,0.0,0.0,0.0,4.3752,4.3701,4.3487,4.2978,4.2482,4.1943,4.1573,4.1208,4.0767,4.0601,4.0456,4.0226,4.0136,4.0061,3.9986,4.0773,4.1388,4.1781,4.2406,4.297,4.3492,4.2923,4.2707,4.2862,4.2815,4.3394,4.4492,4.4577,4.5075,4.5782,4.5933,4.5246,4.3739,4.1273,3.9746,3.8608,3.5512,3.5092,3.5942,3.4038,3.3012,3.2673,3.3446,0.0,0.0,0.0,0.0,0.0,0.0,0.0,0.0,0.0,0.0,0.0,0.0,0.0,0.0,0.0,0.0,0.0,0.0,0.0,0.0,0.0,0.0,0.0,0.0,3.521,3.5182,3.4688,3.5029,3.522,3.5041,3.5751,3.6263,3.6263,3.6241,3.6051,3.5764,3.5764,3.5716,3.562,3.5307,3.5138,3.5138,3.4896,3.4799,3.4872,3.4872,3.4969,3.5114,3.504,3.4599,3.3768,3.3686,3.3211,0.0,3.2463,3.2636,3.2921,3.3492,3.3785,0.0,0.0,0.0,0.0,0.0,3.6455,3.6887,0.0,0.0,0.0,0.0,0.0,0.0,0.0,4.4585,4.4285,4.4181,4.3749,4.33,4.285,4.2544,4.22,4.1825,4.1696,4.1486,4.1253,4.1175,4.1093,4.107,4.1877,4.2639,4.3272,4.3726,4.4323,4.5001,4.4282,4.4026,4.4135,4.3772,4.4387,4.5768,4.5746,4.6318,4.744,4.8026,4.755,4.6381,4.5921,4.4204,4.1653,3.9143,3.8624,3.8962,3.7207,3.6136,3.5786,3.695,0.0,0.0,0.0,0.0,0.0,0.0,0.0,0.0,0.0,0.0,0.0,0.0,0.0,0.0,0.0,0.0,0.0,0.0,0.0,0.0,0.0,0.0,0.0,0.0,3.5663,3.5669,3.5426,3.5844,3.6017,3.5531,3.6182,3.6705,3.6756,3.6546,3.6358,3.6146,3.6051,3.5955,3.5764,0.0,0.0,0.0,0.0,3.5498,3.5424,3.5471,3.5471,3.5424,3.5026,3.4533,3.3945,3.3543,3.3069,3.255,3.2766,3.3025,3.3333,3.4341,3.4812,3.4905,3.4899,3.5193,3.5874,3.7655,3.8043,0.0,0.0,0.0,0.0,0.0,0.0,0.0,0.0,4.511,4.4954,4.4773,4.4459,4.4101,4.3622,4.3382,4.3032,4.2485,4.2346,4.2241,4.1994,4.264,4.3017,4.2896,4.4259,4.502,4.4953,4.5464,4.5695,4.5699,4.5066,4.4905,4.5206,4.5329,4.5688,4.6287,4.7223,4.7729,4.7953,4.8951,4.8761,4.7836,4.8163,4.7033,4.4916,4.2368,4.2296,4.3248,4.1343,4.0297,3.9693,3.9099,3.8656,3.8301,3.7929,3.8053,0.0,0.0,0.0,0.0,0.0,0.0,0.0,0.0,0.0,0.0,0.0,0.0,0.0,0.0,0.0,0.0,0.0,0.0,0.0,3.6251,3.6123,3.5858,3.5453,3.6113,3.6471,3.6017,3.6322,3.6733,3.701,3.6781,3.6734,3.6875,3.6546,3.6358,3.6474,3.6146,0.0,3.5263,3.5238,3.4969,3.4569,3.4682,3.4682,3.4569,0.0,0.0,3.3845,3.4211,3.403,3.3471,3.3725,3.3937,3.4241,3.5279,3.6614,3.7896,3.7192,3.7268,3.7979,3.9353,3.9197,3.8367,0.0,0.0,0.0,0.0,0.0,0.0,0.0,4.5389,4.5235,4.5237,4.4935,4.4613,4.4406,4.4123,4.3806,4.3496,4.3279,4.3122,4.3069,4.3705,4.4082,4.4007,4.5108,4.5874,4.6082,4.5823,4.5847,4.6135,4.5634,4.549,4.5705,4.6175,4.671,4.7342,4.7849,4.8223,4.8479,4.8935,4.8876,4.8467,4.8284,4.8033,4.7529,4.5164,4.4899,4.5549,4.3754,4.2779,4.2393,4.2239,4.1761,4.1182,4.1173,4.0935,4.0433,0.0,0.0,0.0,0.0,0.0,0.0,0.0,0.0,0.0,0.0,0.0,0.0,0.0,0.0,3.9187,0.0,0.0,3.777,3.7286,3.6927,3.6495,3.5993,3.6275,3.6524,3.6445,3.6925,3.7306,3.75,3.7248,3.7108,3.7108,3.6875,3.6734,3.6709,3.6222,3.583,3.5579,3.5232,3.5002,3.4836,3.4925,3.4925,3.4836,3.4825,3.459,3.4223,3.416,3.405,3.3894,3.4147,3.4439,3.4824,3.6016,3.7796,3.9713,3.9201,3.9256,3.9668,4.0532,4.0266,3.9545,0.0,0.0,0.0,0.0,0.0,0.0,0.0,4.5642,4.5488,4.5657,4.5332,4.5072,4.512,4.4799,4.4548,4.4444,4.4109,4.3952,4.4013,4.4543,4.4821,4.4787,4.5675,4.6433,4.7003,4.6117,4.5964,4.662,4.6096,4.5879,4.5957,4.6643,4.7341,4.8033,4.8187,4.8493,4.8889,4.8799,4.8741,4.8654,4.79,4.8246,4.8946,4.724,4.6942,4.7285,4.5796,4.5042,4.4815,4.5332,4.4845,4.4102,4.4488,4.3861,4.2719,4.1336,4.0803,0.0,0.0,0.0,0.0,0.0,0.0,0.0,0.0,0.0,4.2119,4.2257,4.1127,4.024,4.0733,3.9877,3.8839,3.8161,3.7693,3.7176,3.6488,3.6402,3.653,3.6732,3.7431,3.788,3.7939,3.7782,3.7551,3.7341,3.7248,3.701,3.6697,3.6218,3.5887,3.5664,3.5251,3.5105,3.5153,3.5285,3.5285,3.5197,3.4908,3.4719,3.4633,3.4228,3.4147,3.4382,3.4695,3.5175,3.5789,3.6989,3.888,4.093,4.0879,4.0993,4.1212,4.1535,4.1216,4.074,0.0,0.0,0.0,0.0,0.0,0.0,0.0,0.0,4.5942,4.5936,4.5829,4.5672,4.5563,4.5369,4.5176,4.4867,4.4575,4.4406,4.442,4.5156,4.5547,4.5492,4.6975,4.7791,4.7799,4.7471,4.7387,4.7445,4.6518,4.6061,4.6111,4.6908,4.7279,4.7371,4.8593,4.9045,4.8837,4.9238,4.915,4.8735,4.8408,4.8132,4.7923,4.7886,4.8559,4.9403,4.8666,4.8244,4.7938,4.718,4.667,4.6207,4.5597,4.5184,4.4601,4.2718,0.0,4.3354,4.1374,4.1692,4.2644,4.3037,4.4024,4.4944,0.0,0.0,4.5023,4.4987,4.3574,4.2264,4.198,4.0901,3.9661,3.8445,3.8082,3.7578,3.6528,3.666,3.6797,3.6645,3.7257,3.7838,3.816,3.8122,3.8122,3.8076,3.7664,3.7226,3.6638,3.6379,3.5756,3.4784,3.4855,3.4702,3.4228,3.4816,3.4941,3.4497,3.5068,3.5083,3.4684,3.5044,3.5223,3.529,3.6033,3.692,3.7924,3.8852,4.0237,4.1881,4.2099,4.2519,4.2951,4.2688,4.2155,4.1479,0.0,0.0,0.0,0.0,0.0,0.0,0.0,0.0,0.0,4.6065,4.5924,4.5852,4.5848,4.5729,4.5534,4.532,4.5178,4.5086,4.5128,4.5746,4.6087,4.6001,4.7618,4.8437,4.8301,4.7782,4.7438,4.7353,4.6928,4.6726,4.6755,4.7987,4.8609,4.8655,4.9131,4.9172,4.8993,4.9021,4.8977,4.8852,4.8194,4.803,4.8102,4.7541,4.7744,4.8243,4.7869,4.7961,0.0,4.7167,4.7028,4.7184,4.6772,4.6215,4.5464,4.404,4.4072,0.0,4.4107,4.4365,0.0,0.0,4.6325,4.6799,4.7537,4.7041,4.6397,4.6218,4.4707,4.3304,4.3046,4.1903,4.081,0.0,3.9247,3.8432,3.7613,3.7285,3.7057,3.6976,3.7407,3.7644,3.7405,3.7945,3.8069,3.7431,3.721,3.6928,3.6488,3.6087,3.5696,3.5201,3.4946,3.48,3.488,3.51,3.5304,3.5345,3.5117,3.5184,3.544,3.5157,3.5224,3.5616,3.6466,3.7269,3.8125,3.9219,4.0591,4.2048,4.2541,4.321,4.381,4.325,4.2713,4.2243,0.0,0.0,0.0,0.0,0.0,0.0,0.0,0.0,0.0,0.0,4.5905,4.5983,4.6056,4.5934,4.5836,4.5757,4.5641,4.5619,4.5688,4.6065,4.6225,4.6146,4.7576,4.8311,4.8154,4.7575,4.7373,4.7498,4.7251,4.7217,4.7483,4.8821,4.9505,4.9556,4.9546,4.9498,4.9309,4.9036,4.8918,4.8849,4.8138,4.7947,4.8101,4.7312,4.7125,4.7202,4.7023,4.7226,4.7498,4.6837,4.6908,4.7209,4.7013,4.6487,4.5799,4.5016,4.4984,4.5277,4.593,0.0,0.0,4.7961,4.8474,4.8819,4.9358,4.8501,4.7504,4.7056,4.5489,4.4062,4.3719,4.2862,4.1863,4.0982,4.0078,3.9173,3.8257,3.7653,3.7254,3.7093,3.7565,3.762,3.6845,3.7718,3.7989,3.7086,3.6989,3.6764,3.6303,3.5881,3.5674,3.5641,3.5189,3.5182,3.5629,3.579,3.5951,3.6191,3.5711,3.5778,3.6243,3.5751,3.5699,3.6111,3.6951,3.7715,3.8427,3.9642,4.1075,4.2563,4.308,4.3762,4.4381,4.384,4.346,4.3084,0.0,0.0,0.0,0.0,0.0,0.0,0.0,0.0,0.0,0.0,0.0,0.0,0.0,4.6144,4.6087,4.6103,4.5973,4.5908,4.5908,4.5902,4.586,4.5715,4.6681,4.7203,4.7059,4.702,4.7407,4.8266,4.7341,4.7306,4.809,4.8997,4.9307,4.9138,4.9942,5.0135,4.987,4.9579,4.9161,4.8689,4.8458,4.7999,4.7443,4.756,4.7467,4.7254,4.709,4.679,4.6555,4.6667,4.6398,4.6036,4.5881,4.5692,0.0,4.5498,4.575,4.6032,4.5998,4.7095,4.8324,4.8677,4.9992,5.105,5.0491,4.9672,4.8695,4.7622,4.605,4.4655,4.4004,4.3536,4.2565,4.0577,4.0187,3.9594,3.7863,3.7615,3.7356,3.6772,3.7608,3.776,0.0,3.7564,3.8019,3.7528,3.7485,3.703,3.5976,3.5923,3.5838,3.5683,3.5696,3.5843,3.6255,3.6716,3.6861,3.6665,3.7056,3.7134,3.6978,3.7173,3.7134,3.7007,3.7822,3.8655,3.9533,4.0556,4.209,4.3858,4.3918,4.4343,4.4874,4.4648,4.4419,4.4106,0.0,0.0,0.0,0.0,0.0,0.0,0.0,0.0,0.0,0.0,0.0,0.0,0.0,0.0,0.0,0.0,4.6064,4.6037,4.6091,4.6076,4.6009,4.5911,4.6796,4.7505,4.8059,4.8049,4.8472,4.9282,4.8965,4.9004,4.9321,5.0099,5.0439,5.0453,5.1147,5.097,5.0248,5.0609,5.0227,4.9348,4.9134,4.8674,4.808,4.7738,4.7293,4.6848,0.0,4.6741,4.6975,4.6118,4.6111,4.6424,4.6185,4.5668,4.5083,4.5081,4.5602,4.6193,4.6753,4.7684,4.8686,4.9787,5.0393,5.0756,5.0887,5.0138,4.9121,4.8016,4.6634,4.551,4.503,4.4419,4.3452,4.1891,4.0959,3.9945,3.8639,3.8074,3.7711,3.7491,3.7921,0.0,0.0,0.0,0.0,3.7214,3.6904,3.666,3.6413,3.6413,3.6491,3.6547,3.6547,3.6705,3.6978,3.6672,3.694,3.7711,3.7976,3.7661,3.6836,3.7272,3.7289,3.7046,3.7709,3.8256,3.8746,4.0547,4.188,4.2938,4.4006,4.4716,4.5092,4.5017,4.4942,4.4774,0.0,0.0,0.0,0.0,0.0,0.0,0.0,0.0,0.0,0.0,0.0,0.0,0.0,0.0,0.0,0.0,0.0,4.6157,4.6186,4.6147,4.6103,4.605,4.6583,4.7131,4.7693,4.7701,4.812,4.8977,4.8978,4.9126,4.9468,5.0277,5.063,5.0656,5.1386,5.1283,5.0596,5.096,5.0631,4.9895,4.9646,4.9096,4.8355,4.797,4.731,0.0,4.6401,4.6625,4.6869,4.587,4.5796,4.606,4.5887,4.5744,4.5593,4.5354,4.6253,4.742,4.7744,4.852,4.9569,5.0848,5.0957,5.0894,5.1393,5.0452,4.9214,4.8269,4.7097,4.5992,4.5232,4.4719,4.3823,4.2062,4.1198,4.0294,3.9033,3.8539,3.8277,3.8127,3.824,0.0,0.0,0.0,0.0,3.724,3.6968,3.6889,3.7017,3.694,3.7056,3.7404,3.7443,3.7444,3.748,3.7279,3.7618,3.8427,3.8156,3.7833,3.7362,3.7118,3.7205,3.7558,3.7783,3.8302,3.9127,4.0868,4.2105,4.2996,4.4216,4.498,4.5315,4.5315,4.5352,4.529,0.0,0.0,0.0,0.0,0.0,0.0,0.0,0.0,0.0,0.0,0.0,0.0,0.0,0.0,0.0,0.0,0.0,0.0,4.6289,4.6247,4.6165,4.6126,4.6105,4.6138,4.6195,4.6162,4.6639,4.7575,4.7551,4.7913,4.8641,4.951,4.9862,4.981,5.0648,5.0979,5.0821,5.0681,5.0476,5.0309,4.9999,4.9221,4.819,4.8143,4.7453,4.6524,4.6582,4.6531,4.6374,4.5945,4.5468,4.5049,4.5118,4.5998,4.6844,4.6192,4.7636,4.9355,4.8781,4.9585,5.0765,5.1703,5.1657,5.1447,5.1831,5.0592,4.9094,4.8351,4.7348,4.615,0.0,0.0,4.3782,4.1237,4.0965,4.0596,3.9106,3.901,3.8973,0.0,0.0,0.0,0.0,0.0,0.0,3.7701,0.0,3.7596,3.7644,3.7414,3.7539,3.8144,3.8153,3.7981,3.7729,3.8413,3.8745,3.8679,3.7821,3.774,3.8347,3.6816,3.6968,3.8405,3.8105,3.8875,4.0434,4.1607,4.2763,4.3956,4.467,4.5204,4.5536,4.5541,4.5682,4.5792,0.0,0.0,0.0,0.0,0.0,0.0,0.0,0.0,0.0,0.0,0.0,0.0,0.0,0.0,0.0,0.0,0.0,0.0,4.7186,4.6633,4.6276,4.6237,4.6212,4.6483,4.721,4.7213,4.7615,4.847,4.8468,4.8543,4.8733,4.8995,4.9103,4.9091,4.9862,5.0142,5.0131,5.0554,5.0615,5.0396,5.0,4.9211,4.8221,4.7658,4.7167,4.6769,4.6477,4.6539,4.6695,4.6119,4.5752,4.564,4.6807,4.6975,4.677,4.7148,4.807,4.8959,4.8781,4.932,5.0129,5.0909,5.0933,5.0785,5.0767,5.0306,4.9549,4.843,4.7276,4.6253,0.0,0.0,0.0,4.2308,4.1758,0.0,3.9951,3.938,0.0,3.9343,0.0,3.9228,3.9409,3.9119,0.0,0.0,3.8118,3.7711,3.8052,3.7515,3.7358,3.7652,3.7331,3.7122,3.7081,3.7872,3.7997,3.7388,3.825,3.8039,3.6881,3.7558,3.7761,3.7674,3.8595,3.9349,4.0028,4.1899,4.3024,4.3666,4.5028,4.5792,4.612,4.623,4.6337,4.6404,0.0,0.0,0.0,0.0,0.0,0.0,0.0,0.0,0.0,0.0,0.0,0.0,0.0,0.0,0.0,0.0,0.0,0.0,0.0,4.6518,4.6237,4.6191,4.6171,4.6405,4.6937,4.6943,4.7148,4.7635,4.7586,4.7576,4.7526,4.7879,4.8054,4.805,4.9181,4.9634,4.9622,5.0334,5.0545,0.0,0.0,4.8764,4.7787,4.7152,4.6539,4.6122,4.6438,4.7129,4.7873,4.8152,4.7766,4.7251,4.8007,4.8137,4.8111,4.8483,0.0,4.9681,4.9681,4.9881,5.0287,5.1049,5.0868,5.0548,5.0708,5.0086,4.927,4.8639,4.733,0.0,4.5669,0.0,0.0,0.0,0.0,0.0,4.0359,4.0257,4.0213,0.0,3.9732,0.0,3.9481,3.9337,3.9265,0.0,3.8716,3.853,3.8833,3.8479,3.8227,3.8139,3.7818,3.7645,3.7645,3.7436,3.7585,3.802,3.7624,3.7298,3.6973,3.7077,3.736,3.7847,0.0,3.9788,4.0816,4.2461,4.3514,4.4208,4.5457,4.612,4.6474,4.6684,4.6789,4.6927,0.0,0.0,0.0,0.0,0.0,0.0,0.0,0.0,0.0,0.0,0.0,0.0,0.0,0.0,0.0,0.0,0.0,0.0,0.0,0.0,4.601,4.5922,4.6032,4.6113,4.6087,4.6093,4.6047,4.6069,4.5971,4.5918,4.5843,4.6579,4.6874,4.6849,4.8261,4.8951,4.9163,4.9775,5.0156,5.0221,4.9188,4.8149,4.7219,0.0,4.5823,4.5218,4.6507,4.7872,4.9273,5.0583,5.0232,4.9197,4.9074,4.9482,4.9992,4.9978,5.0391,5.0857,5.083,5.0678,5.0675,5.1354,5.0823,5.0265,5.0777,4.9654,4.8552,4.8723,0.0,4.5985,4.5365,4.4593,4.3547,4.2037,0.0,4.224,4.0681,4.1202,4.1361,4.0283,4.0081,3.9803,3.9379,3.9271,3.9235,3.9271,3.9445,3.9589,3.9661,3.9606,3.9345,3.8784,3.8616,3.8577,3.8667,3.7323,3.749,3.9032,3.6799,3.6301,3.734,3.6242,3.6663,3.8307,0.0,0.0,4.2039,4.3172,4.425,4.5167,4.5936,4.6439,4.6722,4.6961,4.7167,4.7336,0.0,0.0,0.0,0.0,0.0,0.0,0.0,0.0,0.0,0.0,4.613,4.6117,0.0,0.0,0.0,0.0,0.0,0.0,0.0,0.0,0.0,4.503,4.5739,4.6089,4.6033,4.5963,4.5861,4.5779,4.568,4.5658,4.5582,4.5764,4.5809,4.5681,4.5973,4.6852,4.8135,4.8217,4.9051,5.0221,4.901,4.8029,4.7113,4.5993,0.0,0.0,4.6883,4.8311,4.9647,5.0481,5.0322,4.9942,5.112,5.0997,5.0503,5.1002,5.1218,5.1193,5.1088,5.0541,5.0005,4.994,4.9272,4.8687,4.88,4.8491,0.0,0.0,4.6953,4.5823,4.5243,4.4417,4.3622,4.294,4.2732,0.0,0.0,0.0,4.0972,0.0,0.0,0.0,0.0,0.0,0.0,0.0,0.0,4.0051,3.9481,3.9078,3.8516,3.7717,3.7653,3.7888,3.8462,3.8217,3.7804,3.7345,3.7411,3.6652,3.5287,3.6805,3.7529,3.7773,0.0,0.0,4.2212,4.4196,4.5285,4.5819,4.6463,4.6996,4.7403,4.7704,4.7836,4.7803,0.0,0.0,0.0,0.0,0.0,0.0,0.0,4.5136,4.5152,4.6082,4.6055,4.5961,4.6092,4.6093,4.6063,0.0,0.0,0.0,0.0,0.0,0.0,0.0,4.5153,4.5521,4.5836,4.5703,4.5583,4.5511,0.0,4.5272,4.5227,4.5237,4.5208,4.5148,4.5583,4.6238,4.7056,4.7879,4.8718,4.9429,4.8805,4.8307,4.7826,0.0,0.0,0.0,0.0,4.8427,4.9509,5.0638,5.0812,5.0707,5.1475,5.1331,5.0928,5.1106,5.1387,5.1475,5.0854,5.0378,4.9937,4.9344,4.8879,4.8598,4.8598,0.0,0.0,0.0,4.6807,4.5713,4.5481,4.4534,0.0,4.3325,4.3267,0.0,0.0,0.0,0.0,0.0,0.0,0.0,0.0,0.0,0.0,0.0,0.0,0.0,3.991,3.9378,3.8895,3.8391,3.8125,3.8247,3.8845,3.8409,3.8086,3.7839,3.7278,3.663,3.5996,3.7149,3.7908,3.8413,4.089,0.0,4.3232,4.493,4.6117,4.6878,4.7205,4.7538,4.7869,4.8033,4.793,4.7691,0.0,0.0,0.0,0.0,0.0,0.0,0.0,4.4431,4.4602,4.5461,4.5375,4.5261,4.5393,4.5558,4.5269,0.0,0.0,0.0,0.0,0.0,0.0,0.0,0.0,0.0,0.0,0.0,0.0,4.5145,4.5,0.0,0.0,0.0,0.0,0.0,4.5546,4.5937,4.6253,4.754,4.821,0.0,0.0,4.8375,0.0,0.0,0.0,0.0,0.0,4.8103,4.9139,5.046,5.0858,5.0824,5.1092,5.11,5.1017,5.078,5.1107,5.1286,5.0374,5.0004,4.9731,4.887,4.8622,4.8529,4.848,4.797,0.0,4.7812,4.6767,4.5771,4.567,4.4754,4.3885,0.0,4.3666,4.3455,0.0,0.0,0.0,0.0,0.0,0.0,0.0,0.0,0.0,0.0,0.0,0.0,4.0366,3.9876,3.9569,3.9463,3.9048,3.9051,3.9501,3.8879,3.8557,3.853,3.7203,3.6768,3.7088,3.7443,3.8296,3.9566,4.1641,0.0,0.0,4.5725,4.6879,4.777,4.7803,4.8033,4.8324,4.8356,4.8015,4.7564,0.0,0.0,0.0,0.0,0.0,0.0,0.0,4.3085,4.2805,4.3565,4.3489,4.3305,4.3125,4.3921,4.4083,0.0,0.0,0.0,0.0,0.0,0.0,0.0,0.0,0.0,0.0,0.0,0.0,4.4663,0.0,0.0,0.0,0.0,0.0,0.0,0.0,4.533,4.6113,4.6265,0.0,0.0,0.0,0.0,0.0,0.0,0.0,0.0,0.0,4.7118,4.8514,4.9348,0.0,4.95,5.0253,5.0526,5.0529,5.0242,0.0,0.0,4.965,4.9136,4.855,4.8105,4.7665,4.7326,4.7212,0.0,4.7231,4.7107,4.6791,4.6277,4.5537,4.4995,4.4401,4.3684,4.3515,4.3303,0.0,0.0,0.0,0.0,0.0,0.0,0.0,0.0,0.0,0.0,0.0,0.0,0.0,4.013,3.9955,3.9955,4.0008,4.0078,4.0139,4.0217,3.9501,3.8068,3.7883,3.7549,3.7001,3.767,3.9051,4.0992,0.0,0.0,0.0,4.6977,4.7737,4.8001,4.8098,4.8356,4.8671,4.8861,4.8575,4.798,0.0,0.0,0.0,0.0,0.0,0.0,4.2618,4.2334,4.2307,4.3043,4.2908,4.242,4.1609,4.1803,4.1922,4.177,0.0,0.0,0.0,0.0,0.0,0.0,0.0,0.0,0.0,0.0,4.3492,4.4379,4.4503,0.0,0.0,0.0,0.0,0.0,0.0,0.0,4.5589,4.6033,0.0,0.0,0.0,0.0,0.0,0.0,0.0,0.0,0.0,0.0,4.7763,4.8578,0.0,0.0,4.9482,4.9314,0.0,0.0,4.9886,4.9923,4.9275,4.887,4.8465,4.7806,4.7483,4.7245,4.7133,0.0,4.6484,4.609,4.5951,4.5693,4.5057,4.4939,4.4852,4.4316,4.4006,0.0,4.3388,0.0,0.0,0.0,0.0,0.0,0.0,0.0,0.0,0.0,0.0,0.0,0.0,4.078,4.0677,4.0783,4.078,4.0783,4.0854,4.0953,4.0135,3.8508,3.9108,3.8855,3.7943,3.8919,4.0304,4.1951,0.0,0.0,0.0,4.7375,4.8196,4.8612,4.8642,4.8892,4.9199,4.926,4.863,4.7683,0.0,0.0,0.0,0.0,0.0,4.0376,4.1232,4.1212,4.1376,4.2065,4.1647,4.0988,4.0189,3.9679,3.9593,3.9986,4.0126,0.0,0.0,0.0,0.0,0.0,0.0,0.0,0.0,0.0,4.3002,4.398,4.4236,4.4476,0.0,0.0,0.0,0.0,0.0,0.0,0.0,0.0,0.0,0.0,0.0,0.0,0.0,0.0,0.0,0.0,0.0,0.0,0.0,0.0,0.0,4.8453,4.9205,4.8835,4.8313,4.9011,4.9415,4.9476,4.8789,4.856,4.8272,4.7413,4.7168,4.7032,0.0,0.0,4.5809,4.5405,4.5272,4.5138,4.4879,4.4722,4.4654,4.4749,4.4266,4.3805,4.3625,0.0,0.0,0.0,0.0,0.0,0.0,0.0,0.0,0.0,0.0,0.0,0.0,4.1327,4.1321,4.129,4.1288,4.1321,4.1488,4.1267,4.0571,3.9436,3.9912,3.9816,3.9307,4.0385,4.1753,4.3352,0.0,0.0,0.0,4.7931,4.8547,4.9018,4.9107,4.932,4.9619,4.9619,4.8776,4.7638,0.0,0.0,0.0,0.0,0.0,0.0,3.9513,3.9458,3.9532,4.0074,3.913,3.849,3.8626,3.7806,3.7382,3.7721,3.8227,0.0,0.0,0.0,0.0,0.0,0.0,0.0,0.0,0.0,4.2514,4.3515,4.3828,4.4242,4.4712,4.475,4.5099,4.5577,0.0,0.0,0.0,0.0,0.0,0.0,0.0,0.0,0.0,0.0,0.0,0.0,0.0,0.0,0.0,0.0,0.0,0.0,0.0,4.9483,4.9094,4.8732,4.8458,4.8304,4.8207,4.8108,4.7769,4.6783,4.6622,4.6424,0.0,4.5228,4.5269,4.5111,4.4962,4.4936,4.5326,4.4246,4.368,4.4741,4.3965,4.3288,4.3558,0.0,0.0,0.0,0.0,0.0,0.0,0.0,0.0,0.0,0.0,0.0,0.0,4.1597,4.1719,4.1323,4.1489,4.1719,4.1914,4.1182,4.0833,4.0865,4.0165,4.0259,4.1117,4.1853,4.3299,0.0,0.0,0.0,0.0,4.8767,4.8984,4.9015,4.935,4.9649,4.9913,4.9913,4.9145,4.8127,0.0,0.0,0.0,0.0,0.0,0.0,0.0,3.883,3.9052,3.894,3.8971,3.8856,3.8496,3.7983,3.7629,3.7448,3.7667,0.0,0.0,0.0,0.0,0.0,0.0,0.0,0.0,0.0,4.1099,4.281,4.3365,4.3908,4.4457,4.4908,4.5304,4.5632,4.5761,0.0,0.0,0.0,0.0,0.0,0.0,0.0,0.0,0.0,0.0,0.0,0.0,0.0,0.0,0.0,0.0,0.0,0.0,0.0,0.0,4.7053,4.781,4.8366,4.7813,4.7499,4.7165,4.632,4.5984,4.5754,4.5325,4.4854,4.4436,4.4237,4.4094,4.3978,4.3983,4.3757,4.3746,4.432,4.389,4.3618,0.0,0.0,0.0,0.0,0.0,0.0,0.0,0.0,0.0,0.0,0.0,0.0,0.0,4.1724,4.1661,4.2045,4.2109,4.1949,4.15,4.1494,4.0852,3.9617,4.0144,4.046,4.0566,4.1489,0.0,0.0,0.0,0.0,0.0,4.8923,4.9168,4.95,4.9708,4.9913,5.0045,4.9611,4.8943,4.819,0.0,0.0,0.0,0.0,0.0,0.0,0.0,3.7877,3.824,3.855,3.8496,3.8407,3.8428,3.7831,3.7417,3.7317,3.7262,0.0,0.0,0.0,0.0,0.0,0.0,0.0,3.9361,3.9796,4.0673,4.2124,4.2757,4.3406,4.4163,4.5083,4.5563,4.568,4.6235,4.6215,0.0,0.0,0.0,0.0,0.0,0.0,4.5252,0.0,0.0,0.0,0.0,0.0,0.0,0.0,0.0,0.0,0.0,0.0,0.0,0.0,4.7288,4.7571,4.7056,4.6764,4.6415,4.5553,4.5203,4.4939,4.4515,4.3985,4.3546,4.3464,4.3284,4.317,4.3344,4.3039,4.3008,4.3815,4.328,4.3037,0.0,0.0,0.0,0.0,0.0,0.0,0.0,0.0,0.0,0.0,0.0,0.0,0.0,0.0,4.1461,4.1746,4.1655,4.1398,4.1008,4.0931,4.0478,3.9658,4.0174,4.0649,4.1176,4.2332,0.0,0.0,0.0,0.0,0.0,4.929,4.95,4.9796,5.0028,5.0228,5.0349,4.9699,4.9083,4.8483,0.0,0.0,0.0,0.0,0.0,0.0,0.0,3.6764,3.7214,3.8647,3.7774,3.7393,3.8412,3.7495,3.6951,3.73,0.0,0.0,0.0,0.0,0.0,0.0,0.0,0.0,3.8286,3.9798,4.0874,4.1375,4.1937,4.274,4.3819,4.5071,4.5687,4.5758,4.6686,4.6648,0.0,0.0,0.0,0.0,4.3167,4.3094,0.0,0.0,0.0,0.0,0.0,0.0,0.0,0.0,0.0,0.0,0.0,0.0,0.0,0.0,0.0,0.0,0.0,4.5865,4.5498,4.4564,4.4234,4.3939,4.3082,4.2842,0.0,4.2746,4.251,4.2501,4.3251,4.2194,4.1696,4.3169,4.2284,0.0,0.0,0.0,0.0,0.0,0.0,0.0,0.0,0.0,0.0,0.0,0.0,0.0,0.0,0.0,4.11,4.0655,4.0353,4.0264,4.0445,3.9794,3.9852,4.0554,4.0075,4.079,4.2502,4.3857,0.0,0.0,0.0,0.0,0.0,4.9825,4.9942,4.9936,5.0215,5.0522,5.0627,4.9881,4.9341,4.8935,0.0,0.0,0.0,0.0,0.0,0.0,0.0,0.0,0.0,0.0,3.8029,3.8251,3.8734,3.8303,3.7834,0.0,0.0,0.0,0.0,0.0,0.0,0.0,0.0,0.0,3.9039,3.8831,3.927,4.0358,4.0839,4.1655,4.2759,4.3691,4.4485,4.5227,4.5679,4.555,0.0,0.0,0.0,0.0,4.2909,4.2639,0.0,0.0,0.0,0.0,4.4034,4.4565,0.0,0.0,0.0,0.0,0.0,0.0,0.0,0.0,4.5863,4.5566,4.545,0.0,4.4675,4.3725,4.3321,4.3095,0.0,4.2727,4.2629,4.253,4.2389,4.2296,4.2221,4.1732,4.158,4.2234,4.1891,4.1844,0.0,0.0,0.0,0.0,0.0,0.0,0.0,0.0,0.0,0.0,0.0,0.0,0.0,0.0,4.0769,4.0107,3.9467,3.9434,4.0018,4.0142,3.9901,3.9396,3.9424,4.0282,4.1904,4.235,0.0,0.0,0.0,0.0,5.0028,5.0086,5.0171,5.0244,4.9963,4.9934,4.9881,4.877,4.8329,4.8235,0.0,0.0,0.0,0.0,0.0,0.0,0.0,0.0,0.0,0.0,0.0,0.0,0.0,0.0,0.0,0.0,0.0,0.0,0.0,0.0,0.0,0.0,0.0,3.8533,3.8572,3.8426,3.8745,3.9558,4.0052,4.0897,4.2095,4.3579,4.4661,4.5349,4.5485,4.5251,0.0,0.0,0.0,0.0,4.1899,0.0,0.0,0.0,0.0,0.0,4.4724,4.5218,0.0,4.5753,4.5864,4.5975,0.0,0.0,0.0,0.0,4.5642,4.5224,4.5482,4.5196,4.4612,4.3623,4.3287,4.3077,4.2681,4.253,4.245,4.2389,4.2205,4.1995,4.1758,4.1448,4.1314,4.1553,4.1346,0.0,0.0,0.0,0.0,0.0,0.0,0.0,0.0,0.0,0.0,0.0,0.0,0.0,0.0,0.0,4.072,3.9748,3.9319,3.9237,3.9462,3.9743,3.9653,3.9228,3.9801,4.0756,4.1997,4.2867,0.0,0.0,0.0,0.0,4.9848,4.9931,4.9831,4.9616,4.9407,4.9437,4.9437,4.8377,4.8163,4.8286,0.0,0.0,0.0,0.0,0.0,0.0,0.0,0.0,0.0,0.0,0.0,0.0,0.0,0.0,0.0,0.0,0.0,0.0,0.0,0.0,0.0,0.0,3.8328,3.8743,3.7931,3.8357,3.8678,3.8952,3.942,4.0387,4.1775,4.3824,4.5156,4.5747,4.5793,4.5343,0.0,0.0,0.0,0.0,4.0923,0.0,0.0,0.0,0.0,0.0,0.0,0.0,0.0,4.6625,4.6404,4.604,4.6509,0.0,0.0,0.0,0.0,0.0,4.5903,4.5681,4.5027,4.382,4.3471,4.3292,4.2614,4.2445,4.2403,4.2403,0.0,0.0,0.0,4.144,0.0,0.0,0.0,0.0,0.0,0.0,0.0,0.0,0.0,0.0,0.0,0.0,0.0,0.0,0.0,0.0,0.0,0.0,0.0,3.964,3.9606,3.9468,3.9195,3.9309,3.9475,3.9633,4.0598,4.1523,4.24,4.3987,4.5781,0.0,0.0,0.0,4.9363,4.9565,4.9309,4.8801,4.8785,4.897,4.9103,4.8317,4.8282,4.8518,0.0,0.0,0.0,0.0,0.0,0.0,0.0,0.0,0.0,0.0,0.0,0.0,0.0,0.0,0.0,0.0,0.0,0.0,0.0,0.0,0.0,3.8048,3.9059,3.9348,3.8788,3.8535,3.852,3.8655,3.898,4.0052,4.1868,4.293,4.4342,4.6066,4.6549,4.5603,4.3635,0.0,0.0,4.1937,4.1686,0.0,0.0,0.0,0.0,0.0,0.0,0.0,0.0,4.669,4.6928,4.7253,4.7298,0.0,0.0,0.0,0.0,0.0,4.6725,4.6493,4.5681,4.3549,4.2997,4.2962,4.2856,4.282,4.2798,0.0,0.0,0.0,0.0,4.1962,4.2312,0.0,0.0,0.0,0.0,0.0,0.0,0.0,0.0,0.0,0.0,0.0,0.0,0.0,0.0,0.0,0.0,0.0,0.0,4.0045,4.0011,4.0037,4.0113,3.9884,3.991,4.0197,4.096,4.181,4.2688,4.3838,4.539,0.0,0.0,4.8201,4.9128,4.9189,4.9217,4.915,4.8627,4.8586,4.8704,4.802,4.7922,4.8134,0.0,0.0,0.0,0.0,0.0,0.0,0.0,0.0,0.0,0.0,0.0,0.0,0.0,0.0,0.0,0.0,0.0,0.0,0.0,0.0,3.8359,3.8469,3.8885,3.9035,3.8788,3.86,3.8403,3.8205,3.865,3.9587,4.1008,4.2952,4.4773,4.6455,4.6084,4.5184,4.3944,4.3886,4.3383,4.2686,0.0,0.0,0.0,0.0,0.0,0.0,0.0,0.0,0.0,0.0,4.7289,4.7472,4.7407,0.0,0.0,0.0,0.0,0.0,4.6847,4.6637,4.6046,4.4495,4.4131,4.4107,4.3752,4.3668,4.3691,0.0,0.0,0.0,0.0,0.0,0.0,0.0,0.0,0.0,0.0,0.0,0.0,0.0,0.0,0.0,0.0,0.0,0.0,0.0,0.0,0.0,0.0,0.0,0.0,0.0,4.0739,4.0631,4.0765,4.0669,4.0549,4.0544,4.1781,4.2602,4.3072,4.4482,4.5882,4.7219,0.0,4.7823,4.8556,4.8556,4.8472,4.8308,4.7981,4.8034,4.8296,4.8097,4.8151,4.8344,0.0,0.0,0.0,0.0,0.0,0.0,0.0,0.0,0.0,0.0,0.0,0.0,0.0,0.0,0.0,0.0,0.0,0.0,0.0,3.9402,3.8628,3.8657,3.8505,3.848,3.8618,3.86,3.8375,3.7979,3.8544,3.9468,4.0817,4.3512,4.5386,4.6468,4.5622,4.4888,4.4268,4.3844,4.3588,4.3497,0.0,0.0,0.0,0.0,0.0,0.0,0.0,0.0,0.0,0.0,0.0,0.0,0.0,0.0,0.0,4.7363,4.7143,4.6916,4.6916,4.6731,4.6342,4.5729,4.5435,4.5129,4.4668,4.4549,4.4594,0.0,0.0,0.0,0.0,0.0,0.0,0.0,0.0,0.0,0.0,0.0,0.0,0.0,0.0,0.0,0.0,0.0,0.0,0.0,0.0,0.0,0.0,0.0,0.0,0.0,4.1394,4.1152,4.13,4.13,4.1244,4.1147,4.2673,4.3464,4.3746,4.5252,4.643,4.7266,4.729,4.7582,4.7992,4.7992,4.7859,4.7642,4.7642,4.785,4.817,4.8363,4.855,4.8678,0.0,0.0,0.0,0.0,0.0,0.0,0.0,0.0,0.0,0.0,0.0,0.0,0.0,0.0,0.0,0.0,0.0,0.0,0.0,3.9172,3.8528,3.8777,3.7971,3.7895,3.8783,3.8544,3.8351,3.818,3.86,4.0068,4.2565,4.4561,4.5537,4.5585,4.5836,4.5208,4.4106,4.4949,4.4867,4.4141,4.4345,0.0,0.0,0.0,0.0,0.0,0.0,0.0,0.0,0.0,0.0,0.0,0.0,0.0,4.7636,4.7529,4.7385,4.7276,4.7276,4.7062,4.6868,4.7017,4.6081,4.5164,4.5363,4.534,4.5328,4.5633,0.0,0.0,0.0,0.0,0.0,0.0,0.0,0.0,0.0,0.0,0.0,0.0,0.0,0.0,0.0,0.0,0.0,0.0,0.0,0.0,0.0,0.0,0.0,0.0,0.0,4.156,4.1582,4.1582,4.1866,4.2463,4.3407,4.4178,4.4841,4.5866,4.6554,4.6861,4.6977,4.7295,4.7744,4.7744,4.7918,4.8148,4.8148,4.8306,4.8587,4.8785,4.8855,4.8873,0.0,0.0,0.0,0.0,0.0,0.0,0.0,0.0,0.0,0.0,0.0,0.0,0.0,0.0,0.0,0.0,0.0,0.0,0.0,3.9563,3.8455,3.8061,3.789,3.7641,3.7303,3.786,3.8176,3.8209,3.8572,4.0084,4.269,4.2976,4.3847,4.5186,4.4974,4.4977,4.5147,4.5022,4.5485,4.6299,4.6002,4.5927,0.0,0.0,0.0,0.0,0.0,0.0,0.0,0.0,4.8367,4.8125,4.8477,4.8267,4.787,4.7947,4.7788,4.7606,4.7606,4.7861,4.8041,4.7594,4.7419,4.7326,4.7384,4.699,4.6842,4.7565,4.7277,0.0,0.0,0.0,0.0,0.0,0.0,0.0,0.0,0.0,0.0,0.0,0.0,0.0,0.0,0.0,0.0,0.0,0.0,0.0,0.0,0.0,0.0,0.0,0.0,4.2058,4.2086,4.2205,4.2575,4.3251,4.3854,4.4362,4.4772,4.6196,4.6972,4.7232,4.7276,4.7247,4.7259,4.7709,4.7799,4.7758,4.8457,4.8767,4.889,4.901,4.9127,4.9225,0.0,0.0,0.0,0.0,0.0,0.0,0.0,0.0,0.0,0.0,0.0,0.0,0.0,0.0,0.0,0.0,0.0,0.0,4.1421,3.9876,3.8707,3.8089,3.7775,3.7325,3.6688,3.7185,3.754,3.7644,3.8151,3.96,4.192,4.1896,4.2941,4.4829,4.4814,4.529,4.6017,4.5461,4.6088,4.7386,4.7089,4.7001,0.0,0.0,0.0,0.0,0.0,0.0,0.0,0.0,4.8716,4.8437,4.8676,4.8489,4.8209,4.8285,4.817,4.8072,4.8267,4.8534,4.8675,4.8364,4.8468,4.868,4.8814,4.82,4.7781,4.8514,4.825,0.0,0.0,0.0,0.0,0.0,0.0,0.0,0.0,0.0,0.0,0.0,0.0,0.0,0.0,0.0,0.0,0.0,0.0,0.0,0.0,0.0,0.0,0.0,0.0,4.2494,4.2554,4.2652,4.2979,4.348,4.4088,4.4485,4.4729,4.6248,4.6909,4.6918,4.7192,4.7074,4.6727,4.7477,4.7887,4.8041,4.887,4.9193,4.9209,4.9327,4.9437,4.9491,0.0,0.0,0.0,0.0,0.0,0.0,0.0,0.0,0.0,0.0,0.0,0.0,0.0,0.0,0.0,0.0,0.0,0.0,4.0979,3.9952,3.9298,3.9096,3.7598,3.696,3.7307,3.6621,3.6322,3.6424,3.7327,3.8596,4.0246,4.1843,4.33,4.4547,4.5696,4.6274,4.6422,4.6551,4.6757,4.7051,4.739,4.7707,4.8029,0.0,0.0,0.0,0.0,0.0,0.0,0.0,4.9626,4.8935,4.9584,4.9233,4.8605,4.8532,4.8569,4.8716,4.9319,4.9007,4.866,4.9336,4.9007,0.0,4.9489,4.8656,4.7804,4.8128,4.8285,4.8209,4.7875,0.0,0.0,0.0,0.0,0.0,0.0,0.0,0.0,0.0,0.0,0.0,0.0,0.0,0.0,0.0,0.0,0.0,0.0,0.0,0.0,0.0,0.0,0.0,4.2901,4.2976,4.3069,4.3214,4.4072,4.465,4.4962,4.6069,4.6233,4.5675,4.652,4.6617,4.617,4.7054,4.8113,4.9246,4.9498,4.9589,4.9604,4.9663,4.9692,4.9692,0.0,0.0,0.0,0.0,0.0,0.0,0.0,0.0,0.0,0.0,0.0,0.0,0.0,0.0,0.0,0.0,0.0,0.0,4.164,4.0252,3.9101,3.8279,3.7741,3.7249,3.6803,3.6101,3.6345,3.7595,3.7138,3.8002,4.0171,4.1638,4.3032,4.4344,4.5498,4.6394,4.7105,4.7137,4.7623,4.8375,4.8796,4.8821,4.8586,0.0,0.0,0.0,0.0,0.0,0.0,0.0,0.0,0.0,4.9257,4.9467,4.9544,4.8881,4.9157,4.9582,4.9141,4.9325,4.9528,4.9176,0.0,0.0,0.0,4.8735,0.0,0.0,4.8642,4.8642,0.0,0.0,0.0,0.0,0.0,0.0,0.0,0.0,0.0,0.0,0.0,0.0,0.0,0.0,0.0,0.0,0.0,0.0,0.0,0.0,0.0,0.0,0.0,0.0,4.3409,4.3441,4.3493,4.3563,4.3972,4.4682,4.5681,4.6085,4.6543,4.6998,4.6752,4.6607,4.6669,4.7694,4.8694,4.9574,4.9692,4.9707,4.9678,4.975,4.9807,4.9862,0.0,0.0,0.0,0.0,0.0,0.0,0.0,0.0,0.0,0.0,4.1992,0.0,0.0,0.0,0.0,0.0,0.0,0.0,0.0,4.0702,3.9526,3.8468,3.8011,3.7521,3.6962,3.5776,3.6158,3.8174,3.7033,3.7556,3.9709,4.1711,4.3319,4.4679,4.6558,4.7683,4.8199,4.8624,4.8993,4.9375,4.9706,4.9541,4.9201,0.0,0.0,0.0,0.0,0.0,0.0,0.0,0.0,0.0,4.9352,4.9513,4.9694,4.9142,4.9345,4.9715,4.9517,4.9867,5.0288,5.0016,5.0403,5.0603,4.9782,0.0,0.0,0.0,0.0,0.0,0.0,0.0,0.0,0.0,0.0,0.0,0.0,0.0,0.0,0.0,0.0,0.0,0.0,0.0,0.0,0.0,0.0,0.0,0.0,0.0,0.0,0.0,0.0,0.0,4.3812,4.3886,4.3965,4.3996,4.4155,4.4856,4.5993,4.5934,4.6041,4.6296,4.5986,4.6254,4.7061,4.7789,4.8764,4.9848,4.9906,4.9931,4.9876,4.992,4.9973,5.0025,0.0,0.0,0.0,0.0,0.0,0.0,0.0,0.0,0.0,0.0,4.1636,0.0,0.0,0.0,0.0,0.0,0.0,0.0,0.0,4.1164,4.0248,3.9253,3.8441,3.7794,3.7412,3.5783,3.5986,3.807,3.6983,3.7351,3.9129,4.2015,4.3999,4.5276,4.8161,4.9402,4.9378,5.0368,5.0451,4.9935,5.0189,5.0071,4.9731,5.0062,0.0,0.0,0.0,0.0,0.0,0.0,0.0,0.0,4.9679,4.9551,4.9481,4.9374,4.9412,4.9583,5.0177,5.0536,5.0842,5.1428,5.1753,0.0,5.1018,5.0038,4.9243,0.0,0.0,0.0,0.0,0.0,0.0,0.0,0.0,0.0,0.0,0.0,0.0,0.0,0.0,0.0,0.0,0.0,0.0,0.0,0.0,0.0,0.0,0.0,0.0,0.0,0.0,0.0,4.4155,4.4265,4.4379,0.0,4.4568,4.5089,4.5886,4.5655,4.5158,4.4465,4.4814,4.5849,4.7352,4.7629,4.8654,5.0038,5.0175,5.0175,5.0114,5.02,5.0224,5.0236,0.0,0.0,0.0,0.0,0.0,0.0,0.0,0.0,0.0,0.0,0.0,0.0,0.0,0.0,0.0,0.0,0.0,0.0,0.0,4.1162,4.0274,3.9147,3.8836,3.8057,3.6731,3.6625,3.6536,3.6409,3.6727,3.783,3.9674,4.2484,4.4108,4.4835,4.7114,4.8263,4.8617,4.9674,4.9732,4.9175,5.0653,5.06,4.9698,5.0551,5.0708,0.0,0.0,0.0,0.0,0.0,0.0,0.0,5.0035,5.0354,5.0675,4.9805,5.0078,5.0522,4.9996,5.0394,0.0,5.1103,5.1729,5.2256,5.2067,5.1849,5.1269,0.0,0.0,0.0,0.0,0.0,0.0,0.0,0.0,0.0,0.0,0.0,0.0,0.0,0.0,0.0,0.0,0.0,0.0,0.0,0.0,0.0,0.0,0.0,0.0,0.0,0.0,4.4397,4.451,4.4537,4.4608,0.0,4.4889,4.5014,4.519,4.5079,4.5053,4.5068,4.575,4.6694,4.7826,4.8553,4.9433,5.0333,5.038,5.0374,5.0259,5.038,5.0434,5.0445,0.0,0.0,0.0,0.0,0.0,0.0,0.0,0.0,0.0,0.0,0.0,0.0,0.0,0.0,0.0,0.0,0.0,0.0,0.0,0.0,4.0739,3.9357,3.9519,3.905,3.7785,3.765,3.7528,3.747,3.7756,3.8343,3.9261,4.194,4.3485,4.4086,4.611,4.7425,4.8184,4.9322,4.964,4.9509,5.0966,5.0717,4.9642,5.0653,5.0736,5.032,5.0499,0.0,0.0,0.0,0.0,0.0,0.0,0.0,5.0647,5.0075,5.0238,5.0478,4.9966,5.0816,0.0,5.281,0.0,5.3622,5.3286,5.3169,0.0,0.0,0.0,0.0,0.0,0.0,0.0,0.0,0.0,0.0,0.0,0.0,0.0,0.0,0.0,0.0,0.0,0.0,0.0,0.0,0.0,0.0,0.0,0.0,0.0,0.0,4.4578,4.4646,4.4751,4.4815,4.4938,4.5103,4.5159,4.5235,4.527,4.5154,4.5154,4.5354,4.6209,4.7093,4.8015,4.891,4.9754,5.0538,5.1047,5.0922,5.0553,5.1077,5.1,5.0663,0.0,0.0,0.0,0.0,0.0,0.0,0.0,0.0,0.0,0.0,0.0,0.0,0.0,0.0,0.0,0.0,0.0,0.0,0.0,0.0,0.0,3.9802,4.0395,4.0262,3.9161,3.8667,3.8704,3.9207,3.9045,3.8955,3.8989,4.1279,4.2636,4.3243,4.5129,4.653,4.7522,4.8619,4.9252,4.9658,5.0775,5.0455,4.949,5.0545,5.0629,5.0171,5.0275,5.0517,5.0764,5.0756,0.0,0.0,0.0,0.0,5.0291,5.0275,5.0279,5.0248,5.0126,5.1383,5.3137,5.4664,5.5121,0.0,5.4473,5.4257,0.0,0.0,0.0,0.0,0.0,0.0,0.0,0.0,0.0,0.0,0.0,0.0,0.0,0.0,0.0,0.0,0.0,0.0,0.0,0.0,0.0,0.0,0.0,0.0,4.6001,4.499,4.4877,4.4877,4.4962,4.5068,4.5192,4.5329,4.539,4.5505,4.5637,4.562,4.563,4.5707,4.6512,4.7367,4.8326,4.9038,4.9855,5.0701,5.151,5.1364,5.0824,5.1631,5.1478,5.0859,0.0,0.0,0.0,0.0,0.0,0.0,0.0,0.0,0.0,0.0,0.0,0.0,0.0,0.0,0.0,0.0,0.0,0.0,4.2898,0.0,0.0,4.0653,4.1301,4.0935,3.9309,3.9637,3.9643,3.9291,3.9604,3.9929,4.0341,4.1487,4.2287,4.274,4.4059,4.5021,4.5698,4.6324,4.7017,4.7846,4.9131,4.9498,4.9433,5.0447,5.0487,5.0063,5.023,5.0497,5.0738,5.0851,5.089,0.0,0.0,0.0,5.0717,5.0635,5.0577,5.0527,5.0455,5.1678,5.3188,0.0,5.4939,5.5437,0.0,0.0,0.0,0.0,0.0,0.0,0.0,0.0,0.0,0.0,0.0,0.0,0.0,0.0,0.0,0.0,0.0,0.0,0.0,0.0,0.0,0.0,0.0,0.0,0.0,4.7857,4.6996,4.6113,4.5305,4.4986,4.5159,4.5181,4.5288,4.5457,4.5547,4.5657,4.581,4.6453,4.6799,4.6805,4.6929,4.7868,4.9325,4.9418,4.9949,5.0692,5.0941,5.099,5.089,5.1125,5.1147,5.1056,0.0,0.0,0.0,0.0,0.0,0.0,0.0,0.0,0.0,0.0,0.0,0.0,0.0,0.0,0.0,4.3714,4.3976,4.3841,4.3165,4.2865,4.2382,4.1543,4.232,4.2143,4.0916,4.1016,4.094,4.0634,4.0865,4.1032,4.116,4.1725,4.2003,4.2051,4.2635,4.3373,4.4202,4.4626,4.5517,4.6741,4.7967,4.853,4.8783,4.9866,5.0165,4.9959,5.0162,5.0429,5.0673,5.0743,5.0858,5.0945,5.0952,0.0,0.0,0.0,5.0825,5.085,5.1231,5.1866,5.2749,0.0,5.4649,5.5055,5.5566,0.0,0.0,0.0,0.0,0.0,0.0,0.0,0.0,0.0,0.0,0.0,0.0,0.0,0.0,0.0,0.0,0.0,0.0,0.0,0.0,0.0,0.0,0.0,4.9029,4.7766,4.6843,4.6361,4.5525,4.5159,4.5301,4.5361,4.5455,4.5673,4.5734,4.5786,4.5873,4.6731,4.7076,4.7032,4.8004,4.8819,4.9545,4.9996,5.0447,5.0876,5.1471,5.1436,5.1192,5.2247,5.2018,5.1298,0.0,0.0,0.0,0.0,0.0,0.0,0.0,0.0,0.0,0.0,0.0,0.0,0.0,0.0,0.0,0.0,4.3697,4.3763,4.3521,4.3635,4.3352,4.2536,4.3366,4.3316,4.2246,4.2309,4.224,4.209,4.2089,4.2114,4.2122,4.2255,4.2267,4.2178,4.21,4.2562,4.3344,4.3858,4.4821,4.6085,4.7142,4.7851,4.839,4.9347,4.9811,4.9959,5.0139,5.0363,0.0,0.0,0.0,0.0,0.0,5.0833,0.0,0.0,0.0,5.106,5.1592,0.0,5.2355,5.3514,5.4169,5.4738,0.0,0.0,0.0,0.0,0.0,0.0,0.0,0.0,0.0,0.0,0.0,0.0,0.0,0.0,0.0,0.0,0.0,0.0,0.0,0.0,0.0,0.0,0.0,0.0,4.9188,4.7775,4.6825,4.65,4.5715,4.5311,4.5448,4.5535,4.5673,4.5848,4.588,4.6054,4.6287,4.7139,4.7611,4.7773,4.9018,4.977,5.0218,5.0797,5.1129,5.1315,5.2003,5.1845,5.1395,5.2927,5.2567,5.1459,0.0,0.0,0.0,0.0,0.0,0.0,0.0,0.0,0.0,0.0,0.0,0.0,4.1528,4.2186,4.2882,4.3214,4.3529,4.3902,4.4416,4.4675,4.4473,4.3651,4.4528,0.0,4.2514,4.3173,4.3416,4.3237,4.2959,4.3086,4.3586,4.3335,4.3432,4.3772,4.3322,4.323,4.3444,4.4438,4.5234,4.5982,4.6681,4.7592,4.8617,4.8982,4.9558,5.0089,5.0163,0.0,0.0,0.0,0.0,0.0,0.0,0.0,0.0,0.0,0.0,0.0,0.0,5.1661,0.0,5.2211,5.346,0.0,0.0,0.0,0.0,0.0,0.0,0.0,0.0,0.0,0.0,0.0,0.0,0.0,0.0,0.0,0.0,0.0,0.0,0.0,0.0,0.0,0.0,0.0,0.0,0.0,4.9355,4.8481,4.7616,4.6722,4.5899,4.5532,4.5586,4.5795,4.5919,4.5991,4.598,4.6419,4.7268,4.8063,4.8865,4.966,4.9674,5.0541,5.1969,5.2008,5.2086,5.2128,5.2246,5.1847,5.133,5.231,5.211,5.1511,0.0,0.0,0.0,0.0,0.0,0.0,0.0,0.0,0.0,0.0,0.0,0.0,0.0,4.2555,4.2992,4.2573,4.3105,4.361,4.4011,4.4416,4.4561,4.4423,4.4823,4.4753,4.4167,4.4425,4.4519,4.4385,4.4156,4.4102,4.4229,4.3934,4.412,4.4635,4.3904,4.3721,4.3983,4.432,4.47,4.5101,4.5281,4.6157,4.7333,4.6983,4.7595,0.0,0.0,0.0,0.0,0.0,0.0,0.0,0.0,0.0,0.0,0.0,0.0,5.1147,0.0,0.0,0.0,5.2097,5.3104,5.4126,0.0,0.0,0.0,0.0,0.0,0.0,0.0,0.0,0.0,0.0,0.0,0.0,0.0,0.0,0.0,0.0,0.0,0.0,0.0,0.0,0.0,0.0,0.0,0.0,5.0286,4.8998,4.8111,4.767,4.6397,4.5757,4.5867,4.5986,4.603,4.6051,4.6025,4.6164,4.6513,4.8444,4.9194,4.8987,5.0639,5.168,5.2189,5.2198,5.2562,5.3039,5.2601,5.2636,5.2912,5.2713,5.2466,5.2287,0.0,0.0,0.0,0.0,0.0,0.0,0.0,0.0,0.0,4.3244,0.0,0.0,0.0,0.0,4.263,4.2797,4.3276,4.3758,4.4182,4.4364,4.4527,4.4802,4.4962,4.5068,4.5136,4.5136,4.5255,4.5463,4.5281,4.5278,4.5406,4.514,4.5376,4.6001,4.5315,4.4987,4.4985,4.4923,4.503,4.5174,0.0,0.0,4.6726,0.0,0.0,0.0,0.0,0.0,0.0,0.0,0.0,0.0,0.0,0.0,0.0,0.0,0.0,0.0,5.1175,0.0,0.0,0.0,0.0,5.343,0.0,0.0,0.0,0.0,0.0,0.0,0.0,0.0,0.0,0.0,0.0,0.0,0.0,0.0,0.0,0.0,0.0,0.0,0.0,0.0,0.0,0.0,0.0,0.0,5.0463,4.9158,4.8244,4.7874,4.6834,4.6344,4.647,4.6499,4.6499,4.6504,4.6718,4.7111,4.772,4.9427,5.004,4.9821,5.1567,5.2471,5.2663,5.2707,5.3268,5.4058,5.3563,5.358,5.3886,5.3637,5.3384,5.3161,0.0,0.0,0.0,0.0,0.0,0.0,0.0,0.0,4.408,4.2941,0.0,0.0,0.0,0.0,0.0,4.3767,4.4043,4.4327,4.4892,4.4497,4.4421,4.4739,4.4986,4.5114,4.5181,4.5181,4.5578,4.6397,4.6265,4.6542,4.7202,4.6899,4.7137,4.7781,4.751,4.7057,4.6442,0.0,4.6328,4.6374,0.0,4.6255,4.7013,0.0,0.0,0.0,4.8018,4.827,0.0,4.9076,0.0,0.0,0.0,0.0,0.0,0.0,0.0,0.0,0.0,0.0,0.0,0.0,0.0,0.0,0.0,0.0,0.0,0.0,0.0,0.0,0.0,0.0,0.0,0.0,0.0,0.0,0.0,0.0,0.0,0.0,0.0,0.0,0.0,0.0,0.0,0.0,0.0,5.0738,4.9857,4.8959,4.8102,4.7323,4.726,4.7312,4.7435,4.7369,4.7339,4.7354,4.8144,4.9382,5.0977,5.1012,5.152,5.24,5.2441,5.2912,5.3642,5.3635,5.4259,5.5146,5.5093,5.4652,5.4094,5.4937,5.4721,5.4141,0.0,0.0,0.0,0.0,0.0,0.0,4.288,4.3709,4.385,0.0,0.0,0.0,4.1198,4.0961,4.1299,4.2185,4.1997,4.2122,4.2932,4.3212,4.3631,4.4288,4.449,4.4662,4.4764,4.4864,4.5318,4.6177,4.5803,4.6092,4.7066,4.662,4.6913,4.7735,4.7545,4.7555,4.7644,4.6896,0.0,4.6168,4.552,4.5641,0.0,0.0,0.0,0.0,0.0,4.6525,4.692,0.0,4.8673,4.9301,0.0,0.0,0.0,0.0,0.0,0.0,5.0529,0.0,0.0,0.0,0.0,0.0,0.0,0.0,0.0,0.0,0.0,0.0,0.0,0.0,0.0,0.0,0.0,0.0,0.0,0.0,0.0,0.0,0.0,0.0,0.0,0.0,0.0,0.0,5.2362,5.2181,5.2563,5.1225,5.0076,4.9265,4.8599,4.8314,4.8408,4.8306,4.8224,4.8248,4.8994,4.9632,5.0083,5.1324,5.2073,5.2453,5.3058,5.388,5.4772,5.4748,5.5259,5.5999,5.5389,5.5438,5.5669,5.4717,5.4609,5.4881,0.0,0.0,0.0,0.0,0.0,4.2053,4.292,4.3782,4.3945,0.0,0.0,0.0,4.1065,4.1361,4.1917,4.2528,4.1862,4.1811,4.2782,4.2812,4.3232,4.4132,4.4281,4.4543,4.5006,4.4863,4.5154,4.5961,4.5693,4.6223,4.7484,4.7127,4.7417,4.8167,4.7993,0.0,0.0,0.0,0.0,0.0,4.5363,0.0,0.0,4.5256,4.5164,0.0,0.0,0.0,4.5735,4.6698,4.8202,0.0,0.0,0.0,0.0,0.0,0.0,0.0,0.0,0.0,0.0,0.0,0.0,0.0,5.1888,5.242,0.0,0.0,0.0,0.0,0.0,0.0,0.0,0.0,0.0,0.0,0.0,0.0,0.0,0.0,0.0,0.0,0.0,0.0,0.0,0.0,5.2984,5.2997,5.3159,5.2269,5.1551,5.1109,5.0225,4.9811,4.9829,4.9729,4.9668,4.9648,5.0403,5.0959,5.1324,5.1943,5.246,5.2913,5.3514,5.429,5.5248,5.563,5.6053,5.6414,5.5945,5.6055,5.6391,5.5427,5.5389,5.5769,0.0,0.0,3.996,4.0852,4.1503,4.2167,4.2878,4.3781,4.399,0.0,4.2676,4.2268,4.1501,4.2234,4.314,4.3977,4.2977,4.2687,4.371,4.3223,4.3348,4.4327,4.4399,4.4827,4.5656,4.5153,4.5208,4.589,4.5839,4.6621,4.8152,4.7874,4.8141,4.8803,4.855,0.0,0.0,0.0,0.0,4.6269,4.5302,4.5042,0.0,0.0,4.5421,4.4976,4.4807,4.4761,4.4894,4.5693,4.7509,0.0,0.0,0.0,0.0,0.0,4.907,0.0,0.0,0.0,0.0,0.0,0.0,0.0,5.0669,5.1105,5.1619,0.0,0.0,0.0,0.0,0.0,0.0,0.0,0.0,0.0,0.0,0.0,0.0,0.0,0.0,0.0,0.0,0.0,5.3359,5.2583,5.3275,5.3339,5.2439,5.2463,5.2558,5.2723,5.181,5.1388,5.1583,5.1447,5.1369,5.1386,5.2094,5.2818,5.3475,5.2663,5.2838,5.3773,5.3789,5.4375,5.5399,5.6261,5.6575,5.6514,5.6528,5.6508,5.6522,5.668,5.6711,5.676,0.0,3.7936,3.824,3.8121,3.8914,4.0043,4.1439,4.2321,4.2709,4.2364,4.233,4.2602,4.3282,4.346,4.374,4.4335,4.3881,4.3694,4.406,4.4484,4.4771,4.4939,4.5443,4.585,4.6099,4.6115,4.6211,4.6382,4.6079,4.6547,4.7701,4.7224,4.7497,4.8323,4.8072,0.0,0.0,0.0,0.0,4.5442,4.4631,0.0,4.468,4.5042,4.4569,4.3814,4.4163,4.3924,4.3691,0.0,4.6876,4.7622,0.0,0.0,0.0,0.0,0.0,0.0,0.0,0.0,0.0,0.0,0.0,0.0,4.922,4.9845,5.0433,0.0,0.0,0.0,0.0,0.0,0.0,0.0,0.0,0.0,0.0,0.0,0.0,0.0,0.0,0.0,0.0,0.0,5.3598,5.337,5.3553,5.334,5.2441,5.2407,5.2775,5.3545,5.2079,5.1974,5.3389,5.264,5.2541,5.3177,5.33,5.3412,5.356,5.2676,5.3204,5.4696,5.4056,5.4745,5.6274,5.6516,5.6556,5.6499,5.6553,5.6558,5.66,5.7298,5.7555,5.7656,3.7223,3.7618,3.7872,3.7758,3.8698,3.9807,4.0752,4.2261,4.3006,4.2206,4.2597,4.3103,4.3375,4.3621,4.4105,4.4813,4.4348,4.4102,4.4333,4.4932,4.5275,4.528,4.5748,4.6248,4.6796,4.6513,4.6359,4.6409,4.6205,4.6576,4.7494,4.7131,4.7189,4.7638,4.7606,4.7093,0.0,0.0,4.4384,4.3986,4.4068,0.0,4.3698,4.4005,4.3371,4.2467,4.2975,4.2843,4.2687,4.4222,4.54,0.0,0.0,4.7257,4.8383,0.0,4.7276,4.7851,0.0,0.0,0.0,4.7008,0.0,0.0,0.0,4.8538,4.9086,4.9926,0.0,0.0,0.0,0.0,0.0,0.0,0.0,0.0,0.0,0.0,0.0,0.0,0.0,0.0,0.0,0.0,5.3642,5.3596,5.3649,5.3462,5.3028,5.3022,5.3275,5.3794,5.3005,5.3018,5.3836,5.3799,5.398,5.4349,5.389,5.3637,5.3637,5.2764,5.313,5.4407,5.4461,5.5257,5.6499,5.6562,5.6562,5.6562,5.6601,5.6561,5.6557,5.6971,5.7419,5.7935,3.763,3.7841,3.8023,3.8069,3.8977,3.9841,4.0261,4.2051,4.315,4.256,4.3021,4.3399,4.3278,4.3718,4.4397,4.537,4.4843,4.4611,4.4806,4.53,4.5599,4.5766,4.6098,4.6654,4.75,4.6873,4.6468,4.6284,4.6194,4.6544,4.7132,4.6943,4.6932,4.7074,4.7004,4.6317,0.0,0.0,0.0,4.2551,0.0,4.3082,4.236,4.273,4.2166,4.1239,4.1695,4.1909,4.2075,4.2728,0.0,4.5131,4.4814,4.6298,0.0,0.0,0.0,0.0,0.0,0.0,0.0,0.0,0.0,4.6438,0.0,0.0,0.0,4.934,0.0,0.0,0.0,0.0,0.0,0.0,0.0,0.0,0.0,0.0,0.0,0.0,0.0,0.0,0.0,0.0,5.2908,5.3063,5.2962,5.293,5.3124,5.3171,5.3314,5.354,5.3428,5.3598,5.4047,5.4567,5.5003,5.5261,5.4373,5.3985,5.3958,5.313,5.3215,5.4126,5.4861,5.5681,5.6518,5.6561,5.6594,5.6589,5.6589,5.6541,5.6526,5.687,5.7427,5.8165,3.7797,3.8004,3.8219,3.7758,3.8022,3.8626,3.9413,4.0068,4.1388,4.38,4.3099,4.2975,4.457,0.0,0.0,0.0,0.0,0.0,4.6103,0.0,4.655,4.6825,4.7295,4.7696,4.7926,4.7895,4.7315,4.6122,4.6148,4.622,4.6245,4.599,4.6266,4.6985,4.6109,0.0,0.0,0.0,4.2848,0.0,4.1642,4.1255,0.0,4.1394,4.1122,4.0461,4.0808,4.1473,4.2188,0.0,4.3441,4.4745,0.0,4.5476,4.6334,0.0,0.0,0.0,0.0,0.0,0.0,0.0,4.6201,0.0,0.0,0.0,4.7574,4.7815,0.0,0.0,0.0,0.0,0.0,0.0,0.0,0.0,0.0,0.0,0.0,0.0,0.0,0.0,0.0,0.0,0.0,5.1154,5.0601,5.0558,5.1333,5.138,5.1779,5.2614,5.1906,5.2616,5.4913,5.4266,5.4728,5.6225,5.5369,5.4951,5.4899,5.407,5.4153,5.5062,5.5136,5.5698,5.6484,5.6508,5.6493,5.6491,5.6491,5.653,5.668,5.8162,5.8788,5.8992,3.8979,3.8561,3.8177,3.7382,3.8284,3.9127,3.9223,3.9476,4.0332,4.2267,4.1492,4.1242,0.0,0.0,0.0,0.0,0.0,4.5828,0.0,0.0,4.6731,4.6717,0.0,0.0,4.7548,4.7627,4.7404,4.6973,4.6952,4.6988,4.7045,4.6649,4.6468,4.6328,4.5784,0.0,4.3963,0.0,4.202,0.0,0.0,0.0,0.0,3.9891,3.9865,3.9593,3.9892,4.0185,4.0534,0.0,4.2121,0.0,0.0,0.0,0.0,0.0,0.0,0.0,0.0,0.0,0.0,0.0,0.0,0.0,0.0,0.0,4.6002,0.0,0.0,0.0,0.0,0.0,0.0,0.0,0.0,0.0,0.0,0.0,0.0,0.0,0.0,0.0,0.0,0.0,0.0,0.0,0.0,5.0879,5.1731,5.1805,5.202,5.2491,5.2658,5.3224,5.4344,5.4495,5.5166,5.6398,5.5554,5.5155,5.5159,5.4786,5.4816,5.5231,5.5742,5.6168,5.6504,5.6516,5.6497,5.6566,5.7024,5.6907,5.6641,5.7814,5.8563,5.9119,4.0698,3.9971,3.9262,3.8421,3.9266,3.9859,3.9345,3.9222,3.9666,4.0891,0.0,0.0,4.0671,4.1484,0.0,0.0,4.4158,4.4767,0.0,0.0,4.6105,0.0,0.0,0.0,0.0,4.7093,4.7196,4.727,4.7173,4.7232,4.7399,4.7007,4.6472,4.591,0.0,4.4418,4.3139,0.0,4.1339,4.0483,3.9031,3.8154,3.7903,3.8537,3.8667,3.8515,3.8758,3.873,3.8666,3.9199,4.0256,0.0,4.1057,0.0,0.0,0.0,0.0,0.0,4.4394,0.0,0.0,0.0,0.0,0.0,0.0,0.0,0.0,0.0,0.0,0.0,0.0,0.0,0.0,0.0,0.0,0.0,0.0,0.0,0.0,0.0,0.0,0.0,0.0,0.0,0.0,0.0,5.0699,5.1048,5.1939,5.1967,5.202,5.2136,5.3019,5.3594,5.3827,5.4693,5.5572,5.6422,5.5822,5.558,5.5568,5.5576,5.5546,5.5576,5.6232,5.6487,5.6494,5.6471,5.6453,5.6515,5.7113,5.7,5.6624,5.7926,5.8797,5.9394,4.2884,4.2572,0.0,0.0,0.0,4.044,3.9786,3.9142,3.9164,0.0,0.0,0.0,0.0,0.0,0.0,0.0,0.0,4.2738,4.4169,0.0,4.4431,0.0,0.0,4.5728,0.0,0.0,4.6649,4.6447,4.6301,4.6374,4.6637,4.6228,4.603,4.5945,4.4783,4.3968,4.3439,4.2333,4.1209,4.0058,3.9147,3.7869,3.6631,0.0,3.7502,3.7169,3.7334,0.0,0.0,3.6854,3.7888,0.0,0.0,0.0,0.0,0.0,0.0,0.0,0.0,0.0,0.0,4.3692,0.0,0.0,0.0,0.0,4.6192,0.0,0.0,0.0,0.0,0.0,0.0,0.0,0.0,0.0,0.0,0.0,0.0,0.0,0.0,0.0,0.0,0.0,0.0,4.9834,4.9903,5.0297,5.1114,5.1139,5.1175,5.1247,5.2143,5.3038,5.3896,5.4744,5.5628,5.6487,5.6466,5.644,5.6445,5.6444,5.6476,5.645,5.65,5.6514,5.6492,5.6411,5.6393,5.6393,5.6441,5.643,5.6703,5.9188,6.0143,6.0035,0.0,0.0,0.0,0.0,0.0,4.1306,4.1171,3.991,0.0,0.0,0.0,0.0,0.0,3.8802,3.9015,0.0,0.0,4.1215,4.2633,4.3036,0.0,0.0,0.0,4.6038,0.0,0.0,0.0,0.0,4.6277,4.6423,4.6847,4.635,4.608,4.5945,0.0,4.376,0.0,0.0,0.0,0.0,0.0,3.7595,3.6645,0.0,0.0,3.6169,3.6227,3.5954,0.0,3.6006,3.686,3.7754,3.7612,3.9117,4.0843,4.0245,4.1213,0.0,0.0,0.0,4.3015,4.297,0.0,0.0,0.0,0.0,0.0,0.0,0.0,0.0,0.0,0.0,0.0,0.0,0.0,0.0,0.0,0.0,0.0,0.0,0.0,0.0,0.0,0.0,0.0,4.9864,5.0437,5.1103,0.0,5.1991,5.208,5.2104,5.2983,5.3607,5.3889,5.4773,5.5649,5.6519,5.6484,5.6519,5.6507,5.6499,5.6475,5.6429,5.6414,5.6429,5.6427,5.6352,5.6325,5.6457,5.7548,5.7599,5.7243,5.8784,5.9341,5.9451,4.2775,0.0,0.0,0.0,0.0,0.0,0.0,0.0,0.0,0.0,3.8114,0.0,3.8103,0.0,3.8012,0.0,3.9737,4.0445,4.1719,4.2122,0.0,4.3727,4.4518,0.0,0.0,0.0,0.0,0.0,0.0,4.6705,4.6998,4.6458,4.6105,4.587,0.0,4.3643,4.2614,0.0,4.0885,0.0,0.0,3.7151,0.0,0.0,3.5645,3.5,0.0,3.4591,3.3929,3.4431,3.5045,3.5588,3.5604,3.6973,3.8467,3.8008,3.9061,4.0422,4.044,4.094,0.0,4.1771,4.227,0.0,4.2252,0.0,0.0,0.0,0.0,0.0,0.0,0.0,0.0,0.0,0.0,0.0,0.0,4.7907,0.0,0.0,0.0,0.0,0.0,0.0,4.9997,4.9946,5.0748,5.1449,0.0,0.0,5.2104,5.2146,5.3302,5.3922,5.3886,5.5072,5.5937,5.6518,5.6506,5.6487,5.6458,5.6449,5.6414,5.6349,5.6349,5.6358,5.6341,5.6278,5.644,5.6795,5.7892,5.8102,5.801,5.9287,5.9555,5.9529,0.0,0.0,0.0,0.0,4.2034,0.0,0.0,0.0,3.953,0.0,3.794,3.7026,3.7187,3.6579,3.6693,3.806,3.9168,0.0,4.134,4.1208,0.0,0.0,4.2291,4.2712,4.4613,0.0,0.0,0.0,0.0,4.7075,4.6975,4.6458,4.603,4.5717,4.464,0.0,4.2395,4.1258,4.027,3.9409,3.7739,3.6601,3.5874,3.5558,0.0,3.3789,3.412,3.3267,3.2055,3.2305,3.2578,3.2873,3.3521,3.461,3.5632,3.5554,3.7025,3.8599,3.813,3.8958,3.999,4.0167,0.0,0.0,0.0,0.0,4.3136,0.0,0.0,0.0,0.0,0.0,0.0,0.0,0.0,0.0,0.0,0.0,0.0,0.0,0.0,0.0,0.0,4.9474,4.9958,4.9882,5.0719,5.1257,0.0,0.0,5.1317,5.1317,5.3079,5.3964,5.39,5.5623,5.6507,5.6484,5.6494,5.6461,5.6386,5.6386,5.6344,5.6302,5.6302,5.6265,5.6199,5.6192,5.6675,5.7405,5.7443,5.8025,5.9033,6.0638,6.0787,6.0274,4.2001,4.2056,4.1913,0.0,4.1071,4.0901,0.0,0.0,0.0,0.0,3.8983,3.8564,3.7751,3.7579,3.7647,3.7934,3.8082,0.0,0.0,0.0,0.0,4.2043,4.3154,4.368,4.3651,4.5022,0.0,4.5743,0.0,0.0,4.6684,4.6253,4.5854,4.5372,0.0,0.0,4.182,4.0789,3.9814,3.8862,3.7025,3.6164,0.0,0.0,3.4911,3.4575,3.4476,3.3486,3.2258,3.2521,3.2608,3.2575,3.2592,3.3043,3.3706,3.4439,3.582,3.7237,3.8031,3.8797,3.9502,3.9923,4.0203,4.0402,0.0,0.0,0.0,0.0,0.0,0.0,0.0,0.0,0.0,0.0,0.0,0.0,0.0,0.0,0.0,0.0,0.0,0.0,0.0,4.7699,4.8179,4.8142,4.9565,0.0,0.0,0.0,0.0,5.1362,5.3096,5.3975,5.3984,5.5655,5.6489,5.6514,5.6437,5.6402,5.6412,5.6347,5.6314,5.6304,5.6239,5.6199,5.6194,5.6164,5.659,5.7392,5.8058,5.9181,6.0467,6.0414,6.0708,6.1218,4.2158,0.0,0.0,4.1029,0.0,0.0,4.0445,0.0,0.0,3.8737,3.8825,0.0,3.7905,3.8352,3.8755,3.883,3.8934,0.0,3.9751,0.0,0.0,4.1265,4.2077,4.2745,4.3292,4.4654,0.0,4.5759,0.0,0.0,4.6645,4.5942,4.532,4.4777,0.0,4.255,4.1396,4.003,3.9053,3.8302,3.6945,0.0,0.0,3.5739,3.5185,3.4656,3.5153,3.4439,3.3213,3.2856,3.2527,3.2288,3.2311,3.2448,3.2698,3.3508,3.453,3.5564,3.651,3.7351,3.8115,3.8903,3.9212,3.9475,3.9919,3.9945,3.9914,0.0,0.0,0.0,0.0,0.0,0.0,0.0,0.0,0.0,0.0,0.0,0.0,0.0,0.0,0.0,0.0,0.0,4.7695,0.0,0.0,0.0,0.0,0.0,0.0,5.0834,5.2525,5.3435,5.3435,5.4709,5.553,5.5896,5.5852,5.6002,5.6347,5.6308,5.6259,5.6223,5.6192,5.6156,5.6125,5.6054,5.6756,5.7949,5.9156,6.0471,6.1602,6.1264,6.15,6.2065,0.0,0.0,0.0,0.0,0.0,0.0,0.0,3.9424,0.0,3.8287,0.0,3.8315,3.8099,3.9075,3.9845,4.0177,0.0,4.0607,4.0216,3.9421,3.9479,4.0665,4.0423,4.113,4.3019,4.4189,0.0,0.0,0.0,0.0,4.6293,4.5466,4.4686,4.3992,0.0,0.0,0.0,3.9205,3.8269,0.0,3.7135,3.656,3.6115,3.6315,3.5654,3.4788,3.5962,3.5612,3.4418,3.3306,3.2617,3.2196,3.2318,3.2228,3.2228,3.2849,3.3426,3.3967,3.453,3.543,3.6432,3.7327,3.8068,3.8748,3.9385,3.9047,3.8703,3.8999,3.8369,0.0,0.0,0.0,0.0,0.0,0.0,0.0,0.0,0.0,0.0,0.0,0.0,0.0,0.0,0.0,0.0,0.0,0.0,0.0,0.0,0.0,0.0,5.0104,5.1676,0.0,5.2692,0.0,5.4381,5.5251,5.5166,5.558,5.6453,5.631,5.6219,5.6141,5.6163,5.6118,5.6012,5.6012,5.6982,5.8665,6.0325,6.1523,6.2316,6.2684,6.2861,6.3022,0.0,0.0,0.0,0.0,0.0,4.043,3.9706,3.9424,3.9146,3.8722,3.9424,3.9723,3.8959,4.0196,4.0925,4.0617,4.0543,0.0,0.0,0.0,0.0,4.0197,4.0959,4.1534,4.1791,4.2788,4.3532,0.0,0.0,0.0,4.4389,4.4725,4.4212,4.3015,0.0,0.0,3.9421,3.876,0.0,3.7834,3.7052,3.6699,3.6527,3.602,3.6231,3.6768,3.644,3.5711,3.4788,3.4061,3.3457,3.2912,3.1842,3.1544,3.1743,3.2437,3.3123,3.3715,3.4048,3.4898,3.5721,3.5728,3.6932,3.8146,3.8537,3.8016,3.7581,3.7917,3.6205,3.5654,3.887,0.0,0.0,0.0,0.0,0.0,0.0,0.0,0.0,0.0,0.0,0.0,0.0,0.0,0.0,0.0,0.0,0.0,0.0,0.0,0.0,0.0,0.0,0.0,0.0,0.0,5.4702,5.6147,5.5395,5.5858,5.7333,5.6527,5.6163,5.6258,5.618,5.6062,5.6012,5.6012,5.6955,5.8567,6.0261,6.1428,6.2408,6.39,6.4503,6.4614,0.0,0.0,0.0,0.0,0.0,0.0,0.0,3.9861,0.0,3.9175,3.9991,4.0618,4.047,4.1624,4.2337,4.2204,4.1766,4.1548,4.1623,4.0693,4.0264,4.0588,4.1028,0.0,4.1408,4.2271,4.3184,4.4058,0.0,0.0,4.4315,4.3766,4.326,4.2816,0.0,4.0786,0.0,0.0,0.0,3.8165,3.7659,3.7304,3.7016,3.7016,3.7119,3.7272,3.7181,3.697,3.6655,3.5646,3.4697,3.384,3.3449,3.2924,3.2547,3.2926,3.3354,3.3694,3.3658,3.4011,3.4426,3.4545,3.5406,3.6306,3.6488,3.6419,3.6385,3.658,3.5751,3.5861,3.8774,4.1197,0.0,0.0,0.0,0.0,0.0,0.0,0.0,0.0,0.0,0.0,0.0,0.0,0.0,0.0,0.0,0.0,0.0,0.0,0.0,0.0,0.0,0.0,0.0,0.0,0.0,5.5039,5.4557,5.519,5.6813,5.6372,5.6209,5.6202,5.6126,5.607,5.6042,5.6425,5.7255,5.8526,6.0228,6.1692,6.2998,6.4293,6.5114,6.5596,0.0,4.2453,0.0,0.0,4.1302,0.0,4.0319,4.0534,4.056,3.9809,4.0377,4.1179,4.2084,4.298,4.3574,4.373,4.3196,4.2731,4.2479,4.159,4.1067,4.1069,4.1067,4.1105,4.1153,4.201,4.2945,0.0,0.0,0.0,0.0,0.0,0.0,0.0,0.0,0.0,0.0,0.0,3.9252,3.8892,3.8743,3.8376,3.793,3.8318,3.806,3.7614,3.7974,3.8312,3.8484,3.7621,3.6258,3.49,3.51,3.441,3.3511,3.3573,3.3813,3.3973,3.3585,3.3578,3.3742,3.3983,3.4523,3.5046,3.5112,3.551,3.5863,3.5901,3.626,3.6996,3.8553,4.0424,0.0,0.0,0.0,0.0,0.0,0.0,0.0,0.0,0.0,0.0,0.0,0.0,0.0,0.0,0.0,0.0,0.0,0.0,0.0,0.0,0.0,5.0232,5.0388,0.0,5.2305,0.0,5.3841,5.4647,5.6389,5.6308,5.6216,5.6102,5.6141,5.6064,5.6072,5.6994,5.772,5.8451,6.0388,6.2032,6.3433,6.4343,6.5249,6.6036,0.0,0.0,0.0,0.0,0.0,0.0,0.0,4.136,4.098,4.0791,4.0733,4.1462,4.3466,4.4022,4.4192,4.4206,4.434,4.3897,4.2642,4.2161,4.1637,4.1037,4.1576,4.1526,4.0781,4.1533,4.2199,0.0,0.0,0.0,0.0,0.0,0.0,0.0,0.0,0.0,0.0,3.9809,3.9998,4.021,4.0173,4.0033,3.9795,3.9444,3.9073,3.8732,3.8723,3.8834,3.9089,3.9943,3.8402,3.5981,3.5276,3.4532,3.393,3.393,3.4422,3.4865,3.4269,3.4475,3.4793,3.4572,3.5282,3.6082,3.6148,3.662,3.702,3.697,3.7654,3.813,3.7744,3.9306,4.1236,0.0,0.0,0.0,0.0,0.0,0.0,0.0,0.0,0.0,0.0,0.0,0.0,0.0,0.0,0.0,0.0,0.0,0.0,4.9922,0.0,5.0501,5.1282,5.1377,0.0,5.5077,5.4129,5.4989,5.7327,5.649,5.6172,5.6192,5.6192,5.6126,5.6111,5.7569,5.8219,5.8443,6.1,6.2451,6.3232,6.4244,6.5064,6.5676,0.0,0.0,0.0,0.0,0.0,0.0,0.0,4.2147,4.2356,4.2167,4.1767,4.2151,4.3863,4.4325,4.4541,4.4624,4.4426,4.4098,4.3823,4.3166,4.2522,4.201,4.2402,4.2213,4.1324,4.1728,4.2315,0.0,0.0,0.0,0.0,0.0,0.0,0.0,0.0,4.0874,4.0191,4.0725,4.0781,4.0618,4.1157,4.1096,4.0631,4.0432,4.0238,3.9982,3.9639,3.9966,4.0573,4.0608,3.9374,3.7742,3.7338,3.6926,3.6476,3.5892,3.6101,3.6512,3.6353,3.5862,3.544,3.5544,3.6014,3.6398,3.5955,3.7501,3.8802,3.8047,3.874,3.9421,3.9127,4.0751,4.2384,0.0,0.0,0.0,0.0,0.0,0.0,0.0,0.0,0.0,0.0,0.0,0.0,0.0,0.0,0.0,0.0,0.0,0.0,4.8632,0.0,4.951,4.9854,5.0889,5.2409,5.4363,5.3968,5.4776,5.6583,5.6325,5.6163,5.6087,5.6064,5.5947,5.5853,5.6989,5.7728,5.8321,6.0392,6.1979,6.3179,6.4008,6.4824,6.5523,4.302,0.0,4.3095,0.0,4.3629,4.358,4.2659,4.286,4.3121,4.3072,4.2521,4.2708,4.4259,4.447,4.459,4.48,4.4559,4.4357,4.4288,4.3913,4.3408,4.2826,4.3053,0.0,4.1977,4.2241,4.2694,4.34,4.2578,0.0,0.0,0.0,0.0,0.0,4.1417,4.1317,4.0777,4.1492,4.1683,4.157,4.2352,4.2303,4.1694,4.173,4.1418,4.0956,4.0978,4.1303,4.1655,4.1564,4.08,3.9848,3.9436,3.9088,3.8678,3.7958,3.7883,3.8086,3.8155,3.7488,3.6827,3.716,3.734,3.7335,3.6989,3.8369,3.9448,3.8652,3.9277,4.001,4.0014,4.1524,4.2871,4.3247,0.0,0.0,0.0,0.0,0.0,0.0,0.0,4.6316,4.6287,0.0,0.0,0.0,0.0,0.0,0.0,0.0,0.0,0.0,0.0,0.0,0.0,5.0787,5.2189,5.3833,5.3802,5.455,5.599,5.6133,5.6133,5.6015,5.6227,5.6203,5.6121,5.7447,5.8143,5.8566,6.0278,6.1732,6.3002,6.3473,6.436,6.5283,4.3561,4.3343,4.35,4.5417,4.4658,4.3963,4.4387,4.3495,4.2853,4.324,4.2761,4.3041,4.4703,4.4542,4.4398,4.4569,4.5029,4.4794,4.3574,4.4202,4.4136,0.0,0.0,4.3279,4.2633,4.3063,4.337,4.3593,0.0,0.0,4.2762,0.0,4.1153,4.129,4.129,4.129,4.1321,4.2074,4.2799,4.3392,4.3966,4.3845,4.3396,4.3504,4.2619,4.1484,4.2845,4.2718,4.2075,4.3267,4.3201,4.2362,4.1151,4.0416,3.9932,3.9811,3.9563,3.9376,3.9376,3.9313,3.9313,3.95,3.9376,3.9341,3.9902,3.9201,3.8482,3.866,3.9144,3.9583,3.9775,4.0845,4.2006,4.2863,0.0,0.0,0.0,0.0,0.0,0.0,4.6311,4.6311,4.6287,0.0,0.0,0.0,0.0,0.0,0.0,0.0,0.0,5.0061,5.0083,0.0,5.136,5.131,5.2177,5.3888,5.3741,5.4523,5.5993,5.5947,5.5929,5.6042,5.6753,5.7061,5.7191,5.9585,5.997,5.9262,6.0988,6.206,6.2611,6.2611,6.36,6.4871,4.3861,4.4106,4.4366,4.5243,4.5022,4.4626,4.4236,4.4083,4.3868,4.3606,4.3533,4.3598,4.3905,4.4267,4.4508,0.0,4.4913,4.4764,0.0,4.4089,4.3945,4.3426,4.3969,4.4134,4.3768,4.3747,4.3988,4.4489,0.0,0.0,0.0,4.1729,4.1708,4.2282,4.2351,4.2669,4.321,4.3873,4.3962,4.3668,4.4464,4.4411,4.3984,4.4122,4.4135,4.401,4.3847,4.378,4.3615,4.3353,4.3432,4.3658,4.3857,4.352,4.2792,4.1632,4.1515,4.162,4.1105,4.0468,4.0214,4.1579,4.1328,4.0778,4.0766,3.9806,3.8928,3.9073,3.9608,3.9814,3.8973,4.0309,4.1825,4.2846,0.0,0.0,0.0,0.0,0.0,0.0,4.7153,4.7403,0.0,4.8316,0.0,0.0,0.0,0.0,0.0,0.0,0.0,0.0,4.8863,0.0,4.9555,5.0659,5.212,5.3813,5.3775,5.4595,5.6079,5.6062,5.5977,5.5905,5.6744,5.6956,5.6881,5.8782,5.9311,5.9068,6.0165,6.1073,6.1758,6.1647,6.2593,6.3893,4.4262,4.4868,4.5327,4.5597,4.5505,4.5173,4.4534,4.461,4.4572,4.422,4.409,4.4011,4.3845,4.3973,0.0,4.4019,4.4297,4.4226,4.3599,4.3791,4.3857,4.3661,4.4489,4.4836,4.4641,0.0,0.0,4.5017,4.3795,4.282,4.2086,4.1877,4.2199,4.2998,4.3,4.3322,4.3868,4.4469,4.4307,4.3767,4.4571,4.4842,4.4821,4.4984,4.5274,4.5559,4.5096,4.4766,4.45,4.4065,4.406,4.4428,4.5473,4.5563,4.5047,4.3764,4.2999,4.2485,4.1997,4.1729,4.1848,4.2983,4.2554,4.1399,3.9605,3.8881,3.8525,3.8129,3.8853,3.9327,3.8655,4.0147,4.1789,4.2778,0.0,4.4989,0.0,0.0,0.0,0.0,0.0,0.0,0.0,4.8865,0.0,0.0,0.0,0.0,0.0,0.0,0.0,4.8447,4.888,0.0,4.958,5.063,5.2025,5.3757,5.4673,5.5627,5.6583,5.6467,5.6387,5.6295,5.7093,5.7462,5.7644,5.8925,5.9397,5.9368,5.9832,6.0523,6.1235,6.1086,6.2042,6.3313,4.4691,4.5603,0.0,0.0,4.5949,0.0,4.5247,4.5024,4.488,4.4849,4.4439,4.4148,4.4306,4.3706,4.3228,4.3028,0.0,0.0,0.0,4.343,4.3934,4.3981,4.4966,4.5431,4.5278,4.5614,4.5583,4.5153,4.413,4.3151,4.2109,4.2173,4.2687,4.3556,4.3457,4.3522,4.3718,4.4163,4.4136,4.3783,4.4431,4.5146,4.5844,4.5998,4.6188,4.6377,4.6488,4.5838,4.5,4.5219,4.5042,4.4924,4.6239,4.6688,4.66,4.5948,4.4162,4.2407,4.2281,4.311,4.3939,4.3814,4.3036,4.1172,3.697,3.6806,3.72,3.6084,3.7087,3.8209,3.8515,4.0215,4.1837,4.2651,4.3731,4.5109,4.6841,0.0,0.0,0.0,0.0,0.0,0.0,4.9179,4.914,0.0,0.0,0.0,0.0,0.0,5.0014,4.9911,4.9907,5.0254,5.0996,5.1119,5.2051,5.3805,5.6164,5.7345,5.7387,5.7186,5.7088,5.7093,5.7784,5.8451,5.913,5.9801,6.0022,5.9982,5.9902,6.0312,6.0908,6.0821,6.1731,6.2861,0.0,0.0,4.6285,4.6304,4.5949,4.5583,4.5241,4.5024,4.4763,4.4345,4.4164,4.3881,4.3266,4.3387,4.3197,4.239,4.289,4.327,4.3362,4.3713,4.4149,4.4721,4.5214,4.576,4.623,4.612,4.5504,4.4458,4.3699,4.2907,4.2109,4.2815,4.3653,4.4495,4.5112,4.5537,4.5734,4.5832,4.5244,4.4256,4.442,4.522,4.6331,4.6274,4.7342,4.8699,4.7335,4.7223,4.7408,4.5676,4.5911,4.7038,4.7664,4.7509,4.7004,4.6565,4.5206,4.3795,4.3709,4.4146,4.4645,4.4505,4.2234,3.9408,3.6959,3.5522,3.4669,3.4494,3.606,3.7438,3.7422,3.9553,4.1615,4.2563,4.4199,4.5788,4.6885,0.0,0.0,0.0,5.1291,5.2038,5.2687,5.2184,5.1796,0.0,0.0,0.0,0.0,5.0806,5.0264,4.8971,4.952,4.9918,5.0119,5.1425,5.2945,5.4653,5.638,5.7232,5.7244,5.7755,5.7889,5.7748,5.8553,5.8825,5.8767,5.9624,5.9853,5.9702,5.9685,5.9781,5.9935,5.9847,6.0378,6.1112,4.5049,4.5989,4.6652,4.6477,4.6407,4.6159,4.5573,4.5326,4.5056,4.4678,4.4148,4.3556,4.303,4.3097,4.2909,4.227,4.2703,4.318,4.3622,4.3815,4.4455,4.5701,4.5795,4.6156,4.6722,4.6649,4.6007,4.4689,4.3912,4.3202,4.2586,4.3426,4.4269,4.5082,4.5897,4.6127,4.5897,4.5897,4.5203,4.4128,4.4128,4.5009,4.6326,4.6244,4.7248,4.8575,4.7808,4.7801,4.8023,4.6973,4.7272,4.8189,4.8985,4.9003,4.8689,4.8151,4.6335,4.453,4.448,4.56,4.6623,4.5677,4.326,4.0244,3.7002,3.5364,3.4565,3.4629,3.6131,3.7609,3.8183,3.9958,4.1953,4.3743,4.5308,4.6885,4.8555,5.0086,0.0,5.2276,5.2922,5.3487,5.3938,5.3553,5.3278,5.3235,0.0,0.0,5.1884,5.1433,5.0757,4.9821,5.0138,5.035,5.0308,5.2056,5.3829,5.5511,5.7044,5.7766,5.7748,5.8396,5.8578,5.8369,5.8811,5.9011,5.911,5.9492,5.9578,5.9436,5.9436,5.951,5.9545,5.9545,6.0037,6.0622,4.5017,4.6256,4.7098,4.6756,4.6961,4.6892,4.6012,4.5652,4.5349,4.5149,4.4031,4.3166,4.3037,4.2719,4.2492,4.2429,4.2686,4.3104,4.362,4.3745,4.4586,4.6319,4.6282,4.6429,4.6903,4.6906,4.6388,4.5308,4.4297,4.3578,4.3143,4.4027,4.4812,4.5468,4.6224,4.6157,4.553,4.5399,4.479,4.3948,4.3785,4.4715,4.6172,4.5952,4.6604,4.7644,4.7854,4.7985,4.8105,4.8399,4.8719,4.9148,5.0058,5.0521,5.064,5.0006,4.7986,4.5823,4.5242,4.7085,4.8793,4.7299,4.5046,4.2113,3.7659,3.6082,3.5587,3.5689,3.6897,3.83,3.9551,4.1007,4.2799,4.5355,4.6681,4.8276,5.0759,0.0,5.3102,5.389,5.4209,5.439,5.4371,5.4258,5.4168,5.4114,5.3217,5.2653,0.0,5.1732,5.1278,5.1214,5.1095,5.1114,5.1301,5.2957,5.4584,5.6211,5.761,5.8278,5.8333,5.8922,5.9147,5.9039,5.8905,5.9154,5.9563,5.9436,5.9345,5.9253,5.9272,5.9401,5.9528,5.9595,6.0138,6.0702,4.5561,4.6585,4.7303,4.7132,4.7132,4.6961,4.6333,4.5444,4.4671,4.4273,4.3205,4.2376,4.2137,4.2075,4.2109,4.2397,4.2558,4.2874,4.3399,4.346,4.4041,4.5354,4.5653,4.6187,4.7039,4.6092,4.5472,4.5308,4.4089,4.3457,4.3391,4.4863,4.5775,4.6155,4.6889,4.6912,4.6511,4.5841,4.5216,4.4569,4.3787,4.4695,4.6411,4.5377,4.6323,4.8076,4.75,4.8329,4.9552,4.8346,4.9405,5.1108,5.0613,5.076,5.1117,5.1135,5.0969,5.0232,4.7621,4.7903,4.9054,4.9532,4.6614,4.2926,4.0224,3.797,3.6538,3.6999,3.8085,3.9126,3.9702,4.193,4.4355,4.6281,4.8086,4.9861,5.1734,0.0,5.4686,5.4874,5.5603,5.6096,5.6123,5.5508,5.5105,5.5081,5.3553,5.2629,5.2653,5.1754,5.1224,5.1214,5.1101,5.1767,5.3174,5.4141,5.5117,5.6125,5.686,5.7576,5.8242,5.8821,5.9393,5.9817,5.976,5.9568,5.9327,5.9327,5.9215,5.9063,5.9234,5.9417,5.9622,5.9772,6.0045,6.0281,4.5401,4.6225,4.6912,4.7303,4.7436,4.7268,4.6719,4.5474,4.4471,4.4218,4.2827,4.1803,4.1519,4.1719,4.1915,4.1948,4.227,4.2649,4.3115,4.3488,4.4326,4.5741,4.5645,4.5851,4.6498,4.5886,4.5293,4.471,4.3823,4.3518,4.3743,4.5313,4.6109,4.6293,4.7412,4.7369,4.634,4.5971,4.5589,4.5135,4.4141,4.4696,4.6048,4.5034,4.5545,4.6882,4.7184,4.8227,4.9472,4.9301,5.0497,5.2006,5.1717,5.2232,5.2834,5.2061,5.1846,5.1846,5.2004,5.194,5.1715,5.1318,4.8862,4.5723,4.2289,4.04,3.9334,3.9252,3.9941,4.08,4.1676,4.3125,4.5062,4.791,4.9498,0.0,0.0,5.4879,5.5725,5.5809,5.6198,5.6487,5.6517,5.6171,5.5959,5.5962,5.4723,5.3806,5.3377,5.2454,5.1715,5.1234,5.1535,5.2291,5.353,5.4332,5.5183,5.6076,5.7178,5.783,5.8115,5.9228,5.9748,5.9803,5.9702,5.9492,5.912,5.91,5.9022,5.8962,5.9253,5.9505,5.9739,5.9937,6.0106,6.0251,4.5304,4.6126,4.6881,4.7472,4.7605,4.7538,4.7064,4.5561,4.4456,4.4221,4.2643,4.1423,4.1153,4.1488,4.1752,4.1686,4.2077,4.2492,4.2868,4.3419,4.4319,4.5621,4.5417,4.5454,4.5765,4.5538,4.4993,4.4174,4.3599,4.3549,4.407,4.5627,4.6377,4.6473,4.79,4.7631,4.6102,4.5983,4.578,4.5506,4.4454,4.4782,4.58,4.4918,4.5076,4.5882,4.6906,4.8088,4.9316,5.0164,5.1213,5.2259,5.2599,5.3323,5.3887,5.2877,5.2673,5.3245,5.5555,5.5529,5.4572,5.3333,5.1474,4.8899,4.5078,4.3157,4.2011,4.1666,4.1854,4.2433,4.3459,4.4133,4.5676,4.9141,0.0,0.0,0.0,5.5763,5.6344,5.6437,5.6293,5.622,5.6209,5.6207,5.6186,5.6227,5.5389,5.471,5.4219,5.299,5.2068,5.1502,5.2147,5.2817,5.3498,5.4491,5.5341,5.6003,5.7178,5.7753,5.781,5.914,5.9649,5.9416,5.9502,5.9382,5.9082,5.8982,5.9,5.9041,5.9382,5.9791,6.0219,6.0182,6.0404,6.0617,4.575,4.6909,4.7836,4.7704,4.7704,4.7571,4.7235,4.5662,4.4357,4.4052,4.2473,4.1256,4.1117,4.1254,4.1489,4.1849,4.2045,4.2333,4.2868,4.3056,4.3333,4.3794,4.4544,4.4936,4.4963,4.4566,4.4279,4.4174,4.3431,4.3425,4.4234,4.6014,4.6917,4.7072,4.8144,4.7804,4.6423,4.5939,4.563,4.5432,4.4539,4.5,4.6074,4.5215,4.5415,4.6228,4.6684,4.8113,4.9861,5.0134,5.0982,5.204,5.2724,5.2884,5.2977,5.3572,5.4627,5.5697,5.6239,5.6444,5.6463,5.6163,5.4186,5.1825,4.9806,4.6302,4.355,4.3794,4.354,4.339,4.3711,4.47,4.6422,4.9258,0.0,0.0,5.4738,5.5843,5.6416,5.6475,5.5767,5.5331,5.539,5.534,5.5318,5.5394,5.4521,5.4301,5.5074,5.2746,5.1672,5.229,5.3032,5.346,5.3498,5.5109,5.5921,5.6003,5.6058,5.6375,5.7016,5.7822,5.841,5.8882,5.9501,5.9626,5.9344,5.9234,5.9272,5.9381,5.9677,6.044,6.1311,6.0684,6.098,6.1555,4.6024,4.6924,4.7728,4.7967,4.7935,4.7638,4.6947,4.5503,4.423,4.3612,4.2222,4.1189,4.095,4.1086,4.1254,4.1388,4.1752,4.2109,4.2365,4.2743,4.334,4.4197,4.4677,4.49,4.4833,4.4374,4.3912,4.3374,4.2746,4.3062,4.4295,4.5587,4.6554,4.7098,4.7582,4.7235,4.6275,4.5559,4.5523,4.5875,4.4965,4.5423,4.6484,4.5728,4.5811,4.6398,4.6778,4.8146,4.9794,5.0075,5.1259,5.2789,5.3249,5.34,5.3682,5.4859,5.5303,5.5769,5.743,5.7808,5.7594,5.6925,5.601,5.4367,5.0999,4.9006,4.7357,4.5536,4.5192,4.5114,4.4834,4.5299,4.6608,4.9398,0.0,5.2164,5.4808,5.5447,5.5861,5.6443,5.5292,5.4683,5.5234,5.4742,5.4404,5.4498,5.4082,5.3779,5.3676,5.21,5.1586,5.243,5.3119,5.3713,5.431,5.5418,5.5998,5.6003,5.6454,5.6729,5.6923,5.7642,5.8029,5.8163,5.8859,5.878,5.8153,5.916,5.9324,5.8981,5.9831,6.0728,6.1486,6.0828,6.0992,6.144,4.6173,4.7108,4.7912,4.8224,4.8061,4.76,4.6812,4.544,4.4172,4.3394,4.2231,4.1423,4.1088,4.1187,4.1288,4.139,4.1752,4.2173,4.2655,4.3131,4.3764,4.4533,4.452,4.4607,4.4867,4.426,4.3599,4.2894,4.2514,4.3022,4.4311,4.5316,4.628,4.7143,4.7341,4.6894,4.5895,4.524,4.5368,4.6033,4.5429,4.5924,4.7039,4.6864,4.6744,4.6801,4.7384,4.8676,5.0127,5.0356,5.1589,5.3188,5.3625,5.3963,5.434,5.5356,5.528,5.5233,5.7187,5.7369,5.7169,5.7791,5.7515,5.6333,5.3338,5.1864,5.0485,4.8147,4.722,4.6643,4.6069,4.6109,4.7084,4.9551,5.0957,5.2515,5.4903,5.5223,5.5545,5.6427,5.4798,5.3945,5.4802,5.4027,5.3526,5.3543,5.3483,5.3061,5.2278,5.1763,5.18,5.2457,5.2825,5.3597,5.4815,5.5608,5.6016,5.6003,5.6503,5.6693,5.6652,5.7401,5.781,5.7914,5.838,5.8292,5.7969,5.9048,5.9224,5.8892,5.9942,6.1056,6.1923,6.0864,6.0981,6.1529,4.6274,4.76,4.8639,4.8547,4.8006,4.744,4.697,4.5491,4.4192,4.346,4.2655,4.198,4.1621,4.1588,4.1753,4.2077,4.2109,4.2655,4.3877,4.4288,4.4474,4.4506,4.3935,4.4019,4.4993,4.4097,4.3352,4.292,4.2905,4.3398,4.4311,4.5316,4.6315,4.7201,4.7636,4.6916,4.5394,4.4967,4.5185,4.5809,4.5809,4.6567,4.7808,4.859,4.8323,4.7637,4.8547,4.9768,5.0946,5.108,5.1899,5.3063,5.3847,5.4384,5.4754,5.4956,5.456,5.428,5.5072,5.4664,5.4943,5.8973,5.8798,5.7587,5.7513,5.4985,5.2463,5.1847,4.9747,4.7862,4.7301,4.7262,4.7928,4.9806,5.15,5.323,5.5058,5.5246,5.5558,5.6475,5.4292,5.3047,5.39,5.3123,5.2575,5.26,5.2598,5.2173,5.1249,5.1907,5.2324,5.2395,5.2291,5.3073,5.4893,5.5628,5.6012,5.6012,5.5998,5.6018,5.6009,5.685,5.76,5.8269,5.8088,5.8426,5.9075,5.8892,5.8953,5.9268,6.0018,6.1461,6.2845,6.0828,6.1055,6.2105,4.6591,4.759,4.8263,4.8203,4.7973,4.7436,4.6447,4.5614,4.476,4.3743,4.3209,4.2648,4.1882,4.1883,4.1883,4.1753,4.2077,4.2363,4.2445,4.2377,4.2605,4.3252,4.3492,4.4108,4.5194,4.4069,4.3731,4.4292,4.3267,4.3623,4.5275,4.5164,4.5932,4.7407,4.7104,4.6511,4.5699,4.5092,4.5203,4.5865,4.5865,4.6628,4.7845,4.8243,4.8457,4.8529,4.8425,4.9841,5.1664,5.1131,5.2159,5.3701,5.4245,5.4603,5.4783,5.4446,5.4282,5.4226,5.4599,5.445,5.4879,5.7742,5.8068,5.7687,5.7766,5.7032,5.5644,5.319,5.1279,4.9629,4.8344,4.8249,4.8722,4.9928,5.2054,5.3976,5.5151,5.4762,5.492,5.6406,5.3748,5.2374,5.3847,5.2581,5.1671,5.1678,5.1624,5.1458,5.1153,5.1276,5.1994,5.3288,5.3226,5.401,5.579,5.5397,5.5473,5.6054,5.6016,5.6018,5.6009,5.6821,5.7332,5.7582,5.8725,5.8633,5.7835,5.9592,5.9699,5.8824,6.0127,6.1274,6.2043,6.0609,6.0311,6.0488,4.6215,4.7126,4.7783,4.7865,4.7539,4.7085,4.6488,4.5753,4.4936,4.391,4.3584,4.3108,4.2206,4.2077,4.2109,4.2109,4.2523,4.2574,4.2008,4.196,4.2109,4.2501,4.2822,4.3667,4.5076,4.415,4.3991,4.4749,4.4026,4.4364,4.563,4.5364,4.6047,4.7392,4.6912,4.6533,4.6194,4.557,4.5735,4.6379,4.6434,4.7093,4.8052,4.8615,4.8776,4.8741,4.9184,5.0372,5.1727,5.1599,5.2698,5.4163,5.4388,5.4472,5.4496,5.4537,5.4235,5.3947,5.4318,5.4213,5.4353,5.6086,5.7213,5.8081,5.8859,5.883,5.7934,5.5326,5.3575,5.2001,5.0403,5.0235,5.0601,5.1519,5.3241,5.4804,5.5703,5.5078,5.5038,5.6441,5.4128,5.2823,5.3862,5.2629,5.1633,5.1264,5.118,5.113,5.1049,5.1367,5.2026,5.3107,5.3487,5.4301,5.5715,5.5064,5.521,5.6141,5.6068,5.6033,5.6072,5.6878,5.7438,5.7825,5.8809,5.8818,5.8287,5.9766,5.9777,5.8999,6.0083,6.1045,6.1684,6.0519,6.0045,5.9944,4.5404,4.6321,4.7198,4.7417,4.6839,4.6458,4.6872,4.5866,4.4831,4.4068,4.3843,4.3406,4.2523,4.2302,4.2397,4.2802,4.3037,4.2888,4.2169,4.2356,4.23,4.1937,4.1964,4.2801,4.462,4.4247,4.4234,4.4644,4.5032,4.5341,4.5622,4.5856,4.6434,4.7306,4.7005,4.6842,4.6752,4.6379,4.6562,4.7131,4.7261,4.7721,4.8418,4.9343,4.9175,4.8708,5.0413,5.1194,5.1603,5.2456,5.3493,5.4392,5.4426,5.4185,5.4085,5.497,5.4414,5.3648,5.4246,5.3955,5.3644,5.4246,5.6246,5.849,6.0179,6.0131,5.9291,5.7823,5.6135,5.4458,5.2997,5.2735,5.2997,5.3866,5.4803,5.5702,5.6482,5.5857,5.5581,5.6396,5.5015,5.3977,5.391,5.3034,5.2139,5.1274,5.1184,5.1153,5.1132,5.2013,5.2524,5.2542,5.3345,5.4233,5.5126,5.4901,5.528,5.6164,5.6125,5.6093,5.6084,5.6979,5.7803,5.8576,5.8636,5.908,5.9716,5.9577,5.948,5.9542,5.996,6.0762,6.1529,6.0423,6.005,5.996,4.549,4.6084,4.6383,4.6543,4.644,4.6312,4.6395,4.5589,4.4981,4.479,4.4271,4.3651,4.2899,4.2992,4.2947,4.2479,4.1621,4.1061,4.0895,4.0735,4.0627,4.0535,4.0939,4.1906,4.3503,4.3933,4.4697,4.5835,4.5457,4.5705,4.6506,4.606,4.6368,4.732,4.7487,4.7292,4.6788,4.6966,4.7077,4.7131,4.7279,4.7813,4.8512,4.8753,4.964,5.0657,5.0361,5.1694,5.3678,5.3883,5.4123,5.434,5.4522,5.4594,5.4634,5.4559,5.4809,5.4878,5.3958,5.4053,5.4306,5.3823,5.5164,5.6966,5.8636,5.899,5.8831,5.8496,5.6631,5.4741,5.3796,5.3622,5.3711,5.3945,5.5265,5.6313,5.6559,5.5851,5.5373,5.556,5.4591,5.393,5.3908,5.2985,5.2304,5.2058,5.2003,5.1958,5.1943,5.2833,5.3638,5.4326,5.449,5.5031,5.6019,5.5862,5.586,5.6037,5.5998,5.5876,5.5835,5.7448,5.8179,5.828,5.9518,5.9802,5.9367,5.9958,5.9869,5.9418,6.0124,6.0558,6.0674,5.962,5.8838,5.8244,4.4948,4.5624,4.6047,4.6325,4.6453,4.654,4.672,4.6133,4.5528,4.4986,4.4557,4.403,4.3237,4.3355,4.3238,4.2659,4.181,4.1198,4.0802,4.0493,4.0337,4.0387,4.1192,4.2157,4.3336,4.4237,4.5201,4.6228,4.6082,4.6271,4.6801,4.6646,4.6859,4.732,4.771,4.7753,4.7507,4.7756,4.7868,4.7832,4.7996,4.8309,4.8698,4.9212,4.9915,5.0676,5.1138,5.2493,5.4074,5.4182,5.4235,5.4306,5.4505,5.4474,5.4334,5.424,5.438,5.4304,5.3155,5.3491,5.3794,5.2104,5.3649,5.5902,5.7133,5.8115,5.87,5.8309,5.7256,5.6143,5.5279,5.5153,5.5194,5.5232,5.5969,5.655,5.6596,5.6201,5.5918,5.5897,5.5438,5.4968,5.4523,5.3236,5.2576,5.2957,5.2901,5.2856,5.288,5.3708,5.439,5.4839,5.5242,5.5736,5.6238,5.6102,5.602,5.5938,5.5977,5.5923,5.5827,5.7246,5.8046,5.8389,5.9577,6.003,5.9967,6.0212,6.0135,5.9881,6.0171,6.0403,6.0431,5.9472,5.8617,5.7851,4.4586,4.5425,4.6094,4.6495,4.666,4.6845,4.7262,4.6753,4.6024,4.5119,4.4756,4.4288,4.3535,4.3422,4.3256,4.2881,4.2368,4.18,4.1155,4.0793,4.068,4.0799,4.1765,4.2707,4.3639,4.4636,4.5505,4.6277,4.659,4.6778,4.6906,4.7254,4.7407,4.7385,4.7809,4.8072,4.8226,4.8438,4.8569,4.866,4.8804,4.884,4.8932,4.9758,5.0114,5.0324,5.1934,5.3125,5.3926,5.4073,5.4198,5.4265,5.4455,5.4284,5.4009,5.404,5.3716,5.3145,5.2348,5.2663,5.264,5.0131,5.1961,5.4536,5.5205,5.6977,5.8329,5.7804,5.7646,5.7358,5.6631,5.6562,5.6601,5.6596,5.6596,5.6597,5.6592,5.6591,5.6502,5.6313,5.6251,5.6012,5.538,5.3864,5.3196,5.387,5.3829,5.3824,5.3794,5.4568,5.5033,5.5033,5.5799,5.6209,5.6218,5.6054,5.5938,5.5884,5.6012,5.5995,5.5885,5.6984,5.7853,5.851,5.937,6.01,6.0657,6.0349,6.0293,6.0416,6.0275,6.0373,6.0494,5.96,5.8769,5.7987,4.5723,4.6389,4.6637,4.6799,4.6845,4.7017,4.7407,4.6448,4.5613,4.5645,4.4804,4.4097,4.3772,4.3093,4.261,4.2562,4.1663,4.1064,4.0998,4.1059,4.1163,4.13,4.1687,4.2626,4.4185,4.4485,4.523,4.6542,4.659,4.6801,4.7133,4.7201,4.7377,4.7657,4.7891,4.8111,4.8287,4.8513,4.8642,4.8787,4.8999,4.9013,4.8976,4.9122,5.0155,5.1565,5.1717,5.2871,5.4323,5.4271,5.4375,5.4472,5.4505,5.4623,5.4667,5.4155,5.3537,5.2931,5.2357,5.1742,5.0872,4.9236,5.0277,5.1754,5.1986,5.4513,5.7028,5.7646,5.7241,5.6748,5.6598,5.6601,5.6596,5.6598,5.6554,5.6546,5.6584,5.6538,5.625,5.5477,5.5311,5.5526,5.6086,5.5234,5.4686,5.4728,5.4676,5.4638,5.4636,5.5473,5.5924,5.5924,5.6048,5.6149,5.6218,5.6054,5.5929,5.5808,5.5932,5.5895,5.5709,5.7384,5.8099,5.808,5.9626,6.0234,6.0217,6.0251,6.0223,6.0188,6.0481,6.0572,6.0405,5.9601,5.8745,5.8017,4.6248,4.689,4.7196,4.7356,4.7585,4.7689,4.7648,4.6923,4.615,4.5715,4.4947,4.4215,4.3556,4.301,4.2612,4.2362,4.1978,4.1556,4.1152,4.1673,4.2032,4.2169,4.3261,4.4321,4.5227,4.5735,4.6396,4.7209,4.7075,4.7098,4.7254,4.7486,4.7651,4.7699,4.8012,4.8248,4.8438,4.8642,4.8822,4.8982,4.9068,4.9148,4.9279,4.9765,5.0733,5.1877,5.2583,5.342,5.4216,5.4218,5.4285,5.4455,5.4592,5.4458,5.4126,5.3531,5.2897,5.2057,5.0443,5.0147,4.9802,4.7719,4.962,5.186,5.1492,5.4431,5.7246,5.7135,5.7221,5.7186,5.6677,5.6601,5.66,5.6601,5.6598,5.6554,5.6589,5.6538,5.6358,5.5968,5.4585,5.4178,5.5514,5.4795,5.4466,5.4858,5.5304,5.5528,5.5551,5.5866,5.6042,5.6042,5.6003,5.6012,5.6106,5.5986,5.5921,5.5912,5.5913,5.5855,5.5709,5.7086,5.7856,5.8247,5.9369,6.0073,6.0414,6.0321,6.0335,6.0428,6.0546,6.0239,5.9714,5.9318,5.8947,5.8628]}]]